[[{"header":{"parameterUnit":"m.s-1","parameterCategory":1,"la1":30.6,"la2":29.2853,"lo1":-89.7004,"lo2":-87.6739,"dy":0.0162,"dx":0.0183,"nx":112,"ny":82,"refTime":"2024-02-10T06:00:00:Z","depth":0,"parameterNumber":2,"parameterNumberName":"U-component_of_WINDS"},"data":[0.0,0.0,0.0,0.0,0.0,0.0,0.0,0.0,0.0,0.0,0.0,0.0,0.0,0.0,0.0,0.0,0.0,0.0,0.0,0.0,0.0,0.0,0.0,0.0,0.0,0.0,0.0,0.0,0.0,0.0,0.0,0.0,0.0,0.0,0.0,0.0,0.0,0.0,0.0,0.0,0.0,0.0,0.0,0.0,0.0,0.0,0.0,0.0,0.0,0.0,0.0,0.0,0.0,0.0,0.0,0.0,0.0,0.0,0.0,0.0,0.0,0.0,0.0,0.0,0.0,0.0,0.0,0.0,0.0,0.0,0.0,0.0,0.0,0.0,0.0,0.0,0.0,0.0,0.0,0.0,0.0,0.0,0.0,0.0,0.0,0.0,0.0,0.0,0.0,0.0,-3.6752,-4.0002,-4.4793,-4.7229,-4.593,-4.4533,-4.2453,-3.9433,0.0,0.0,0.0,0.0,0.0,0.0,0.0,0.0,0.0,0.0,0.0,0.0,0.0,0.0,0.0,0.0,0.0,0.0,0.0,0.0,0.0,0.0,0.0,0.0,0.0,0.0,0.0,0.0,0.0,0.0,0.0,0.0,0.0,0.0,0.0,0.0,0.0,0.0,0.0,0.0,0.0,0.0,0.0,0.0,0.0,0.0,0.0,0.0,0.0,0.0,0.0,0.0,0.0,0.0,0.0,0.0,0.0,0.0,0.0,0.0,0.0,0.0,0.0,0.0,0.0,0.0,0.0,0.0,0.0,0.0,0.0,0.0,0.0,0.0,0.0,0.0,0.0,0.0,0.0,0.0,0.0,0.0,0.0,0.0,0.0,0.0,0.0,0.0,0.0,0.0,0.0,0.0,0.0,0.0,0.0,0.0,0.0,0.0,0.0,0.0,0.0,0.0,0.0,0.0,-3.761,-4.3157,-4.4402,-4.5005,-4.5431,-4.2006,-3.9342,-3.8138,0.0,0.0,0.0,0.0,0.0,0.0,0.0,0.0,0.0,0.0,0.0,0.0,0.0,0.0,0.0,0.0,0.0,0.0,0.0,0.0,0.0,0.0,0.0,0.0,0.0,0.0,0.0,0.0,0.0,0.0,0.0,0.0,0.0,0.0,0.0,0.0,0.0,0.0,0.0,0.0,0.0,0.0,0.0,0.0,0.0,0.0,0.0,0.0,0.0,0.0,0.0,0.0,0.0,0.0,0.0,0.0,0.0,0.0,0.0,0.0,0.0,0.0,0.0,0.0,0.0,0.0,0.0,0.0,0.0,0.0,0.0,0.0,0.0,0.0,0.0,0.0,0.0,0.0,0.0,0.0,0.0,0.0,0.0,0.0,0.0,0.0,0.0,0.0,0.0,0.0,0.0,0.0,0.0,0.0,0.0,0.0,0.0,0.0,0.0,0.0,0.0,0.0,0.0,-3.6798,-3.9188,-4.3747,-4.4473,-4.4435,-4.3927,-4.0777,-3.8313,-3.7072,-3.6225,0.0,0.0,0.0,0.0,0.0,0.0,0.0,0.0,0.0,0.0,0.0,0.0,0.0,0.0,0.0,0.0,0.0,0.0,0.0,0.0,0.0,0.0,0.0,0.0,0.0,0.0,0.0,0.0,0.0,0.0,0.0,0.0,0.0,0.0,0.0,0.0,0.0,0.0,0.0,0.0,0.0,0.0,0.0,0.0,0.0,0.0,0.0,0.0,0.0,0.0,0.0,0.0,0.0,0.0,0.0,0.0,0.0,0.0,0.0,0.0,0.0,0.0,0.0,0.0,0.0,0.0,0.0,0.0,0.0,0.0,0.0,0.0,0.0,0.0,0.0,0.0,0.0,0.0,0.0,0.0,0.0,0.0,0.0,0.0,0.0,0.0,0.0,0.0,0.0,0.0,0.0,0.0,0.0,0.0,0.0,0.0,0.0,0.0,0.0,0.0,0.0,0.0,-3.9254,-4.0335,-4.3621,-4.4387,-4.4103,-4.2661,-3.9847,-3.7606,-3.6376,-3.4064,0.0,0.0,0.0,0.0,0.0,0.0,0.0,0.0,0.0,0.0,0.0,0.0,0.0,0.0,0.0,0.0,0.0,0.0,0.0,0.0,0.0,0.0,0.0,0.0,0.0,0.0,0.0,0.0,0.0,0.0,0.0,0.0,0.0,0.0,0.0,0.0,0.0,0.0,0.0,0.0,0.0,0.0,0.0,0.0,0.0,0.0,0.0,0.0,0.0,0.0,0.0,0.0,0.0,0.0,0.0,0.0,0.0,0.0,0.0,0.0,0.0,0.0,0.0,0.0,0.0,0.0,0.0,0.0,0.0,0.0,0.0,0.0,0.0,0.0,0.0,0.0,0.0,0.0,0.0,0.0,0.0,0.0,0.0,0.0,0.0,0.0,0.0,0.0,0.0,0.0,0.0,0.0,0.0,0.0,0.0,0.0,0.0,0.0,0.0,0.0,0.0,0.0,-3.816,-4.0267,-4.3564,-4.3771,-4.3358,-4.249,-3.8768,-3.6413,-3.6303,-3.3003,0.0,0.0,0.0,0.0,0.0,0.0,0.0,0.0,0.0,0.0,0.0,0.0,0.0,0.0,0.0,0.0,0.0,0.0,0.0,0.0,0.0,0.0,0.0,0.0,0.0,0.0,0.0,0.0,0.0,0.0,0.0,0.0,0.0,0.0,0.0,0.0,0.0,0.0,0.0,0.0,0.0,0.0,0.0,0.0,0.0,0.0,0.0,0.0,0.0,0.0,0.0,0.0,0.0,0.0,0.0,0.0,0.0,0.0,0.0,0.0,0.0,0.0,0.0,0.0,0.0,0.0,0.0,0.0,0.0,0.0,0.0,0.0,0.0,0.0,0.0,0.0,0.0,0.0,0.0,0.0,0.0,0.0,0.0,0.0,0.0,0.0,0.0,0.0,0.0,0.0,0.0,0.0,0.0,0.0,0.0,0.0,0.0,0.0,0.0,0.0,0.0,0.0,-3.7752,-4.0067,-4.286,-4.2959,-4.2529,-4.1719,-3.8349,-3.6064,-3.5518,0.0,0.0,0.0,0.0,0.0,0.0,0.0,0.0,0.0,0.0,0.0,0.0,0.0,0.0,0.0,0.0,0.0,0.0,0.0,0.0,0.0,0.0,0.0,0.0,0.0,0.0,0.0,0.0,0.0,0.0,0.0,0.0,0.0,0.0,0.0,0.0,0.0,0.0,0.0,0.0,0.0,0.0,0.0,0.0,0.0,0.0,0.0,0.0,0.0,0.0,0.0,0.0,0.0,0.0,0.0,0.0,0.0,0.0,0.0,0.0,0.0,0.0,0.0,0.0,0.0,0.0,0.0,0.0,0.0,0.0,0.0,0.0,0.0,0.0,0.0,0.0,0.0,0.0,0.0,0.0,0.0,0.0,0.0,0.0,0.0,0.0,0.0,0.0,0.0,0.0,0.0,0.0,0.0,0.0,0.0,0.0,0.0,0.0,0.0,0.0,0.0,0.0,-3.5157,-3.7525,-3.9912,-4.2337,-4.2468,-4.1944,-4.0896,-3.7305,-3.5092,-3.5023,0.0,0.0,0.0,0.0,0.0,0.0,0.0,0.0,0.0,0.0,0.0,0.0,0.0,0.0,0.0,0.0,0.0,0.0,0.0,0.0,0.0,0.0,0.0,0.0,0.0,0.0,0.0,0.0,0.0,0.0,0.0,0.0,0.0,0.0,0.0,0.0,0.0,0.0,0.0,0.0,0.0,0.0,0.0,0.0,0.0,0.0,0.0,0.0,0.0,0.0,0.0,0.0,0.0,0.0,0.0,0.0,0.0,0.0,0.0,0.0,0.0,0.0,0.0,0.0,0.0,0.0,0.0,0.0,0.0,0.0,0.0,0.0,0.0,0.0,0.0,0.0,0.0,0.0,0.0,0.0,0.0,0.0,0.0,0.0,0.0,0.0,0.0,0.0,0.0,0.0,0.0,0.0,0.0,0.0,0.0,0.0,0.0,0.0,0.0,0.0,0.0,0.0,-3.508,-3.7428,-3.9773,-4.2122,-4.2299,-4.1625,-4.001,-3.5422,-3.3298,0.0,0.0,0.0,0.0,0.0,0.0,0.0,0.0,0.0,0.0,0.0,0.0,0.0,0.0,0.0,0.0,0.0,0.0,0.0,0.0,0.0,0.0,0.0,0.0,0.0,0.0,0.0,0.0,0.0,0.0,0.0,0.0,0.0,0.0,0.0,0.0,0.0,0.0,0.0,0.0,0.0,0.0,0.0,0.0,0.0,0.0,0.0,0.0,0.0,0.0,0.0,0.0,0.0,0.0,0.0,0.0,0.0,0.0,0.0,0.0,0.0,0.0,0.0,0.0,0.0,0.0,0.0,0.0,0.0,0.0,0.0,0.0,0.0,0.0,0.0,0.0,0.0,0.0,0.0,0.0,0.0,0.0,0.0,0.0,0.0,0.0,0.0,0.0,0.0,0.0,0.0,0.0,0.0,0.0,0.0,0.0,0.0,0.0,0.0,0.0,0.0,0.0,0.0,-3.4247,-3.6065,-3.8069,-4.0523,-4.0693,-4.0194,-3.9148,-3.5092,-3.3298,-3.4912,0.0,0.0,0.0,0.0,0.0,0.0,0.0,0.0,0.0,0.0,0.0,0.0,0.0,0.0,0.0,0.0,0.0,0.0,0.0,0.0,0.0,0.0,0.0,0.0,0.0,0.0,0.0,0.0,0.0,0.0,0.0,0.0,0.0,0.0,0.0,0.0,0.0,0.0,0.0,0.0,0.0,0.0,0.0,0.0,0.0,0.0,0.0,0.0,0.0,0.0,0.0,0.0,0.0,0.0,0.0,0.0,0.0,0.0,0.0,0.0,0.0,0.0,0.0,0.0,0.0,0.0,0.0,0.0,0.0,0.0,0.0,0.0,0.0,0.0,0.0,0.0,0.0,0.0,0.0,0.0,0.0,0.0,0.0,0.0,0.0,0.0,0.0,0.0,0.0,0.0,0.0,0.0,0.0,0.0,0.0,0.0,0.0,0.0,0.0,0.0,0.0,0.0,-3.3864,-3.5473,-3.7349,-3.9807,-3.9685,-3.9046,-3.8097,-3.4106,-3.2127,-3.33,0.0,0.0,0.0,0.0,0.0,0.0,0.0,0.0,0.0,0.0,0.0,0.0,0.0,0.0,0.0,0.0,0.0,0.0,0.0,0.0,0.0,0.0,0.0,0.0,0.0,0.0,0.0,0.0,0.0,0.0,0.0,0.0,0.0,0.0,0.0,0.0,0.0,0.0,0.0,0.0,0.0,0.0,0.0,0.0,0.0,0.0,0.0,0.0,0.0,0.0,0.0,0.0,0.0,0.0,0.0,0.0,0.0,0.0,0.0,0.0,0.0,0.0,0.0,0.0,0.0,0.0,0.0,0.0,0.0,0.0,0.0,0.0,0.0,0.0,0.0,0.0,0.0,0.0,0.0,0.0,0.0,0.0,0.0,0.0,0.0,0.0,0.0,0.0,0.0,0.0,0.0,0.0,0.0,0.0,0.0,0.0,0.0,0.0,0.0,0.0,0.0,0.0,-3.3914,-3.5373,-3.7132,-3.962,-3.9087,-3.8076,-3.6969,-3.2803,-3.0409,-3.0839,0.0,0.0,0.0,0.0,0.0,0.0,0.0,0.0,0.0,0.0,0.0,0.0,0.0,0.0,0.0,0.0,0.0,0.0,0.0,0.0,0.0,0.0,0.0,0.0,0.0,0.0,0.0,0.0,0.0,0.0,0.0,0.0,0.0,0.0,0.0,0.0,0.0,0.0,0.0,0.0,0.0,0.0,0.0,0.0,0.0,0.0,0.0,0.0,0.0,0.0,0.0,0.0,0.0,0.0,0.0,0.0,0.0,0.0,0.0,0.0,-3.9677,-4.0501,0.0,0.0,0.0,0.0,0.0,0.0,0.0,0.0,0.0,0.0,0.0,0.0,0.0,0.0,0.0,0.0,0.0,0.0,0.0,0.0,0.0,0.0,0.0,0.0,0.0,0.0,0.0,0.0,0.0,0.0,0.0,0.0,0.0,0.0,0.0,0.0,0.0,0.0,0.0,0.0,-3.4723,-3.4801,-3.5707,-3.8807,-3.8071,-3.6999,-3.6048,-3.2577,-3.0489,-3.0586,-2.8211,0.0,0.0,0.0,0.0,0.0,0.0,0.0,0.0,0.0,0.0,0.0,0.0,0.0,0.0,0.0,0.0,0.0,0.0,0.0,0.0,0.0,0.0,0.0,0.0,0.0,0.0,0.0,0.0,0.0,0.0,0.0,0.0,0.0,0.0,0.0,0.0,0.0,0.0,0.0,0.0,0.0,0.0,0.0,0.0,0.0,0.0,0.0,0.0,0.0,0.0,0.0,0.0,0.0,0.0,0.0,0.0,0.0,0.0,0.0,-4.1101,-4.0856,0.0,0.0,0.0,0.0,0.0,0.0,0.0,0.0,0.0,0.0,0.0,0.0,0.0,0.0,0.0,0.0,0.0,0.0,0.0,0.0,0.0,0.0,0.0,0.0,0.0,0.0,0.0,0.0,0.0,0.0,0.0,0.0,0.0,0.0,0.0,0.0,0.0,0.0,0.0,0.0,-3.4983,-3.4604,-3.5045,-3.7753,-3.7214,-3.5968,-3.4263,-3.1676,-2.9701,-2.8649,-2.7316,0.0,0.0,0.0,0.0,0.0,0.0,0.0,0.0,0.0,0.0,0.0,0.0,0.0,0.0,0.0,0.0,0.0,0.0,0.0,0.0,0.0,0.0,0.0,0.0,0.0,0.0,0.0,0.0,0.0,0.0,0.0,0.0,0.0,0.0,0.0,0.0,0.0,0.0,0.0,0.0,0.0,0.0,0.0,0.0,0.0,0.0,0.0,0.0,0.0,0.0,0.0,0.0,0.0,-4.3849,-4.4165,-4.4762,-4.4671,-4.4702,-4.4697,-4.3553,-4.21,-4.07,-4.1933,0.0,0.0,0.0,0.0,0.0,0.0,0.0,0.0,0.0,0.0,0.0,0.0,0.0,0.0,0.0,0.0,0.0,0.0,0.0,0.0,0.0,0.0,-3.5597,-3.5911,-3.6036,-3.5494,-3.3275,0.0,0.0,0.0,0.0,0.0,0.0,0.0,0.0,0.0,0.0,0.0,-3.479,-3.4363,-3.46,-3.6674,-3.6252,-3.4886,-3.2577,-3.0766,-2.8798,-2.6565,-2.6596,-2.6137,0.0,0.0,0.0,0.0,0.0,0.0,0.0,0.0,0.0,0.0,0.0,0.0,0.0,0.0,0.0,0.0,0.0,0.0,0.0,0.0,0.0,0.0,0.0,0.0,0.0,0.0,0.0,0.0,0.0,0.0,0.0,0.0,-3.6669,-3.6722,0.0,0.0,0.0,0.0,0.0,0.0,0.0,0.0,0.0,0.0,0.0,0.0,0.0,-4.3589,-4.4984,-4.5603,-4.5946,-4.6076,-4.7439,-4.7439,-4.6262,-4.6901,-4.6845,-4.6206,-4.6015,0.0,-4.3762,-4.3286,0.0,0.0,0.0,0.0,0.0,0.0,0.0,0.0,0.0,0.0,0.0,0.0,0.0,0.0,0.0,0.0,0.0,0.0,0.0,0.0,0.0,0.0,-3.6967,-3.6109,-3.6396,-3.6409,-3.4757,-3.4618,-3.4417,-3.3087,-3.1866,-3.1258,0.0,0.0,0.0,0.0,0.0,0.0,-3.3975,-3.3559,-3.3818,-3.5848,-3.473,-3.3475,-3.2474,-3.0642,-2.8583,-2.6308,-2.5771,-2.549,-2.5398,-2.5276,0.0,0.0,0.0,0.0,0.0,0.0,0.0,0.0,0.0,0.0,0.0,0.0,0.0,0.0,0.0,0.0,0.0,0.0,0.0,0.0,0.0,0.0,0.0,0.0,0.0,0.0,0.0,0.0,0.0,-3.8649,-3.9076,-3.8747,-4.0492,-4.1423,0.0,0.0,0.0,0.0,0.0,0.0,0.0,0.0,0.0,-4.4143,-4.5177,-4.6072,-4.6781,-4.7489,-4.8091,-4.8593,-4.9262,-4.9466,-4.9262,-4.9615,-4.9317,-4.8537,-4.8556,-4.7692,-4.6122,-4.4367,-4.3025,-4.1996,0.0,0.0,0.0,0.0,-4.027,-4.0296,-4.1223,-4.1029,-4.0461,-4.0816,0.0,0.0,0.0,0.0,0.0,0.0,0.0,-3.7797,-3.7298,-3.79,-3.8357,-3.7316,-3.7551,-3.7575,-3.601,-3.5323,-3.4638,-3.3392,-3.2975,-3.2831,-3.28,-3.1678,0.0,0.0,0.0,-3.1723,-3.3537,-3.3361,-3.345,-3.4431,-3.3728,-3.2504,-3.0906,-2.979,-2.8107,-2.5641,-2.5262,-2.4948,-2.4565,-2.4927,-2.6127,0.0,0.0,0.0,0.0,0.0,0.0,0.0,0.0,0.0,0.0,0.0,0.0,0.0,0.0,0.0,0.0,0.0,0.0,0.0,0.0,0.0,0.0,0.0,0.0,0.0,0.0,0.0,0.0,-3.9757,-4.0334,-3.9797,-4.1474,-4.2248,0.0,0.0,0.0,0.0,0.0,0.0,-4.424,-4.4899,-4.5724,-4.6719,-4.7781,-4.8519,-4.8946,-4.9559,-5.0172,-5.0822,-5.0971,-5.1398,-5.2011,-5.2011,-5.1435,-5.045,-5.0488,-4.9447,-4.7534,-4.5491,-4.3886,-4.267,-4.1635,-4.1242,-4.1205,-4.1017,-4.084,-4.0866,-4.2073,-4.1838,-4.1113,-4.1824,-4.1017,-3.9682,-3.9298,0.0,0.0,0.0,0.0,-3.8632,-3.901,-3.9352,-3.944,-3.8858,-3.8959,-3.8794,-3.7417,-3.6595,-3.5662,-3.4042,-3.3764,-3.3662,-3.3354,-3.2083,0.0,-3.2255,-3.1981,-3.2024,-3.3067,-3.3072,-3.2973,-3.2914,-3.2574,-3.1486,-2.9402,-2.8939,-2.7766,-2.5434,-2.5109,-2.4732,-2.4129,-2.4731,-2.5645,-2.6872,0.0,0.0,0.0,0.0,0.0,0.0,0.0,0.0,0.0,0.0,0.0,0.0,0.0,0.0,0.0,0.0,0.0,0.0,0.0,0.0,0.0,0.0,0.0,0.0,0.0,0.0,0.0,0.0,0.0,-3.7689,-4.0577,0.0,0.0,0.0,0.0,-4.4429,-4.5002,-4.5704,-4.6513,-4.7183,-4.8238,-4.9818,-4.993,-5.0748,-5.2345,-5.2401,-5.2438,-5.2494,-5.3255,-5.3645,-5.3683,-5.3683,-5.2828,-5.1323,-5.1342,-4.9968,-4.7627,-4.6735,-4.5879,-4.4984,-4.333,-4.2698,-4.2605,-4.1842,-4.1549,-4.1553,-4.1627,-4.1623,-4.1694,-4.2497,-4.2679,-4.2404,-4.1382,-4.12,0.0,0.0,-4.0323,-4.0228,-3.9991,-3.9899,-4.0024,-4.053,-4.0437,-4.0004,-3.9229,-3.8833,-3.7756,-3.4911,-3.2544,-3.1303,-3.2279,0.0,-3.0985,-3.1489,-3.2341,-3.2784,-3.2406,-3.2409,-3.2155,-3.1387,-3.1011,-3.0162,-2.8592,-2.8436,-2.7729,-2.6161,-2.5402,-2.4988,-2.4936,-2.4261,-2.4753,-2.658,-2.6664,0.0,0.0,0.0,0.0,0.0,0.0,0.0,0.0,0.0,0.0,0.0,0.0,0.0,0.0,0.0,0.0,0.0,0.0,0.0,0.0,0.0,0.0,0.0,0.0,0.0,0.0,0.0,0.0,-4.3464,-4.4993,0.0,-4.5664,-4.5686,-4.5923,-4.6432,-4.7236,-4.8058,-4.8844,-5.0133,-5.1361,-5.2457,-5.2995,-5.3813,-5.4964,-5.4426,-5.4147,-5.4147,-5.3924,-5.3534,-5.3032,-5.3032,-5.2159,-5.0618,-5.058,-4.9763,-4.8444,-4.8166,-4.7274,-4.5955,-4.4841,-4.4395,-4.4302,-4.3448,-4.3132,-4.3132,-4.3132,-4.2816,-4.224,-4.1497,-4.1256,-4.1185,-4.08,-4.0362,-4.016,-4.094,-4.0401,-3.9793,-4.0778,-4.0465,-3.9976,-4.021,-4.002,-3.9582,-3.8835,-3.8605,-3.8245,-3.7185,-3.5173,-3.3602,-3.3499,-3.2457,-3.1731,-3.1981,-3.2328,-3.2484,-3.2329,-3.2619,-3.2478,-3.1554,-3.093,-3.0127,-2.907,-2.8488,-2.7762,-2.6749,-2.5778,-2.5492,-2.5998,-2.4587,-2.4663,-2.6493,-2.6033,-2.6839,0.0,0.0,0.0,0.0,0.0,0.0,0.0,0.0,0.0,0.0,0.0,0.0,0.0,0.0,0.0,0.0,0.0,0.0,0.0,0.0,0.0,0.0,0.0,0.0,0.0,-4.3681,-4.5603,-4.7402,-4.872,-4.9545,-4.9687,-4.919,-4.9045,-4.9546,-5.0434,-5.1175,-5.1695,-5.3069,-5.3961,-5.4203,-5.4723,-5.528,-5.5856,-5.502,-5.4611,-5.4593,-5.4054,-5.3534,-5.2995,-5.2717,-5.1881,-5.058,-5.0246,-4.9652,-4.8909,-4.8909,-4.8277,-4.7237,-4.642,-4.6104,-4.5974,-4.4841,-4.4432,-4.4395,-4.4098,-4.3652,-4.3005,-4.1853,-4.1549,-4.1594,-4.1519,-4.1141,-4.0977,-4.2092,-4.1404,-4.0606,-4.172,-4.1045,-4.0092,-4.0126,-3.9687,-3.9134,-3.8653,-3.8462,-3.8399,-3.8399,-3.7033,-3.5632,-3.4859,-3.4006,-3.3382,-3.3287,-3.3241,-3.3186,-3.3154,-3.2933,-3.2391,-3.135,-3.055,-2.9765,-2.8962,-2.8655,-2.8062,-2.7027,-2.6579,-2.64,-2.656,-2.5642,-2.5643,-2.676,-2.6324,-2.7232,-2.9532,0.0,0.0,0.0,0.0,0.0,0.0,0.0,0.0,0.0,0.0,0.0,0.0,0.0,0.0,0.0,0.0,0.0,0.0,0.0,0.0,0.0,0.0,0.0,-4.3585,-4.5929,-4.7852,-4.8866,-5.1297,-5.2472,-5.1396,-5.2862,-5.3866,-5.3788,-5.4627,-5.5054,-5.4954,-5.5833,-5.5949,-5.5113,-5.5057,-5.5057,-5.5094,-5.4258,-5.385,-5.385,-5.3813,-5.3794,-5.3738,-5.2958,-5.2159,-5.1305,-5.0506,-4.967,-4.8909,-4.8927,-4.8927,-4.8816,-4.8017,-4.772,-4.7534,-4.59,-4.5268,-4.5138,-4.4283,-4.4005,-4.3958,-4.3697,-4.3795,-4.3939,-4.3697,-4.3795,-4.4005,-4.4005,-4.3429,-4.2797,-4.276,-4.159,-4.0383,-4.0378,-3.9575,-3.8822,-3.8822,-3.8606,-3.8415,-3.8415,-3.7791,-3.7006,-3.6185,-3.6039,-3.5853,-3.5271,-3.5082,0.0,-3.4794,-3.3308,-3.1822,-3.0728,-2.9901,-2.9098,-2.8308,-2.8929,-2.8683,-2.7108,-2.7768,-2.7721,-2.6623,-2.7335,-2.7604,-2.7349,-2.7581,-2.8465,-2.9999,0.0,0.0,0.0,0.0,0.0,0.0,0.0,0.0,0.0,0.0,0.0,0.0,0.0,0.0,0.0,0.0,0.0,0.0,0.0,0.0,0.0,-4.5138,-4.5881,-4.6057,-4.8054,-5.0389,-5.2786,-5.4249,-5.5175,-5.5496,-5.6027,-5.6088,-5.5493,-5.6835,-5.7173,-5.5983,-5.6709,-5.7063,-5.6822,-5.6246,-5.6227,-5.6822,-5.5391,-5.4686,-5.4667,-5.4091,-5.3497,-5.2921,-5.2698,-5.1825,-5.0488,-5.0878,-5.0228,-4.8946,-4.954,-4.9429,-4.8816,-4.8017,-4.8054,-4.8296,-4.6104,-4.4896,-4.4321,-4.4079,-4.4005,-4.3989,-4.3908,-4.3942,-4.3989,-4.3908,-4.3939,-4.4005,-4.4005,-4.3429,-4.2667,-4.2073,-4.1163,-4.0248,-3.9602,-3.9226,-3.9017,-3.9017,-3.896,-3.8917,-3.8917,-3.8732,-3.8221,-3.7071,-3.7,-3.6636,-3.5326,-3.5222,-3.5045,-3.4378,-3.3781,-3.3308,-3.2994,-3.2721,-3.2242,-3.1422,-3.1034,-3.0383,-2.935,-2.8795,-2.8496,-2.8532,-2.8553,-2.8419,-2.8108,-2.9491,-3.0143,0.0,0.0,0.0,0.0,0.0,0.0,0.0,0.0,0.0,0.0,0.0,0.0,0.0,0.0,0.0,0.0,0.0,0.0,0.0,0.0,0.0,0.0,-4.7129,-4.8623,-5.0153,-5.1619,-5.3448,-5.5884,-5.6811,-5.7437,-5.7957,-5.7932,-5.7687,-5.7223,-5.8118,-5.8141,-5.6878,-5.7583,-5.7528,-5.6506,-5.6357,-5.619,-5.5949,-5.4983,-5.45,-5.45,-5.4017,-5.3571,-5.3088,-5.2401,-5.1751,-5.1138,-5.0933,-5.0302,-4.9447,-4.9949,-4.9652,-4.8853,0.0,0.0,0.0,0.0,-4.5045,-4.4005,-4.4005,-4.4005,-4.4005,-4.4005,-4.4005,-4.4005,-4.4005,-4.4005,-4.3931,-4.3596,-4.2927,-4.211,-4.1311,-4.0476,-3.9733,-3.9212,-3.9101,-3.9101,-3.9101,-3.9101,-3.9101,-3.9101,-3.9101,0.0,-3.8125,-3.8077,-3.7738,-3.6458,-3.6054,-3.5594,-3.476,-3.3911,-3.3397,-3.3397,-3.3038,-3.2614,-3.2137,-3.1971,0.0,0.0,0.0,-3.0326,-3.0481,-3.0538,0.0,0.0,0.0,-3.1739,-3.0916,-3.2843,0.0,0.0,-3.3042,-3.3721,0.0,0.0,0.0,0.0,0.0,0.0,0.0,0.0,0.0,0.0,0.0,0.0,0.0,0.0,0.0,0.0,-4.8933,-5.0808,-5.4676,-5.5704,-5.6646,-5.8178,-5.8837,-5.9159,-5.9121,-5.8905,-5.8739,-5.8698,-5.8716,-5.8401,-5.7676,-5.8275,0.0,0.0,0.0,-5.5546,-5.4056,-5.3907,-5.3851,-5.3851,-5.3813,-5.3813,-5.3757,-5.2327,-5.2011,-5.2531,-5.1119,-5.0358,-5.0116,-5.0265,-4.9763,-4.889,-4.8797,-4.8723,-4.8444,-4.6921,-4.5417,-4.4135,-4.4023,0.0,0.0,-4.4005,-4.4005,-4.4005,-4.4005,-4.4005,-4.3838,-4.302,-4.2296,-4.1534,-4.0624,-3.9825,-3.9212,-3.912,-3.9101,-3.9101,-3.9101,-3.9101,-3.9101,-3.9101,-3.9101,-3.9101,-3.9101,-3.9027,-3.8692,-3.7894,-3.7037,-3.6181,-3.5353,-3.385,-3.2882,-3.2961,-3.2285,0.0,-3.1806,-3.2467,-3.2216,-3.0705,-3.2007,-3.268,-3.2379,-3.2826,-3.2659,-3.1765,-3.2909,-3.316,-3.2423,-3.3583,-3.4207,-3.4278,-3.4147,-3.464,0.0,0.0,0.0,0.0,0.0,0.0,0.0,0.0,0.0,0.0,0.0,0.0,0.0,0.0,0.0,-4.8779,-5.1269,-5.3797,-5.6264,-5.7614,-5.8604,-5.924,-5.9526,-5.9539,-5.9215,-5.9122,-5.8986,-5.8719,-5.8716,-5.8642,-5.8494,-5.8255,-5.7922,-5.7435,-5.6519,-5.5894,-5.5573,-5.4668,-5.4194,-5.4194,-5.3926,0.0,-5.3794,-5.3478,-5.307,-5.2624,-5.294,-5.1955,-5.0172,-5.0878,-5.0265,-4.8834,-4.8184,-4.7534,-4.6847,-4.5881,-4.5324,-4.4952,-4.4246,-4.4005,-4.4005,-4.4005,-4.4005,-4.4005,-4.4005,-4.4005,0.0,-4.302,-4.2686,-4.2222,-4.0773,-4.0285,-3.9974,-3.9268,-3.9101,-3.9101,-3.9101,-3.9101,-3.9101,-3.9101,-3.9101,-3.9101,-3.9101,-3.8562,-3.7856,-3.7039,-3.624,-3.5379,-3.4463,-3.3999,-3.4015,-3.4649,-3.4458,-3.4307,-3.4307,-3.4454,-3.4124,-3.3164,-3.3751,-3.4101,-3.4042,-3.4142,-3.37,-3.2662,-3.373,-3.4112,-3.3725,-3.4305,-3.4894,-3.5453,-3.4849,-3.4836,0.0,0.0,0.0,0.0,0.0,0.0,0.0,0.0,0.0,0.0,0.0,-4.447,-4.4913,0.0,-4.8836,-5.0952,-5.2924,-5.4868,-5.6731,-5.7954,-5.9032,-6.0074,-6.0116,-5.9981,-5.9769,-5.9605,-5.9415,-5.9271,-5.9253,-5.9253,-5.9253,-5.9021,-5.8693,-5.8259,-5.7197,-5.644,-5.5985,-5.5035,-5.4544,-5.4544,-5.438,-5.4212,-5.4054,-5.3643,-5.3366,-5.32,-5.32,-5.2271,-5.0729,-5.032,-4.9704,-4.8971,-4.8051,-4.7218,-4.6438,-4.6048,-4.5361,-4.4581,-4.4153,-4.4005,-4.4005,-4.4005,-4.4005,-4.4005,-4.4005,-4.4005,-4.3745,-4.2537,-4.2203,-4.1813,-4.0178,-3.9751,-3.964,-3.9194,-3.9101,-3.9101,-3.9101,-3.9101,-3.9101,-3.9101,-3.9101,-3.9101,-3.9101,-3.8432,-3.7764,-3.7355,-3.6946,-3.6389,-3.5515,-3.5301,-3.5407,-3.5809,-3.5735,-3.5646,-3.5646,-3.5646,-3.5477,-3.5073,-3.5659,-3.5808,-3.5425,-3.579,-3.5347,-3.3981,-3.5093,-3.5449,-3.4909,-3.5705,-3.6307,-3.6643,-3.6488,-3.6167,0.0,0.0,0.0,0.0,0.0,0.0,0.0,-4.4297,-4.3835,-4.3835,-4.5163,-4.6547,-4.7259,-4.8894,-5.0875,-5.3087,-5.4164,-5.5261,-5.6791,-5.7588,-5.8607,-6.0127,-6.0214,-6.0133,-6.0045,-5.9946,-5.9871,-5.9791,-5.9791,-5.9791,-5.9791,-5.9703,-5.9317,-5.8612,-5.7707,-5.6915,-5.6193,-5.5337,-5.4895,-5.4895,-5.4821,-5.4623,-5.4277,-5.3639,-5.3489,-5.3757,-5.281,-5.214,-5.1599,-4.9924,-4.9355,-4.9415,-4.8595,-4.7707,-4.6797,-4.6583,-4.5672,-4.4498,-4.4318,-4.4169,-4.4051,-4.402,-4.402,-4.4051,-4.402,-4.4005,-4.3708,-4.224,-4.1832,-4.1441,-3.977,-3.9342,-3.9305,-3.9138,-3.9101,-3.9101,-3.9101,-3.9101,-3.9101,-3.9101,-3.9101,-3.9101,-3.9101,-3.8562,-3.8079,-3.7912,-3.7764,-3.7429,-3.6753,-3.6578,-3.6496,-3.6468,-3.6356,-3.6358,-3.6505,-3.6523,-3.6597,-3.6762,-3.7367,-3.7382,-3.656,-3.7162,-3.6824,-3.5414,-3.6443,-3.6735,-3.6184,-3.7145,-3.7614,-3.7632,-3.7948,-3.7571,-4.5402,-4.4902,-4.4355,-4.5133,-4.4797,-4.4701,0.0,-4.6547,-4.6462,-4.6462,-4.7817,-4.899,-4.9106,-5.1125,-5.3126,-5.4184,-5.503,-5.5895,-5.6868,-5.708,-5.7492,-5.8473,-5.9181,-5.9477,-5.9161,-5.9807,-6.0116,-5.9823,-5.9791,-5.9791,-5.9791,-5.9333,-5.9054,-5.8958,-5.7697,-5.699,-5.6886,-5.5797,-5.523,-5.5249,-5.4938,-5.4623,-5.4315,-5.4221,-5.4032,-5.372,-5.2323,-5.218,-5.2782,-5.1169,-5.0509,-5.0525,-5.0416,-4.9406,-4.7893,-4.6869,-4.6459,-4.6271,-4.5443,-4.4764,-4.424,-4.4051,-4.4131,-4.4222,-4.4051,-4.4005,-4.3819,-4.2927,-4.2667,-4.2296,-4.0661,-4.0253,-4.0048,-3.9287,-3.9101,-3.9101,-3.9101,-3.9101,-3.9101,-3.9101,-3.9101,-3.9101,-3.9101,-3.9027,-3.8711,-3.8005,-3.7281,-3.6758,-3.655,-3.6509,-3.6454,-3.6346,-3.6317,-3.6578,-3.7309,-3.7364,-3.7676,-3.8395,-3.8524,-3.8193,-3.7401,-3.7456,-3.7247,-3.6699,-3.7183,-3.7554,-3.783,-3.7977,-3.8034,-3.8016,-3.8085,-3.8013,-4.3074,-4.3825,-4.4671,-4.3036,-4.4239,-4.6009,-4.6731,-4.725,-4.774,-4.8259,-4.9702,-5.101,-5.1529,-5.328,-5.4761,-5.5145,-5.5472,-5.5818,-5.6195,-5.5838,-5.5491,-5.5357,-5.6088,-5.712,-5.8455,-5.9344,-5.9786,-5.9649,-6.0095,-6.0382,-6.0382,-6.0176,-5.9805,-5.9306,-5.8281,-5.7511,-5.7003,-5.6019,-5.552,-5.552,-5.5394,-5.5113,-5.4708,-5.4708,-5.4511,-5.4089,-5.2961,-5.2709,-5.3001,-5.1872,-5.1184,-5.0813,-5.072,-5.0082,-4.9046,-4.7912,-4.6918,-4.6064,-4.5672,-4.5046,-4.4401,-4.4222,-4.4222,-4.427,-4.4051,-4.4005,-4.3838,-4.302,-4.2797,-4.2537,-4.1386,-4.0736,-4.0434,-4.0531,-3.9807,-3.9361,-4.0346,-3.9788,-3.925,-3.9751,-3.9454,-3.9101,-3.9101,-3.951,-3.9733,-3.9412,-3.8637,-3.8084,-3.8016,-3.7951,-3.7856,-3.7713,-3.7698,-3.7826,-3.8175,-3.8193,-3.834,-3.8689,-3.8707,-3.856,-3.8212,-3.8193,-3.8114,-3.7956,-3.8114,-3.8279,-3.8451,-3.8451,-3.8451,-3.8451,-3.8451,-3.8451,-4.2516,-4.3382,-4.444,-4.242,-4.4239,-4.6663,-4.7124,-4.7875,-4.8702,-4.9586,-5.0721,-5.176,-5.2395,-5.3683,-5.4722,-5.4972,-5.5203,-5.5376,-5.5376,-5.4664,-5.3818,-5.2953,-5.3203,-5.426,-5.6338,-5.7915,-5.8992,-5.9473,-6.0089,-6.055,-6.0781,-6.08,-6.0396,-5.9531,-5.8723,-5.7877,-5.7003,-5.6148,-5.5735,-5.5735,-5.5703,-5.5454,-5.5026,-5.489,-5.4735,-5.4498,-5.3586,-5.3325,-5.3524,-5.247,-5.1756,-5.128,-5.0953,-5.0453,-4.9809,-4.8961,-4.7579,-4.6111,-4.6068,-4.5406,-4.4524,-4.4401,-4.4358,-4.4329,-4.4147,-4.4036,-4.3875,-4.328,-4.3132,-4.2946,-4.2129,-4.1497,-4.1144,-4.1497,-4.0661,-4.0123,-4.133,-4.0643,-3.99,-4.0308,-3.9881,-3.9454,-3.9454,-3.9974,-4.0476,-4.0698,-4.0178,-3.9774,-3.976,-3.9634,-3.9411,-3.9071,-3.9239,-3.9184,-3.8744,-3.8909,-3.8946,-3.8707,-3.8707,-3.8707,-3.8707,-3.8707,-3.8643,-3.853,-3.8643,-3.8661,-3.853,-3.8661,-3.8707,-3.8707,-3.8707,-3.8707,-4.5248,-4.4335,-4.3547,-4.5075,-4.5537,-4.6075,-4.7682,-4.874,-4.9606,-5.0481,-5.0712,-5.075,-5.077,-5.1452,-5.2288,-5.3145,-5.3991,-5.453,-5.453,-5.3799,-5.2933,-5.2038,-5.126,-5.1144,-5.2,-5.5126,-5.7753,-5.9377,-5.9511,-5.9915,-6.0742,-6.08,-6.0396,-5.9531,-5.8723,-5.7877,-5.7003,-5.6209,-5.5787,-5.5806,-5.5671,-5.543,-5.5075,-5.4629,-5.4581,-5.4838,-5.3823,-5.3939,-5.4716,-5.3067,-5.2366,-5.2272,-5.1495,-5.0661,-4.9912,-4.986,-4.8705,-4.715,-4.7014,-4.597,-4.4672,-4.4542,-4.4501,-4.4473,-4.4329,-4.4162,-4.3986,-4.3968,-4.3968,-4.3782,-4.2965,-4.2742,-4.2537,-4.1776,-4.1553,-4.1534,-4.159,-4.1553,-4.1293,-4.0564,-4.0378,-4.0346,-4.0346,-4.0378,-4.0661,-4.1441,-4.1534,-4.1505,-4.1449,-4.1258,-4.0804,-3.9953,-4.0561,-4.0398,-3.8836,-3.9423,-3.9533,-3.8762,-3.8707,-3.8707,-3.8707,-3.8707,-3.8515,-3.8118,-3.8499,-3.8499,-3.8118,-3.8515,-3.8707,-3.8707,-3.8707,-3.8707,-4.3656,-4.4513,-4.5673,-4.5073,-4.6646,-4.8292,-4.8195,-4.8853,-4.9528,-4.9788,-4.9375,-4.9144,-4.9721,-5.0067,-5.0702,-5.2115,-5.3068,-5.403,-5.5145,-5.4587,-5.3337,-5.1337,-5.1337,-5.1174,-5.0375,-5.2868,-5.5226,-5.6857,-5.8044,-5.9064,-5.9896,-5.9935,-5.98,-5.9511,-5.8165,-5.7321,-5.7065,-5.6808,-5.6385,-5.5856,-5.5735,-5.5473,-5.5097,-5.499,-5.4922,-5.4874,-5.4534,-5.4591,-5.4863,-5.4295,-5.3404,-5.2366,-5.2101,-5.1149,-4.9912,-4.9912,-4.9225,-4.8232,-4.7507,-4.6592,-4.5584,-4.4855,-4.4565,-4.4473,-4.4344,-4.4162,-4.4005,-4.4005,-4.4005,-4.3949,-4.367,-4.3206,-4.2872,-4.3132,-4.237,-4.1887,-4.2965,-4.276,-4.2314,-4.2036,-4.198,-4.1813,-4.1293,-4.1627,-4.2073,-4.2352,-4.1943,-4.1546,-4.1391,-4.1311,-4.1125,-4.0742,-4.093,-4.0655,-3.9588,-3.9735,-3.9551,-3.8762,-3.8707,-3.8707,-3.8707,-3.8707,-3.8627,-3.8499,-3.8627,-3.8627,-3.8499,-3.8627,-3.8707,-3.8707,-3.8707,-3.8707,-4.4184,-4.5529,-4.7028,-4.6196,-4.7656,-4.9103,-4.8427,-4.8469,-4.8533,-4.815,-4.7382,-4.6854,-4.7104,-4.7153,-4.7798,-4.9788,-5.0577,-5.1741,-5.403,-5.3645,-5.2645,-5.1279,-5.1337,-5.1308,-5.0856,-5.204,-5.3639,-5.5581,-5.7326,-5.8644,-5.9454,-5.98,-5.9819,-5.9511,-5.8476,-5.7797,-5.754,-5.7581,-5.7312,-5.6762,-5.6214,-5.5853,-5.5656,-5.5268,-5.5052,-5.5014,-5.5014,-5.4975,-5.4897,-5.4714,-5.381,-5.2474,-5.2164,-5.1215,-4.9999,-4.9999,-4.9543,-4.8784,-4.7832,-4.7008,-4.6218,-4.525,-4.4864,-4.4713,-4.45,-4.4312,-4.4151,-4.4033,-4.4005,-4.4005,-4.4005,-4.3615,-4.3355,-4.3875,-4.3206,-4.2742,-4.3782,-4.3596,-4.3132,-4.2853,-4.2797,-4.263,-4.211,-4.2705,-4.3225,-4.3225,-4.2797,-4.2306,-4.1853,-4.2028,-4.2039,-4.1601,-4.1807,-4.1515,-4.0414,-4.0598,-4.0286,-3.9203,-3.9129,-3.9001,-3.8707,-3.8707,-3.8707,-3.8707,-3.8982,-3.9001,-3.8707,-3.9001,-3.8982,-3.8707,-3.9001,-3.8964,-4.672,-4.7295,-4.7634,-4.8381,-4.8587,-4.8536,-4.8378,-4.763,-4.6713,-4.577,-4.485,-4.397,-4.3181,-4.3071,-4.3951,-4.6547,-4.7048,-4.8269,-5.1673,-5.1491,-5.1279,-5.2,-5.1452,-5.1616,-5.3126,-5.2656,-5.3263,-5.568,-5.7347,-5.8616,-5.9465,-6.0292,-6.0389,-5.96,-5.956,-5.9168,-5.8389,-5.8452,-5.8471,-5.8349,-5.7098,-5.6575,-5.6661,-5.5512,-5.5066,-5.521,-5.5197,-5.5094,-5.4899,-5.4447,-5.3673,-5.2698,-5.1802,-5.0994,-5.0269,-5.0231,-4.9697,-4.8876,-4.8075,-4.7308,-4.656,-4.5736,-4.5351,-4.5129,-4.4812,-4.4624,-4.4452,-4.4136,-4.4033,-4.4033,-4.4017,-4.4036,-4.402,-4.4005,-4.4005,-4.4005,-4.4005,-4.4042,-4.3838,-4.302,-4.2853,-4.2853,-4.2853,-4.3485,-4.4005,-4.4005,-4.4005,-4.3695,-4.286,-4.3372,-4.3457,-4.2564,-4.3088,-4.2855,-4.1297,-4.1864,-4.1625,-4.0047,-3.9955,-3.9625,-3.8854,-3.8781,-3.8781,-3.8836,-3.9533,-3.9515,-3.8762,-3.957,-3.9551,-3.8781,-3.9588,-3.9551,-4.6562,-4.7955,-4.949,-4.9582,-4.9611,-4.9259,-4.7897,-4.6371,-4.4987,-4.4105,-4.2671,-4.1697,-4.2121,-4.2695,-4.4155,-4.7342,-4.8922,-5.1125,-5.5126,-5.5521,-5.5233,-5.478,-5.5107,-5.507,-5.4254,-5.52,-5.6117,-5.6724,-5.7206,-5.8112,-5.9577,-5.9866,-6.0184,-6.0608,-5.9365,-5.8933,-5.9408,-5.8867,-5.881,-5.9265,-5.828,-5.742,-5.6693,-5.6235,-5.5796,-5.542,-5.5281,-5.5268,-5.5326,-5.5059,-5.4504,-5.3716,-5.2748,-5.1945,-5.125,-5.0588,-5.03,-5.0124,-4.925,-4.7933,-4.6608,-4.6426,-4.5839,-4.5161,-4.5041,-4.4896,-4.4763,-4.4624,-4.4604,-4.4546,-4.4346,-4.4289,-4.425,-4.4048,-4.4005,-4.4005,-4.4005,-4.4506,-4.4711,-4.3856,-4.3689,-4.3689,-4.3689,-4.3856,-4.4005,-4.4005,-4.4005,-4.3899,-4.3635,-4.377,-4.3726,-4.3339,-4.3453,-4.3143,-4.2084,-4.2176,-4.1882,-4.0873,-4.0799,-4.0691,-4.049,-3.9918,-3.9882,-4.0471,-4.0102,-3.979,-3.9588,-4.0414,-4.0377,-3.9606,-4.0414,-4.0673,-4.8456,-4.9883,-5.1288,-5.1203,-5.0342,-4.9142,-4.7705,-4.5712,-4.3802,-4.2509,-4.1412,-4.0713,-4.0789,-4.1145,-4.2437,-4.5481,-4.7045,-4.949,-5.4107,-5.5415,-5.6126,-5.6761,-5.7261,-5.733,-5.6755,-5.7291,-5.8006,-5.8749,-5.8529,-5.8751,-5.9657,-6.0052,-6.0496,-6.0967,-6.0053,-5.9814,-6.0365,-5.9843,-5.9754,-6.0121,-5.9177,-5.8383,-5.7679,-5.6888,-5.6295,-5.588,-5.5578,-5.548,-5.5504,-5.5554,-5.5069,-5.4243,-5.3291,-5.2469,-5.1729,-5.0864,-5.0356,-5.0132,-5.0079,-4.8887,-4.7323,-4.6985,-4.6238,-4.5436,-4.5275,-4.543,-4.5524,-4.4998,-4.5109,-4.5224,-4.456,-4.4397,-4.4332,-4.4064,-4.4005,-4.4005,-4.4005,-4.4376,-4.4581,-4.4098,-4.4005,-4.4005,-4.4005,-4.4005,-4.4005,-4.4005,-4.4005,-4.3989,-4.3961,-4.3913,-4.3851,-4.3701,-4.3634,-4.3381,-4.2872,-4.2818,-4.2488,-4.168,-4.1627,-4.1462,-4.1113,-4.0671,-4.0653,-4.1095,-4.1001,-4.0781,-4.0432,-4.124,-4.1222,-4.0451,-4.1258,-4.1258,-5.1132,-5.2207,-5.2832,-5.2734,-5.0879,-4.8769,-4.7602,-4.5311,-4.2965,-4.1256,-4.0684,-4.0294,-3.9689,-3.9534,-4.0383,-4.3177,-4.43,-4.6633,-5.1856,-5.3876,-5.578,-5.8349,-5.8657,-5.8927,-5.963,-5.907,-5.9307,-6.0882,-6.0268,-5.9785,-5.9735,-6.0536,-6.1018,-6.1018,-6.1011,-6.1032,-6.1099,-6.0922,-6.0847,-6.0828,-5.9934,-5.9371,-5.9073,-5.7564,-5.6747,-5.6492,-5.6017,-5.5705,-5.5596,-5.5866,-5.5469,-5.4612,-5.3726,-5.2955,-5.2251,-5.1249,-5.042,-4.9879,-5.0634,-4.9881,-4.845,-4.7695,-4.6864,-4.61,-4.5851,-4.6281,-4.658,-4.5478,-4.5669,-4.5935,-4.4793,-4.4479,-4.4388,-4.4121,-4.4036,-4.4005,-4.4005,-4.4005,-4.4005,-4.4005,-4.4005,-4.4042,-4.4153,-4.4079,-4.4042,-4.4153,-4.4079,-4.4005,-4.4005,-4.3961,-4.3881,-4.3804,-4.3703,-4.3582,-4.3515,-4.3515,-4.3185,-4.2506,-4.2451,-4.2158,-4.1444,-4.1315,-4.1297,-4.1407,-4.2011,-4.1974,-4.126,-4.2066,-4.2047,-4.1279,-4.2084,-4.1644,-5.2207,-5.3105,-5.3594,-5.2871,-5.1328,-4.9375,-4.703,-4.4484,-4.2291,-4.1208,-3.9778,-3.9112,-4.0325,-4.0501,-4.1747,-4.5676,-4.6992,-4.9537,-5.531,-5.6387,-5.7533,-6.0137,-6.0445,-6.0525,-6.0723,-6.0613,-6.0654,-6.0992,-6.0307,-5.989,-5.9881,-6.0645,-6.109,-6.109,-6.108,-6.1089,-6.1099,-6.107,-6.1061,-6.1032,-6.0693,-6.0247,-5.9697,-5.8377,-5.7543,-5.7091,-5.6193,-5.5847,-5.5913,-5.5866,-5.5789,-5.5631,-5.4661,-5.4284,-5.4121,-5.2536,-5.1841,-5.1636,-5.1091,-5.026,-4.9455,-4.9301,-4.8662,-4.7939,-4.7832,-4.7896,-4.7794,-4.6835,-4.6655,-4.6503,-4.535,-4.4896,-4.4663,-4.4402,-4.4166,-4.4005,-4.4005,-4.4005,-4.4005,-4.4005,-4.4005,-4.4228,-4.4952,-4.4488,-4.4246,-4.4971,-4.4451,-4.4005,-4.4005,-4.3989,-4.3945,-4.382,-4.3788,-4.3686,-4.3515,-4.3515,-4.3441,-4.3313,-4.3277,-4.3222,-4.3075,-4.2451,-4.2396,-4.3057,-4.2561,-4.2231,-4.2084,-4.2892,-4.2873,-4.2121,-4.291,-4.2782,-5.3691,-5.4687,-5.5039,-5.3711,-5.1426,-4.8965,-4.6797,-4.4276,-4.2138,-4.1246,-4.0359,-3.9854,-4.0168,-4.0144,-4.0885,-4.3363,-4.4418,-4.6981,-5.2936,-5.4515,-5.6375,-5.9864,-6.0685,-6.0965,-6.1006,-6.101,-6.1002,-6.1002,-6.0703,-6.0518,-6.0518,-6.0886,-6.1099,-6.1099,-6.1099,-6.1099,-6.1099,-6.1099,-6.1061,-6.0932,-6.0942,-6.0678,-6.0168,-5.8888,-5.8131,-5.7748,-5.6464,-5.595,-5.6003,-5.5941,-5.595,-5.5907,-5.5005,-5.4714,-5.4581,-5.284,-5.221,-5.2074,-5.1196,-5.0647,-5.0318,-5.0318,-4.9455,-4.8392,-4.835,-4.8636,-4.8786,-4.7877,-4.7932,-4.7998,-4.6855,-4.6426,-4.6219,-4.5791,-4.5499,-4.5305,-4.5305,-4.5305,-4.5305,-4.5305,-4.5305,-4.5305,-4.5287,-4.4952,-4.4822,-4.5231,-4.4934,-4.4674,-4.4674,-4.5045,-4.5074,-4.4485,-4.4063,-4.3887,-4.4121,-4.4121,-4.3956,-4.3533,-4.3883,-4.3938,-4.3533,-4.313,-4.3112,-4.3496,-4.3112,-4.291,-4.2928,-4.3296,-4.3313,-4.2928,-4.3331,-4.3057,-5.4824,-5.5937,-5.6172,-5.4433,-5.1426,-4.8437,-4.6699,-4.4141,-4.1933,-4.1232,-4.0953,-4.0649,-4.0084,-3.9743,-3.9932,-4.115,-4.1993,-4.4457,-5.0044,-5.2438,-5.5055,-5.8982,-6.0352,-6.1018,-6.1029,-6.1011,-6.1022,-6.1022,-6.108,-6.1099,-6.1099,-6.0944,-6.0925,-6.1099,-6.1099,-6.108,-6.1051,-6.108,-6.1002,-6.0795,-6.1002,-6.0845,-6.0337,-5.9128,-5.8404,-5.8015,-5.6616,-5.6012,-5.6012,-5.6012,-5.6012,-5.5935,-5.5296,-5.5064,-5.4871,-5.3323,-5.2763,-5.2608,-5.1544,-5.1177,-5.1149,-5.0956,-5.0008,-4.8933,-4.8933,-4.9374,-4.9691,-4.8805,-4.8998,-4.9258,-4.8144,-4.779,-4.7583,-4.7103,-4.6825,-4.6647,-4.6605,-4.6589,-4.6573,-4.651,-4.6494,-4.6345,-4.5881,-4.5658,-4.5621,-4.5788,-4.5658,-4.5491,-4.5324,-4.5844,-4.5927,-4.511,-4.4598,-4.4494,-4.4965,-4.4966,-4.469,-4.4048,-4.4617,-4.4599,-4.3791,-4.3754,-4.368,-4.3515,-4.3515,-4.3515,-4.3515,-4.3515,-4.3515,-4.3515,-4.3515,-4.3057,-5.4824,-5.5937,-5.6172,-5.4433,-5.1426,-4.8437,-4.6699,-4.3711,-4.1269,-4.1134,-4.0465,-4.0123,-4.0749,-4.0227,-4.0448,-4.279,-4.3891,-4.5959,-5.0276,-5.3031,-5.5573,-5.8298,-6.0026,-6.1012,-6.108,-6.1089,-6.1089,-6.1089,-6.1099,-6.1099,-6.1099,-6.0402,-6.0344,-6.1079,-6.1099,-6.1012,-6.0836,-6.1002,-6.1002,-6.0795,-6.1002,-6.0693,-5.992,-5.9001,-5.815,-5.7339,-5.6409,-5.6012,-5.6012,-5.6012,-5.6012,-5.5993,-5.5915,-5.5896,-5.578,-5.489,-5.4561,-5.431,-5.2666,-5.2066,-5.195,-5.1149,-5.0801,-5.0666,-5.0666,-5.0724,-5.0592,-4.965,-4.9451,-4.9281,-4.8326,-4.7882,-4.7629,-4.7327,-4.7251,-4.7159,-4.6909,-4.6869,-4.6799,-4.6541,-4.6494,-4.6717,-4.7367,-4.6865,-4.6643,-4.7367,-4.6865,-4.6122,-4.5379,-4.5361,-4.5329,-4.5119,-4.5628,-4.5985,-4.5972,-4.5864,-4.5755,-4.5681,-4.5755,-4.5424,-4.4618,-4.4599,-4.425,-4.3497,-4.3515,-4.3515,-4.3515,-4.3515,-4.3515,-4.3515,-4.3515,-4.3057,-5.4199,-5.5918,-5.6836,-5.457,-5.1816,-4.9238,-4.748,-4.4805,-4.2695,-4.2673,-4.1969,-4.1304,-4.1158,-4.0381,-4.0088,-4.1069,-4.1045,-4.256,-4.734,-4.8884,-5.1425,-5.657,-5.8149,-5.9459,-6.107,-6.1152,-6.1099,-6.1099,-6.1099,-6.1099,-6.1099,-6.0809,-6.077,-6.1099,-6.1099,-6.1002,-6.0795,-6.1002,-6.1002,-6.0795,-6.05,-6.046,-6.0557,-5.8681,-5.7907,-5.8004,-5.6611,-5.6012,-5.6012,-5.6012,-5.6012,-5.6012,-5.6012,-5.6012,-5.5896,-5.5103,-5.4793,-5.4639,-5.3401,-5.2635,-5.2152,-5.1796,-5.1331,-5.0898,-5.0898,-5.0898,-5.0813,-5.046,-5.0314,-5.0195,-4.9823,-4.9459,-4.9171,-4.907,-4.8799,-4.8526,-4.8431,-4.8247,-4.8073,-4.7977,-4.7943,-4.7887,-4.7738,-4.7423,-4.733,-4.7646,-4.785,-4.7831,-4.7516,-4.7887,-4.7796,-4.676,-4.5564,-4.4981,-4.5396,-4.5822,-4.5622,-4.4577,-4.5459,-4.5423,-4.403,-4.3975,-4.3828,-4.3515,-4.3515,-4.3515,-4.3515,-4.3515,-4.3515,-4.3515,-4.3515,-4.3331,-5.2637,-5.4394,-5.5488,-5.3398,-5.0957,-4.873,-4.75,-4.5195,-4.3398,-4.3652,-4.3008,-4.2226,-4.166,-4.0817,-4.0204,-4.0203,-3.9857,-4.1025,-4.5166,-4.6388,-4.8837,-5.4152,-5.5689,-5.7327,-5.9957,-6.0775,-6.1143,-6.1099,-6.1099,-6.1099,-6.1099,-6.1099,-6.1099,-6.1099,-6.1032,-6.0932,-6.0795,-6.0932,-6.0932,-6.0795,-6.0191,-6.019,-6.0673,-5.8343,-5.7637,-5.812,-5.665,-5.6012,-5.6012,-5.6012,-5.6012,-5.6012,-5.6012,-5.6012,-5.5935,-5.5354,-5.5142,-5.5006,-5.3884,-5.3091,-5.25,-5.197,-5.1409,-5.0898,-5.0898,-5.089,-5.0901,-5.0885,-5.0827,-5.0776,-5.0776,-5.0557,-5.0347,-5.0347,-5.0057,-4.9759,-4.9655,-4.9389,-4.9139,-4.9061,-4.8978,-4.8723,-4.8147,-4.8139,-4.8172,-4.8071,-4.8623,-4.8936,-4.8592,-4.9039,-4.8964,-4.7813,-4.5683,-4.4601,-4.5332,-4.589,-4.569,-4.4443,-4.5474,-4.5439,-4.3953,-4.3863,-4.3736,-4.3515,-4.3515,-4.3515,-4.3515,-4.3515,-4.3515,-4.3515,-4.3515,-4.3515,-5.0,-5.084,-5.1269,-5.0449,-4.8262,-4.6348,-4.6328,-4.4297,-4.2656,-4.3516,-4.3008,-4.2402,-4.2383,-4.1738,-4.1191,-4.1191,-4.1855,-4.2967,-4.4676,-4.7086,-4.9307,-5.1055,-5.2727,-5.4772,-5.7376,-5.9859,-6.1237,-6.1108,-6.1099,-6.1099,-6.1099,-6.1099,-6.1099,-6.1099,-6.0901,-6.0795,-6.0795,-6.0795,-6.0795,-6.0795,-6.0191,-5.9899,-5.9841,-5.8101,-5.7299,-5.726,-5.6371,-5.6012,-5.6012,-5.6012,-5.6012,-5.6012,-5.6012,-5.6012,-5.6012,-5.5993,-5.5993,-5.576,-5.4078,-5.3478,-5.3207,-5.1459,-5.0917,-5.0898,-5.0898,-5.0893,-5.0891,-5.081,-5.0749,-5.0693,-5.0693,-5.0712,-5.0683,-5.0683,-5.0683,-5.0604,-5.0272,-4.9968,-4.9707,-4.9442,-4.9127,-4.8909,-4.889,-4.9158,-4.927,-4.8942,-4.9193,-4.899,-4.7863,-4.772,-4.772,-4.7701,-4.6252,-4.557,-4.6231,-4.6239,-4.6188,-4.617,-4.6136,-4.5714,-4.4813,-4.4707,-4.4305,-4.3533,-4.3515,-4.3515,-4.3515,-4.3515,-4.3515,-4.3515,-4.3515,-4.3515,-4.9238,-5.0332,-5.1211,-5.0391,-4.9121,-4.793,-4.7324,-4.6094,-4.5137,-4.543,-4.4316,-4.3281,-4.3281,-4.2148,-4.1387,-4.1933,-4.2226,-4.3007,-4.4723,-4.6187,-4.8326,-5.1759,-5.5624,-5.8532,-5.9867,-6.0691,-6.1143,-6.1099,-6.1099,-6.1099,-6.1099,-6.1099,-6.1099,-6.1099,-6.0901,-6.0795,-6.0795,-6.0256,-6.0256,-6.0795,-5.9573,-5.9319,-5.9841,-5.8101,-5.7299,-5.7241,-5.6371,-5.6012,-5.6012,-5.6012,-5.6012,-5.6012,-5.6012,-5.6012,-5.6012,-5.6012,-5.6012,-5.5857,-5.4755,-5.4,-5.3304,-5.2163,-5.1389,-5.0898,-5.0898,-5.0893,-5.0883,-5.0766,-5.072,-5.0827,-5.1385,-5.1106,-5.0846,-5.1395,-5.0937,-5.0336,-5.0218,-4.9981,-4.9757,-4.9679,-4.9579,-4.9521,-4.9521,-4.9594,-4.9637,-4.9535,-5.0065,-5.0289,-4.9757,-4.9671,-4.9384,-4.8592,-4.7571,-4.6793,-4.6479,-4.5908,-4.5303,-4.4663,-4.5078,-4.4955,-4.4022,-4.3916,-4.3754,-4.3515,-4.3515,-4.3515,-4.3515,-4.3515,-4.3515,-4.3515,-4.3515,-4.3791,-4.793,-4.8672,-4.9355,-4.8848,-4.832,-4.7773,-4.7226,-4.6699,-4.6308,-4.6308,-4.5176,-4.4082,-4.3769,-4.2578,-4.1816,-4.2324,-4.2148,-4.2656,-4.4707,-4.5742,-4.7868,-5.2095,-5.6431,-5.9251,-5.9647,-6.0597,-6.1161,-6.1099,-6.1099,-6.1099,-6.1099,-6.1099,-6.1099,-6.1099,-6.0901,-6.0693,-6.0468,-5.9884,-5.9884,-6.0448,-5.8867,-5.8739,-5.9822,-5.7753,-5.699,-5.7241,-5.6371,-5.6012,0.0,-5.6012,-5.6012,-5.6012,-5.6012,-5.6012,-5.6012,-5.6012,-5.6012,-5.5877,-5.5084,-5.4233,-5.3362,-5.248,-5.1602,-5.0898,-5.0866,-5.0861,-5.0838,-5.072,-5.0923,-5.128,-5.176,-5.1779,-5.176,-5.2279,-5.1589,-5.084,-5.084,-5.0376,-5.0038,-5.0374,-5.0586,-5.0746,-5.0746,-5.0859,-5.0804,-5.0361,-5.0523,-5.0561,-5.0194,-5.015,-4.9947,-4.9408,-4.837,-4.7627,-4.7423,-4.6104,-4.4902,-4.3952,-4.4315,-4.4252,-4.3635,-4.3549,-4.3515,-4.3515,-4.3515,-4.3515,-4.3515,-4.3515,-4.3515,-4.3515,-4.3515,-4.392,0.0,-4.6308,-4.6289,-4.6211,-4.625,-4.6289,-4.6211,-4.6269,0.0,-4.6308,-4.5605,-4.4746,-4.3945,-4.3086,-4.248,-4.248,-4.1914,-4.2305,-4.4668,-4.5996,-4.8236,-5.2284,-5.572,-5.7684,-5.7494,-5.9799,-6.1229,-6.1108,-6.1099,-6.1079,-6.1021,-6.1002,-6.0983,-6.0925,-6.0738,-6.041,-5.9899,-5.9647,-5.9608,-5.9783,-5.8178,-5.8217,-5.9629,-5.7211,-5.6487,-5.7164,-5.6351,-5.6012,-5.6012,-5.6012,-5.6012,-5.6012,-5.6012,-5.6012,-5.6012,-5.6012,-5.6012,-5.5877,-5.5084,-5.4271,-5.344,-5.25,-5.1602,-5.0882,-5.0827,-5.0801,-5.0803,-5.0721,-5.1241,-5.1846,-5.1962,-5.2538,-5.3145,-5.326,-5.2635,-5.1981,-5.1981,-5.1152,-5.0669,-5.1541,-5.212,-5.2479,-5.2536,-5.2787,-5.2627,-5.1513,-5.0849,-5.0279,-4.9627,-4.9536,-4.9658,-5.0001,-4.8703,-4.8091,-4.8834,-4.6735,-4.4994,-4.4061,-4.3927,-4.3791,-4.3615,-4.3531,-4.3515,-4.3515,-4.3515,-4.3515,-4.3515,-4.3515,-4.3533,-4.3589,-4.3589,-4.4048,-4.6308,0.0,-4.6133,-4.5469,-4.5801,-4.6133,0.0,-4.582,-4.6308,-4.6308,-4.5605,-4.4941,-4.4726,-4.3984,-4.3398,-4.3398,-4.3808,-4.4316,-4.4922,-4.8443,-5.1833,-5.4169,-5.734,-5.9094,-5.8394,-6.002,-6.1125,-6.1099,-6.1099,-6.0828,-6.0209,-6.017,-5.988,-5.9203,-5.9137,-5.936,-5.988,-5.9049,-5.8721,-5.8894,-5.8488,-5.8159,-5.7888,-5.726,-5.6738,-5.6293,-5.6089,-5.6012,-5.6012,-5.6012,-5.6012,-5.6012,-5.6012,-5.6012,-5.6012,-5.6012,-5.6012,-5.5877,-5.5084,-5.4677,-5.4233,-5.2713,-5.1602,-5.0882,-5.0827,-5.0801,-5.0803,-5.0721,-5.0846,-5.1279,-5.2568,-5.2538,-5.2538,-5.3876,-5.353,-5.2895,-5.2895,-5.2681,-5.2764,-5.3629,-5.3892,-5.4185,-5.4779,-5.4959,-5.4713,-5.3832,-5.3577,-5.2897,-5.1218,-5.0825,-5.0405,-4.964,-4.9005,-4.8686,-4.889,-4.7256,-4.5862,-4.5013,-4.4811,-4.4434,-4.3789,-4.3583,-4.3515,-4.3515,-4.3515,-4.3515,-4.3515,-4.3515,-4.3809,-4.4415,-4.4415,-4.5186,-4.6308,-4.6308,-4.6191,-4.5703,-4.5644,-4.5683,-4.5605,-4.5644,-4.582,-4.6211,-4.5918,-4.5351,-4.4551,-4.4023,-4.3691,-4.3691,-4.3769,-4.4512,-4.6504,-4.9711,-5.2931,-5.5846,-5.8023,-5.9416,-5.9725,-6.0228,-6.0557,-6.0557,-6.017,-5.9764,-5.9319,-5.93,-5.9087,-5.8613,-5.8217,-5.841,-5.93,-5.8327,-5.8095,-5.8593,-5.7791,-5.7366,-5.728,-5.6893,-5.6448,-5.6012,-5.6012,-5.6012,-5.6012,-5.6012,-5.6012,-5.6012,-5.6012,-5.6012,-5.6012,-5.6012,-5.6012,-5.5935,-5.5509,-5.4851,-5.3923,-5.2163,-5.1528,-5.136,-5.0934,-5.1343,-5.1847,-5.1376,-5.1548,-5.2145,-5.3453,-5.3722,-5.3876,-5.4838,-5.4414,-5.3799,-5.3799,-5.3491,-5.3453,-5.4337,-5.5126,-5.578,-5.6233,-5.6626,-5.6472,-5.5241,-5.4741,-5.3763,-5.1763,-5.1376,-5.0806,-4.9536,-4.9241,-4.9061,-4.8926,-4.8091,-4.7072,-4.585,-4.5307,-4.4835,-4.4376,-4.3889,-4.3766,-4.4099,-4.4414,-4.4599,-4.4599,-4.4599,-4.4819,-4.5259,-4.5259,-4.5902,-4.6308,-4.6308,-4.6269,-4.6133,-4.5547,-4.5156,-4.5762,-4.543,-4.5215,-4.5957,-4.6211,-4.5801,-4.4199,-4.4004,-4.4004,-4.373,-4.3418,-4.4668,-4.8887,-5.0925,-5.3325,-5.6972,-5.8333,-5.9397,-6.0422,-6.0132,-5.9841,-5.9706,-5.901,-5.8526,-5.841,-5.8391,-5.8333,-5.8197,-5.7501,-5.7521,-5.8391,-5.7675,-5.7598,-5.8178,-5.6844,-5.6525,-5.7086,-5.6332,-5.6012,-5.6012,-5.6012,-5.6012,-5.6012,-5.6012,-5.6012,-5.6012,-5.6012,-5.6012,-5.6012,-5.6012,-5.6012,-5.6012,-5.6012,-5.4978,-5.3423,-5.1954,-5.1843,-5.2157,-5.1419,-5.2164,-5.3157,-5.2482,-5.2731,-5.3395,-5.426,-5.5011,-5.5549,-5.5665,-5.5184,-5.4722,-5.4857,-5.4299,-5.4068,-5.5068,-5.6415,-5.7426,-5.7561,-5.8184,-5.8088,-5.6357,-5.5511,-5.4312,-5.2231,-5.1809,-5.118,-4.9815,-4.9502,-4.9311,-4.9111,-4.8964,-4.8261,-4.6785,-4.5916,-4.5401,-4.5189,-4.4526,-4.442,-4.4996,-4.5607,-4.5902,-4.5902,-4.5902,-4.5957,-4.6085,-4.6085,-4.6526,-4.6308,-4.6308,-4.6113,-4.5371,-4.5098,-4.4844,-4.4238,-4.457,-4.5039,-4.5176,-4.5781,-4.5996,-4.498,-4.5391,-4.543,-4.3945,-4.5449,-4.8047,-5.1621,-5.4086,-5.5764,-5.642,-5.9,-5.9977,-5.8072,-5.9106,-5.959,-5.8864,-5.869,-5.8275,-5.754,-5.7492,-5.7172,-5.6418,-5.6283,-5.6622,-5.7492,-5.7376,-5.699,-5.6399,-5.6874,-5.6777,-5.6197,-5.607,-5.6012,-5.6012,-5.6012,-5.6012,-5.6012,-5.6012,-5.6012,-5.6012,-5.6012,-5.6012,-5.6012,-5.6012,-5.6012,-5.6012,-5.6012,-5.5322,-5.4409,-5.4194,-5.3654,-5.3079,-5.2964,-5.3099,-5.3407,-5.3954,-5.3664,-5.3395,-5.426,-5.4587,-5.4857,-5.553,-5.5607,-5.5722,-5.6464,-5.6511,-5.6885,-5.8434,-5.8934,-5.9358,-6.0089,-6.0319,-5.9838,-5.8146,-5.78,-5.6827,-5.4353,-5.3207,-5.2164,-5.0978,-4.9977,-4.9535,-4.9891,-4.9299,-4.8797,-4.852,-4.769,-4.6863,-4.6039,-4.584,-4.5787,-4.5898,-4.5901,-4.5902,-4.5902,-4.5902,-4.625,-4.6911,-4.6911,-4.7351,-4.6308,-4.5957,-4.5508,-4.5098,-4.4648,-4.4062,-4.3203,-4.3301,-4.3867,-4.4805,-4.4941,-4.4766,-4.4375,-4.4629,-4.5098,-4.5703,-4.7554,-4.9773,-5.2293,-5.3915,-5.5191,-5.6136,-5.8327,-5.9281,-5.812,-5.872,-5.8836,-5.7965,-5.7462,-5.7018,-5.6622,-5.6603,-5.6409,-5.6012,-5.6012,-5.6177,-5.6583,-5.6603,-5.6622,-5.6699,-5.6622,-5.639,-5.6012,-5.6012,-5.6012,-5.6012,-5.6012,-5.6012,-5.6012,-5.6012,-5.6012,-5.6012,-5.6012,-5.6012,-5.6003,-5.5996,-5.6005,-5.5926,-5.5429,-5.4967,-5.4591,-5.41,-5.3947,-5.3861,-5.3427,-5.3898,-5.458,-5.4521,-5.4203,-5.4087,-5.4934,-5.5145,-5.5241,-5.5607,-5.6049,-5.6522,-5.6907,-5.7376,-5.7934,-5.8704,-5.9204,-5.9627,-6.0031,-6.0108,-5.9685,-5.8492,-5.7896,-5.6838,-5.4761,-5.3637,-5.2579,-5.1447,-5.0301,-4.9631,-4.9732,-4.9216,-4.8723,-4.8277,-4.789,-4.7228,-4.6291,-4.7089,-4.7296,-4.6764,-4.7095,-4.7298,-4.7298,-4.7298,-4.7481,-4.7868,-4.7868,-4.8014,-4.6308,-4.5801,-4.5156,-4.4531,-4.4043,-4.3535,-4.2851,-4.2851,-4.3398,-4.4726,-4.4629,-4.4258,-4.4043,-4.418,-4.5156,-4.7732,-4.9532,-5.1284,-5.3206,-5.4052,-5.5068,-5.6602,-5.7854,-5.8507,-5.8314,-5.8294,-5.7927,-5.7048,-5.6205,-5.5799,-5.5993,-5.5818,-5.5818,-5.5993,-5.6012,-5.6012,-5.6012,-5.6012,-5.6332,-5.699,-5.6313,-5.6012,-5.6012,-5.6012,-5.6012,-5.6012,-5.6012,-5.6012,-5.6012,-5.6012,-5.6012,-5.6012,-5.6012,-5.6012,-5.6003,-5.6007,-5.5979,-5.5891,-5.5171,-5.494,-5.4824,-5.4111,-5.4285,-5.4658,-5.4052,-5.4725,-5.5568,-5.4953,-5.4934,-5.5184,-5.5588,-5.5703,-5.5703,-5.5703,-5.6368,-5.706,-5.7272,-5.7973,-5.8588,-5.8588,-5.9242,-5.9742,-5.955,-5.9665,-5.9531,-5.8704,-5.8011,-5.7049,-5.5588,-5.4453,-5.3426,-5.2478,-5.1014,-4.9892,-4.9321,-4.9044,-4.8649,-4.8017,-4.798,-4.7649,-4.6932,-4.8137,-4.8438,-4.7666,-4.8218,-4.8532,-4.8532,-4.8532,-4.8532,-4.8532,-4.8513,-4.8438,-4.6308,-4.625,-4.5625,-4.3183,-4.3144,-4.3672,-4.3613,-4.4238,-4.4844,-4.4961,-4.5586,-4.5879,-4.5058,-4.5566,-4.6932,-4.9425,-5.1271,-5.3264,-5.5693,-5.6656,-5.747,-5.8414,-5.8571,-5.8275,-5.7473,-5.7396,-5.7028,-5.6167,-5.5335,-5.5219,-5.5973,-5.5296,-5.5238,-5.5993,-5.6012,-5.6012,-5.6012,-5.6012,-5.6031,-5.6089,-5.6031,-5.6012,-5.6012,-5.6012,-5.6012,-5.6012,-5.6012,-5.6012,-5.6012,-5.6012,-5.6012,-5.6012,-5.6012,-5.6012,-5.6003,-5.6003,-5.5969,-5.5914,-5.5894,-5.5789,-5.5639,-5.5622,-5.5621,-5.5598,-5.5541,-5.5618,-5.5684,-5.5626,-5.6214,-5.6656,-5.5876,-5.5703,-5.5703,-5.5703,-5.6368,-5.7234,-5.803,-5.8838,-5.9415,-5.9415,-6.0108,-6.0454,-5.9646,-6.0165,-6.0416,-5.955,-5.9358,-5.9011,-5.8146,-5.6569,-5.5396,-5.5065,-5.262,-5.0443,-4.9049,-4.8907,-4.889,-4.8816,-4.8816,-4.8779,-4.8706,-4.8766,-4.8768,-4.8695,-4.8623,-4.8587,-4.8587,-4.8587,-4.8587,-4.8587,-4.8532,-4.8476,-4.6308,-4.5508,-4.4453,-4.3457,-4.3047,-4.2754,-4.2266,-4.3633,-4.5,-4.5,-4.5254,-4.5391,-4.5058,-4.6152,-4.7928,-5.0418,-5.2197,-5.3978,-5.5967,-5.6866,-5.7265,-5.7052,-5.797,-5.8043,-5.6631,-5.697,-5.6719,-5.5354,-5.4967,-5.4697,-5.4465,-5.4155,-5.4387,-5.5238,-5.4735,-5.4716,-5.5258,-5.4716,-5.4445,-5.4445,-5.4987,-5.4967,-5.4445,-5.4445,-5.4445,-5.4445,-5.4445,-5.4445,-5.4445,-5.4445,-5.4445,-5.4445,-5.4445,-5.4757,-5.5186,-5.514,-5.547,-5.5895,-5.5836,-5.5787,-5.5756,-5.5745,-5.5724,-5.5799,-5.6349,-5.6522,-5.6522,-5.6522,-5.6753,-5.6926,-5.6599,-5.6915,-5.7319,-5.7319,-5.7569,-5.7896,-5.8223,-5.8934,-5.9492,-5.9492,-5.9762,-6.0069,-6.0262,-5.9261,-5.8511,-5.8723,-5.828,-5.7838,-5.753,-5.6434,-5.5651,-5.5554,-5.334,-5.1466,-5.054,-5.045,-5.0297,-4.9978,-4.9289,-4.8891,-4.884,-4.8839,-4.8804,-4.8678,-4.8715,-4.8715,-4.8715,-4.8715,-4.8715,-4.8715,-4.8697,-4.8606,-4.5488,-4.4414,-4.3223,-4.2969,-4.3066,-4.3086,-4.2539,-4.3965,-4.5566,-4.6113,-4.623,-4.623,-4.623,-4.7207,-4.8824,-5.1277,-5.2824,-5.4363,-5.6283,-5.6745,-5.6661,-5.607,-5.6824,-5.6824,-5.5354,-5.576,-5.5625,-5.4484,-5.4136,-5.3846,-5.3517,-5.3246,-5.3478,-5.4368,-5.3807,-5.3788,-5.4387,-5.3807,-5.3362,-5.3091,-5.3691,-5.3807,-5.3498,-5.3498,-5.3498,-5.3498,-5.3498,-5.3498,-5.3498,-5.3498,-5.3489,-5.3492,-5.3754,-5.4173,-5.4658,-5.4621,-5.5143,-5.5865,-5.5756,-5.5745,-5.5814,-5.6051,-5.6107,-5.6261,-5.7146,-5.7407,-5.7407,-5.7407,-5.7588,-5.7723,-5.7473,-5.7646,-5.7896,-5.7896,-5.8107,-5.8223,-5.7953,-5.855,-5.905,-5.8761,-5.9146,-5.9608,-5.9954,-5.8781,-5.8088,-5.8954,-5.8338,-5.778,-5.778,-5.7049,-5.6129,-5.5135,-5.3536,-5.2247,-5.1471,-5.1469,-5.1219,-5.0516,-4.9834,-4.9305,-4.8995,-4.8926,-4.8838,-4.8714,-4.8786,-4.884,-4.884,-4.884,-4.884,-4.884,-4.8804,-4.8715,-4.3729,-4.3085,-4.2226,-4.1426,-4.3125,-4.498,-4.5019,-4.5683,-4.6816,-4.8555,-4.8926,-4.8926,-4.8926,-4.8926,-4.9719,-5.2111,-5.3178,-5.4547,-5.6944,-5.6525,-5.5993,-5.5993,-5.5277,-5.4445,-5.3575,-5.3498,-5.3498,-5.3478,-5.2693,-5.2577,-5.342,-5.2655,-5.2597,-5.3459,-5.3478,-5.3478,-5.3478,-5.3478,-5.3033,-5.219,-5.219,-5.2627,-5.3478,-5.3478,-5.3478,-5.3478,-5.3478,-5.3478,-5.3478,-5.3478,-5.3434,-5.3469,-5.4254,-5.4564,-5.4583,-5.4583,-5.5104,-5.5797,-5.5797,-5.5756,-5.5838,-5.6714,-5.6983,-5.7157,-5.805,-5.8319,-5.8319,-5.8319,-5.8896,-5.9319,-5.8511,-5.7665,-5.7003,-5.7003,-5.7665,-5.8069,-5.7195,-5.7684,-5.803,-5.7176,-5.8338,-5.9223,-5.8454,-5.8954,-5.9762,-6.0646,-6.0031,-5.9492,-5.9473,-5.8781,-5.7076,-5.3946,-5.3321,-5.266,-5.1508,-5.1656,-5.1368,-5.0282,-5.0457,-5.0257,-4.9418,-4.9077,-4.8909,-4.8909,-4.8909,-4.8909,-4.8909,-4.8909,-4.8909,-4.8909,-4.884,-4.8787,-4.5526,-4.4453,-4.3398,-4.3789,-4.3984,-4.4414,-4.5625,-4.6582,-4.7715,-4.9453,-5.0254,-5.0664,-5.0664,-5.0664,-5.1243,-5.305,-5.3548,-5.4124,-5.5357,-5.5316,-5.4929,-5.431,-5.402,-5.3768,-5.3536,-5.3498,-5.3246,-5.2635,-5.2345,-5.2047,-5.1699,-5.1428,-5.1699,-5.2558,-5.1989,-5.197,-5.2577,-5.1989,-5.1254,-5.0442,-5.1022,-5.1428,-5.1679,-5.1679,-5.1679,-5.1679,-5.177,-5.1756,-5.1679,-5.177,-5.1819,-5.187,-5.2116,-5.2503,-5.2995,-5.3605,-5.4273,-5.4965,-5.5523,-5.5724,-5.5742,-5.5992,-5.6503,-5.7157,-5.805,-5.8704,-5.9146,-5.9146,-5.9319,-5.9319,-5.8511,-5.8107,-5.7915,-5.7915,-5.8107,-5.8069,-5.7195,-5.7214,-5.7311,-5.706,-5.7407,-5.803,-5.8973,-5.8357,-5.803,-5.8915,-5.8819,-5.8434,-5.7819,-5.7541,-5.6635,-5.4652,-5.4563,-5.4318,-5.3518,-5.3496,-5.3029,-5.1759,-5.1525,-5.0729,-4.9116,-4.8942,-4.8909,-4.8909,-4.8909,-4.8909,-4.8909,-4.8909,-4.8909,-4.8909,-4.8874,-4.8857,-4.4334,-4.3222,-4.2402,-4.3262,-4.3867,-4.4766,-4.6855,-4.8242,-4.9414,-5.0469,-5.1055,-5.1406,-5.1406,-5.1133,-5.1438,-5.2976,-5.3221,-5.3462,-5.4184,-5.4271,-5.3826,-5.2608,-5.2472,-5.2202,-5.1544,-5.1796,-5.1776,-5.1254,-5.1505,-5.1447,-5.0937,-5.0589,-5.0654,-5.1196,-5.0364,-5.0171,-5.0693,-5.0171,-4.9842,-4.9707,-5.0183,-5.0415,-5.0434,-5.0743,-5.0937,-5.0983,-5.1093,-5.108,-5.1043,-5.145,-5.1439,-5.119,-5.1511,-5.1876,-5.2302,-5.2819,-5.3459,-5.4188,-5.4979,-5.5256,-5.5318,-5.5992,-5.6579,-5.7234,-5.8415,-5.9127,-5.9569,-5.9915,-5.9762,-5.9319,-5.8511,-5.83,-5.8204,-5.7877,-5.778,-5.753,-5.6676,-5.6483,-5.6599,-5.6926,-5.7291,-5.7934,-5.9281,-5.8665,-5.8165,-5.8704,-5.8204,-5.7588,-5.708,-5.6587,-5.5968,-5.5094,-5.4938,-5.4787,-5.4528,-5.4495,-5.3874,-5.24,-5.2531,-5.1654,-4.934,-4.9158,-4.9094,-4.9094,-4.8978,-4.8909,-4.8909,-4.8909,-4.8909,-4.8909,-4.8909,-4.8874,-4.1656,-4.0858,-4.0469,-4.1328,-4.3476,-4.5996,-4.8457,-5.0254,-5.1406,-5.1406,-5.1523,-5.1641,-5.1641,-5.0976,-5.0911,-5.2372,-5.2559,-5.2704,-5.3294,-5.3304,-5.2647,-5.0995,-5.0724,-5.0105,-4.8662,-4.9243,-4.9707,-4.9707,-5.0376,-5.0763,-5.0685,-4.9977,-4.9591,-4.9591,-4.8817,-4.8392,-4.8392,-4.8392,-4.8759,-4.9455,-4.9548,-4.9548,-4.9494,-5.0376,-5.086,-5.1006,-5.1142,-5.1202,-5.1265,-5.2008,-5.1832,-5.1196,-5.1936,-5.2211,-5.2218,-5.2296,-5.273,-5.3409,-5.4241,-5.4514,-5.4773,-5.6293,-5.6879,-5.7291,-5.88,-5.9338,-5.9569,-6.0339,-5.9992,-5.9204,-5.8396,-5.8184,-5.7953,-5.7099,-5.6945,-5.6772,-5.5876,-5.5761,-5.603,-5.6753,-5.7646,-5.8531,-5.9261,-5.9396,-5.9358,-5.9281,-5.7896,-5.6887,-5.6887,-5.5983,-5.5326,-5.5301,-5.4773,-5.4525,-5.4821,-5.4836,-5.4168,-5.257,-5.334,-5.2749,-5.018,-4.9738,-4.9521,-4.9399,-4.9094,-4.8943,-4.8909,-4.8909,-4.8909,-4.8909,-4.8909,-4.8909,-4.4057,-4.3456,-4.3083,-4.3965,-4.6133,-4.8398,-4.9648,-5.0683,-5.1406,-5.1406,-5.248,-5.3437,-5.3437,-5.2734,-5.2454,-5.3369,-5.2948,-5.249,-5.2481,-5.1892,-5.1091,-5.0074,-4.9359,-4.9068,-4.9397,-4.9591,-4.9707,-4.9707,-4.9861,-4.9668,-4.8972,-4.8778,-4.8682,-4.8682,-4.8508,-4.8392,-4.8392,-4.8392,-4.814,-4.7676,-4.8406,-4.8361,-4.7715,-4.9262,-5.0035,-5.0202,-5.0891,-5.1258,-5.1369,-5.1483,-5.146,-5.1347,-5.1536,-5.1521,-5.152,-5.2197,-5.2497,-5.266,-5.3514,-5.4189,-5.4705,-5.5024,-5.5972,-5.708,-5.7426,-5.8011,-5.8607,-5.8781,-5.8704,-5.8357,-5.7492,-5.7291,-5.7049,-5.6184,-5.6503,-5.6772,-5.5876,-5.6252,-5.6579,-5.6069,-5.7242,-5.8357,-5.8531,-5.8569,-5.8338,-5.7638,-5.6656,-5.5972,-5.5972,-5.5775,-5.552,-5.5326,-5.5357,-5.5338,-5.5204,-5.5191,-5.4752,-5.3709,-5.3219,-5.2723,-5.217,-5.1245,-5.0306,-4.9415,-4.9337,-4.916,-4.8909,-4.8909,-4.8909,-4.8909,-4.8909,-4.8909,-4.3819,-4.3606,-4.3925,-4.5271,-4.6953,-4.8613,-4.9902,-5.0195,-5.0312,-5.0742,-5.1855,-5.2754,-5.2754,-5.207,-5.1732,-5.2434,-5.1822,-5.1206,-5.1029,-5.0616,-4.9861,-4.8604,-4.8043,-4.7792,-4.7831,-4.8217,-4.8469,-4.8469,-4.8836,-4.8875,-4.8411,-4.8005,-4.7773,-4.7773,-4.7366,-4.7154,-4.7154,-4.7154,-4.715,-4.7139,-4.7633,-4.7637,-4.7248,-4.8569,-4.9241,-4.9373,-5.0318,-5.0518,-5.026,-5.1023,-5.1115,-5.0828,-5.1238,-5.136,-5.1352,-5.1817,-5.1885,-5.1901,-5.2771,-5.3274,-5.3676,-5.4471,-5.5036,-5.5522,-5.6334,-5.685,-5.7235,-5.7649,-5.7741,-5.7569,-5.7118,-5.6695,-5.6272,-5.5799,-5.6049,-5.6252,-5.5799,-5.6049,-5.6368,-5.6329,-5.7396,-5.8415,-5.8819,-5.8569,-5.7992,-5.7137,-5.6272,-5.5703,-5.5703,-5.5703,-5.564,-5.5516,-5.5497,-5.5497,-5.5485,-5.5376,-5.4988,-5.4277,-5.4181,-5.3595,-5.2417,-5.2207,-5.1574,-5.0429,-4.9736,-4.9302,-4.9144,-4.8976,-4.8909,-4.8909,-4.8909,-4.8909,-4.3056,-4.3195,-4.4109,-4.5652,-4.6832,-4.7986,-4.9413,-4.9316,-4.9101,-4.9824,-5.0508,-5.0976,-5.0976,-5.043,-5.0151,-5.0677,-5.0166,-4.9642,-4.9524,-4.9371,-4.8738,-4.7293,-4.6982,-4.6651,-4.6078,-4.667,-4.7096,-4.7096,-4.7773,-4.8101,-4.7966,-4.727,-4.6883,-4.6883,-4.6174,-4.5807,-4.5807,-4.5807,-4.6203,-4.6987,-4.7003,-4.7056,-4.7141,-4.7856,-4.831,-4.8564,-4.97,-4.9703,-4.9015,-5.0552,-5.0759,-5.0163,-5.0887,-5.1277,-5.1394,-5.1394,-5.133,-5.1339,-5.2056,-5.2329,-5.2566,-5.4018,-5.4077,-5.3864,-5.5243,-5.5702,-5.5883,-5.6609,-5.682,-5.6838,-5.6838,-5.6299,-5.5759,-5.5759,-5.5748,-5.5737,-5.5695,-5.5818,-5.6088,-5.6656,-5.7473,-5.83,-5.8954,-5.8511,-5.778,-5.6907,-5.6145,-5.5703,-5.5703,-5.5703,-5.5703,-5.5703,-5.5497,-5.5449,-5.5673,-5.5504,-5.5193,-5.4731,-5.5049,-5.4395,-5.2423,-5.2626,-5.2389,-5.1576,-5.0226,-4.9503,-4.9399,-4.9127,-4.896,-4.8909,-4.8909,-4.8909,-4.4289,0.0,-4.4682,0.0,-4.6303,-4.7651,0.0,0.0,-4.8925,-4.9042,-4.916,-4.9238,-4.9238,-4.9141,-4.9061,-4.9048,-4.8942,-4.8822,-4.8755,-4.8049,-4.7445,-4.7212,-4.6481,-4.6232,-4.6864,-4.7018,-4.7096,-4.7096,-4.7212,-4.6941,-4.6194,-4.6039,-4.5981,-4.5981,-4.5865,-4.5807,-4.5807,-4.5807,-4.5912,-4.6157,-4.6223,-4.6306,-4.6442,-4.6482,-4.694,-4.7767,-4.9467,-4.9703,-4.8976,-4.9888,-5.0212,-5.0104,-5.0221,-5.0748,-5.1394,-5.1394,-5.139,-5.1386,-5.1501,-5.1947,-5.2503,-5.2732,-5.3174,-5.3631,-5.3864,-5.4453,-5.5061,-5.5177,-5.5694,-5.6211,-5.6211,-5.6134,-5.6056,-5.6056,-5.5951,-5.5845,-5.5726,-5.6291,-5.6637,-5.5992,-5.6579,-5.7214,-5.733,-5.7253,-5.6887,-5.5992,-5.5761,-5.5703,-5.5703,-5.5703,-5.5703,-5.5703,-5.5662,-5.5651,-5.5703,-5.5682,-5.5613,-5.553,-5.428,-5.3722,-5.4145,-5.2145,-5.1288,-5.1844,-5.0692,-4.987,-4.9399,-4.9368,-4.9174,-4.8909,-4.8909,-4.8909,-4.4654,-4.4261,-4.4141,0.0,-4.5787,-4.6905,-4.7471,-4.7904,-4.8179,-4.8179,-4.777,-4.7733,-4.8711,-4.8496,-4.8299,-4.8646,-4.8326,-4.7996,-4.7891,-4.752,-4.7072,-4.6585,-4.6166,-4.6028,-4.6336,-4.6368,-4.6368,-4.6368,-4.6368,-4.6194,-4.5826,-4.5807,-4.5807,-4.5807,-4.5807,-4.5807,-4.5807,-4.5807,-4.5892,-4.6067,-4.6158,-4.6241,-4.6308,-4.6267,-4.6479,-4.6908,-4.8181,-4.8258,-4.755,-4.8873,-4.9137,-4.8738,-4.9208,-4.9891,-5.067,-5.067,-5.0984,-5.1394,-5.1394,-5.1613,-5.1963,-5.245,-5.2822,-5.3183,-5.3689,-5.4372,-5.501,-5.501,-5.5544,-5.6097,-5.6097,-5.6097,-5.6097,-5.6097,-5.605,-5.5975,-5.5845,-5.6047,-5.631,-5.6406,-5.6753,-5.7003,-5.7003,-5.7003,-5.6695,-5.5818,-5.5703,-5.5703,-5.5703,-5.5703,-5.5703,-5.5703,-5.5703,-5.5703,-5.5703,-5.5703,-5.5703,-5.5703,-5.5011,-5.4568,-5.4491,-5.2953,-5.2049,-5.1904,-5.0779,-5.0012,-4.9627,-4.9472,-4.9225,-4.8909,-4.8909,-4.8909,0.0,0.0,-4.4078,-4.4335,-4.5244,-4.624,0.0,0.0,-4.7277,-4.7277,-4.675,-4.6694,-4.8007,-4.7714,-4.7441,-4.7993,-4.7598,-4.7159,-4.7067,-4.7028,-4.6777,-4.609,-4.6017,-4.5953,-4.5821,-4.5807,-4.5807,-4.5807,-4.5807,-4.5807,-4.5807,-4.5613,-4.5587,-4.5787,-4.5628,-4.5609,-4.5807,-4.5822,-4.5936,-4.6102,-4.6212,-4.6288,-4.6308,-4.6308,-4.6308,-4.6347,-4.7225,-4.7105,-4.6417,-4.7933,-4.8198,-4.7664,-4.8252,-4.915,-5.0104,-5.0104,-5.0651,-5.1394,-5.1394,-5.1394,-5.1511,-5.2156,-5.2528,-5.2821,-5.3463,-5.4351,-5.5151,-5.5151,-5.5667,-5.623,-5.623,-5.623,-5.623,-5.623,-5.6189,-5.6104,-5.5938,-5.5798,-5.5876,-5.6541,-5.6676,-5.6676,-5.6676,-5.6676,-5.6445,-5.5799,-5.5703,-5.5703,-5.5703,-5.5703,-5.5703,-5.5703,-5.5703,-5.5703,-5.5703,-5.5703,-5.5703,-5.5703,-5.5511,-5.5126,-5.4511,-5.3664,-5.2799,-5.1923,-5.1075,-5.0381,-4.9891,-4.9627,-4.9349,-4.9027,-4.8943,-4.8909,0.0,-4.4982,0.0,-4.3686,-4.4696,-4.5891,0.0,0.0,-4.6372,-4.6372,-4.6338,-4.6321,-4.6419,-4.6403,-4.6386,-4.6426,-4.6386,-4.6367,-4.6347,-4.6296,-4.6223,-4.6102,-4.6041,-4.5953,-4.5821,-4.5807,-4.5807,-4.5807,-4.5807,-4.5807,-4.5807,-4.5084,-4.5007,-4.5787,-4.5115,-4.5101,-4.5787,-4.5935,-4.6027,-4.6102,-4.6165,-4.6239,-4.6308,-4.6308,-4.6307,-4.6346,-4.7221,-4.7119,-4.6371,-4.7299,-4.7647,-4.7606,-4.7645,-4.866,-5.0104,-5.0104,-5.0651,-5.1394,-5.1394,-5.1394,-5.1414,-5.1453,-5.2038,-5.2704,-5.2743,-5.3951,-5.5296,-5.5296,-5.5918,-5.6577,-5.6577,-5.6577,-5.6577,-5.6577,-5.6436,-5.6227,-5.597,-5.5798,-5.5703,-5.5761,-5.5761,-5.5761,-5.5761,-5.5761,-5.5742,-5.5703,-5.5703,-5.5703,-5.5703,-5.5703,-5.5703,-5.5703,-5.5703,-5.5703,-5.5703,-5.5703,-5.5703,-5.5703,-5.4972,-5.453,-5.4491,-5.3664,-5.2799,-5.1923,-5.1836,-5.1261,-5.0183,-4.9904,-4.9641,-4.9368,-4.9044,-4.8909,0.0,0.0,0.0,-4.4181,-4.4614,-4.528,-4.5565,-4.598,-4.6305,-4.6305,-4.6308,-4.6291,-4.6295,-4.6303,-4.6307,-4.6308,-4.6308,-4.6308,-4.6308,-4.6288,-4.6215,-4.6115,-4.6076,-4.5993,-4.5827,-4.5807,-4.5807,-4.5807,-4.5807,-4.5568,-4.5065,-4.4795,-4.4546,-4.4275,-4.4598,-4.5159,-4.5988,-4.6075,-4.6139,-4.616,-4.6237,-4.6287,-4.6308,-4.6307,-4.6305,-4.6319,-4.6629,-4.6588,-4.6312,-4.6635,-4.6768,-4.6827,-4.7372,-4.8269,-4.9325,-4.9889,-5.0651,-5.1394,-5.1394,-5.1394,-5.1394,-5.1394,-5.237,-5.3522,-5.3522,-5.4752,-5.6138,-5.6138,-5.6352,-5.6606,-5.6606,-5.6606,-5.6606,-5.6606,-5.6387,-5.6141,-5.6044,-5.5921,-5.5789,-5.5716,-5.5703,-5.5703,-5.5703,-5.5703,-5.5703,-5.5703,-5.5703,-5.5703,-5.5703,-5.5703,-5.5703,-5.5703,-5.5703,-5.5703,-5.5703,-5.5703,-5.5703,-5.5703,-5.5434,-5.5261,-5.5261,-5.3933,-5.3049,-5.2741,-5.1683,-5.0821,-5.0195,-4.993,-4.967,-4.9399,-4.9061,-4.8909,-4.4966,-4.4792,-4.4731,0.0,-4.4744,-4.516,-4.5538,-4.5946,-4.6245,-4.6298,-4.63,-4.6302,-4.6308,-4.6299,-4.6304,-4.6305,-4.6307,-4.6308,-4.6308,-4.6308,-4.6265,-4.6145,-4.6115,-4.6048,-4.588,-4.5834,-4.5807,-4.5807,-4.5807,-4.5595,-4.5092,-4.4569,-4.402,-4.3483,-4.4327,-4.5232,-4.6114,-4.6153,-4.6189,-4.6202,-4.6242,-4.6286,-4.6307,-4.6306,-4.6302,-4.6293,-4.629,-4.6309,-4.6308,-4.6303,-4.63,-4.6397,-4.7256,-4.8096,-4.8915,-4.9772,-5.0651,-5.1394,-5.1394,-5.1394,-5.1394,-5.1394,-5.2585,-5.401,-5.401,-5.522,-5.6606,-5.6606,-5.6606,-5.6606,-5.6606,-5.6606,-5.6606,-5.6606,-5.6425,-5.6236,-5.6116,-5.5951,-5.5818,-5.5716,-5.5703,-5.5703,-5.5703,-5.5703,-5.5703,-5.5703,-5.5703,-5.5703,-5.5703,-5.5703,-5.5703,-5.5703,-5.5703,-5.5703,-5.5703,-5.5703,-5.5703,-5.5703,-5.5703,-5.5703,-5.5703,-5.4376,-5.351,-5.3222,-5.1818,-5.0863,-5.0369,-4.9987,-4.9707,-4.9529,-4.9092,-4.8909,0.0,0.0,0.0,-4.4578,-4.509,-4.5609,-4.4907,-4.5436,-4.6138,-4.6271,-4.6298,-4.63,-4.63,-4.6308,-4.6295,-4.6301,-4.6305,-4.6307,-4.6307,-4.6308,-4.6287,-4.6207,-4.6139,-4.6068,-4.6012,-4.5886,-4.5807,-4.5807,-4.5807,-4.5854,-4.5958,-4.4307,-4.3444,-4.3648,-4.4365,-4.5237,-4.6184,-4.6139,-4.6139,-4.6204,-4.6204,-4.6235,-4.6307,-4.6304,-4.6299,-4.6293,-4.6305,-4.63,-4.63,-4.63,-4.63,-4.6397,-4.7295,-4.8115,-4.8915,-4.9811,-5.067,-5.1394,-5.1394,-5.1394,-5.1394,-5.1394,-5.2565,-5.3971,-5.399,-5.5201,-5.6567,-5.6586,-5.6606,-5.6606,-5.6606,-5.6606,-5.6606,-5.6606,-5.6604,-5.6494,-5.6172,-5.5907,-5.5714,-5.5703,-5.5703,-5.5714,-5.5714,-5.5695,-5.5714,-5.5714,-5.5714,-5.5714,-5.5703,-5.5703,-5.5703,-5.5703,-5.5703,-5.5703,-5.5703,-5.5703,-5.5703,-5.5703,-5.5703,-5.5703,-5.5703,-5.4934,-5.4107,-5.326,-5.2365,-5.1529,-5.0731,-5.0106,-4.9817,-4.979,-4.9188,-4.8909,-4.5815,0.0,0.0,0.0,0.0,0.0,-4.5544,-4.5731,-4.5992,-4.6135,-4.6167,-4.6181,-4.6275,-4.6303,-4.6305,-4.6306,-4.6297,-4.6305,-4.6307,-4.6307,-4.6289,-4.6207,-4.6139,-4.6068,-4.6012,-4.5886,-4.5807,-4.5807,-4.5899,-4.5692,-4.5084,-4.3497,-4.3228,-4.4568,-4.4213,-4.472,-4.6267,-4.6244,-4.6244,-4.6267,-4.6267,-4.6286,-4.6303,-4.6302,-4.6296,-4.6303,-4.6302,-4.63,-4.63,-4.63,-4.63,-4.6436,-4.79,-4.8603,-4.8974,-5.0496,-5.1199,-5.1394,-5.1394,-5.1394,-5.1394,-5.1394,-5.2156,-5.3171,-5.3815,-5.4771,-5.5786,-5.6411,-5.6606,-5.6606,-5.6606,-5.6593,-5.6596,-5.6596,-5.6533,-5.6402,-5.6216,-5.6047,-5.5874,-5.5726,-5.5745,-5.5766,-5.5766,-5.5816,-5.5826,-5.5776,-5.5766,-5.5756,-5.5714,-5.5703,-5.5703,-5.5703,-5.5703,-5.5703,-5.5703,-5.5703,-5.5703,-5.5703,-5.5703,-5.5703,-5.5703,-5.4934,-5.4395,-5.4145,-5.2673,-5.1788,-5.1568,-5.0558,-4.9981,-4.979,-4.9188,-4.8909,-4.638,-4.6202,-4.598,-4.6213,0.0,0.0,-4.5415,-4.5345,-4.5308,-4.509,-4.5361,-4.5545,-4.5262,-4.5812,-4.6183,-4.5812,-4.6054,-4.6296,-4.6302,-4.6305,-4.6289,-4.6245,-4.6175,-4.6115,-4.6054,-4.5973,-4.5914,-4.5899,-4.5988,-4.5674,-4.483,-4.3929,-4.3902,-4.4961,-4.4512,-4.4902,-4.6289,-4.6308,-4.6308,-4.6308,-4.6308,-4.6307,-4.6301,-4.6301,-4.6295,-4.63,-4.63,-4.63,-4.63,-4.63,-4.63,-4.6475,-4.8154,-4.8798,-4.9013,-5.077,-5.1394,-5.1394,-5.1394,-5.1394,-5.1394,-5.1394,-5.2234,-5.3346,-5.3854,-5.4869,-5.5942,-5.6469,-5.6606,-5.6606,-5.6591,-5.6596,-5.6602,-5.6606,-5.6532,-5.6433,-5.6242,-5.6142,-5.6017,-5.5817,-5.5816,-5.5836,-5.5836,-5.5866,-5.5885,-5.5846,-5.5836,-5.5826,-5.5745,-5.5745,-5.5735,-5.5714,-5.5703,-5.5703,-5.5703,-5.5703,-5.5703,-5.5703,-5.5703,-5.5703,-5.5703,-5.4934,-5.4337,-5.3953,-5.2596,-5.1731,-5.1395,-5.0588,-4.9993,-4.9627,-4.9141,-4.8909,-4.731,-4.6979,-4.6551,-4.7179,-4.6648,0.0,-4.5129,-4.4849,-4.4564,-4.3985,-4.4523,-4.4889,-4.4133,-4.5265,-4.6046,-4.5265,-4.5792,-4.6303,-4.6291,-4.6301,-4.6306,-4.6307,-4.6244,-4.6189,-4.6118,-4.6105,-4.6072,-4.6027,-4.6068,-4.5808,-4.5093,-4.5016,-4.5039,-4.5137,-4.5058,-4.543,-4.6289,-4.6308,-4.6308,-4.6308,-4.6308,-4.6308,-4.6302,-4.6302,-4.6296,-4.6302,-4.6302,-4.6302,-4.63,-4.63,-4.63,-4.6456,-4.8057,-4.872,-4.8993,-5.0653,-5.1316,-5.1394,-5.1394,-5.1394,-5.1394,-5.1394,-5.2507,-5.3873,-5.3971,-5.5142,-5.6489,-5.6567,-5.6606,-5.661,-5.6598,-5.6603,-5.6606,-5.6593,-5.6594,-5.654,-5.6299,-5.6227,-5.6167,-5.5967,-5.5924,-5.5905,-5.5905,-5.5914,-5.5914,-5.5905,-5.5905,-5.5885,-5.5816,-5.5797,-5.5766,-5.5714,-5.5703,-5.5703,-5.5703,-5.5703,-5.5703,-5.5703,-5.5703,-5.5703,-5.5703,-5.5011,-5.4222,-5.3356,-5.2385,-5.1548,-5.0818,-5.0396,-4.9949,-4.9442,-4.911,-4.8943,-4.8243,-4.8327,-4.8191,-4.8234,-4.7533,0.0,-4.6661,-4.608,-4.5531,-4.5463,-4.5679,-4.5864,-4.5806,-4.6066,-4.6241,-4.6066,-4.6183,-4.6303,-4.6291,-4.6295,-4.6301,-4.6306,-4.6246,-4.6188,-4.6173,-4.6134,-4.6095,-4.608,-4.6142,-4.6149,-4.6034,-4.5371,-4.5312,-4.6016,-4.5371,-4.543,-4.6289,-4.6308,-4.6308,-4.6308,-4.6308,-4.6308,-4.6306,-4.6306,-4.6302,-4.6291,-4.6291,-4.6306,-4.63,-4.63,-4.63,-4.6397,-4.7432,-4.8232,-4.8935,-4.9967,-5.0809,-5.1394,-5.1394,-5.1394,-5.1394,-5.1394,-5.2097,-5.3073,-5.3795,-5.4732,-5.5708,-5.6391,-5.6593,-5.6598,-5.66,-5.6591,-5.6597,-5.6598,-5.6598,-5.6573,-5.6458,-5.6352,-5.625,-5.6161,-5.6054,-5.5981,-5.5981,-5.5969,-5.5987,-5.599,-5.5981,-5.5933,-5.5826,-5.5797,-5.5766,-5.5714,-5.5703,-5.5703,-5.5703,-5.5703,-5.5703,-5.5703,-5.5703,-5.5703,-5.5703,-5.5549,-5.5068,-5.426,-5.2692,-5.1827,-5.1654,-5.0684,-5.0038,-4.9707,-4.9423,-4.916,-4.9179,-4.9076,-4.8836,-4.9211,-4.8593,0.0,0.0,-4.626,-4.5721,-4.4917,-4.5186,-4.5433,-4.5067,-4.5714,-4.6163,-4.5714,-4.6027,-4.6302,-4.6306,-4.6291,-4.6296,-4.6304,-4.6269,-4.6245,-4.6206,-4.6202,-4.6202,-4.6202,-4.6237,-4.6266,-4.6308,-4.5898,-4.5859,-4.6289,-4.5879,-4.5859,-4.6308,-4.6308,-4.6308,-4.6308,-4.6308,-4.6308,-4.6307,-4.6307,-4.6305,-4.6297,-4.6294,-4.6291,-4.6306,-4.6306,-4.6305,-4.6397,-4.7256,-4.8096,-4.8915,-4.9772,-5.0651,-5.1394,-5.1394,-5.1394,-5.1394,-5.14,-5.1986,-5.286,-5.3743,-5.4916,-5.5952,-5.5956,-5.6253,-5.6607,-5.6592,-5.6597,-5.66,-5.6601,-5.6601,-5.6579,-5.6516,-5.6397,-5.6286,-5.6219,-5.6091,-5.5987,-5.5987,-5.5995,-5.6003,-5.5996,-5.5989,-5.5971,-5.5856,-5.5826,-5.5766,-5.5714,-5.5703,-5.5703,-5.5703,-5.5703,-5.5703,-5.5703,-5.5703,-5.5703,-5.5703,-5.5703,-5.5126,-5.3876,-5.2991,-5.2145,-5.1298,-5.1129,-5.0615,-4.9784,-4.9529,-4.9225,-5.0104,-4.9833,-4.9462,-5.0163,-4.9642,-4.858,0.0,0.0,0.0,-4.4855,-4.5077,0.0,0.0,0.0,0.0,-4.5363,-4.5831,-4.63,-4.63,-4.6306,-4.6294,-4.63,-4.6304,-4.6289,-4.6217,-4.6267,-4.6308,-4.6308,-4.6308,-4.6308,-4.6308,-4.6308,-4.6308,-4.6308,-4.6308,-4.6308,-4.6308,-4.6308,-4.6308,-4.6308,-4.6308,-4.6308,-4.6307,-4.6307,-4.6306,-4.6302,-4.6299,-4.6296,-4.6295,-4.6295,-4.6291,-4.6363,-4.7065,-4.7844,-4.8662,-4.9538,-5.0397,-5.118,-5.1338,-5.1398,-5.14,-5.1408,-5.209,-5.3082,-5.379,-5.5217,-5.6429,-5.5556,-5.5929,-5.6595,-5.6599,-5.66,-5.6601,-5.6601,-5.6601,-5.6581,-5.6527,-5.6422,-5.6308,-5.6242,-5.6119,-5.6026,-5.5993,-5.6012,-5.6012,-5.6012,-5.6007,-5.5981,-5.5905,-5.5836,-5.5766,-5.5714,-5.5703,-5.5703,-5.5703,-5.5703,-5.5703,-5.5703,-5.5703,-5.5703,-5.5703,-5.5549,-5.4914,-5.3703,-5.3203,-5.2452,-5.1443,-5.1587,-5.1028,-4.9784,-4.9588,-4.927,-5.1023,-5.118,-5.1121,-5.1238,-5.0558,-4.9808,-4.9593,0.0,-4.8346,-4.8151,0.0,-4.7274,-4.7176,0.0,0.0,-4.6163,-4.6241,-4.63,-4.63,-4.6302,-4.6305,-4.6294,-4.63,-4.6305,-4.6289,-4.6308,-4.6308,-4.6308,-4.6308,-4.6308,-4.6308,-4.6308,-4.6308,-4.6308,-4.6308,-4.6308,-4.6308,-4.6308,-4.6308,-4.6308,-4.6308,-4.6308,-4.6308,-4.6308,-4.6308,-4.6306,-4.6306,-4.6305,-4.6301,-4.6301,-4.6301,-4.6319,-4.6411,-4.699,-4.782,-4.8642,-4.9501,-5.036,-5.1132,-5.1408,-5.1409,-5.1396,-5.251,-5.3877,-5.3974,-5.5225,-5.6416,-5.5557,-5.5932,-5.6599,-5.6599,-5.6601,-5.6601,-5.6601,-5.6601,-5.6601,-5.6582,-5.6528,-5.6444,-5.6312,-5.6222,-5.6146,-5.6018,-5.6012,-5.6012,-5.6012,-5.6007,-5.5981,-5.5905,-5.5836,-5.5766,-5.5714,-5.5703,-5.5703,-5.5703,-5.5703,-5.5703,-5.5703,-5.5703,-5.5703,-5.5703,-5.5011,-5.4876,-5.5415,-5.3203,-5.2722,-5.4049,-5.1895,-5.0473,-4.9803,-4.9776,-4.9446,-5.1297,-5.1394,-5.1394,-5.1394,-5.1108,-5.0681,-5.0174,-4.9764,-4.9374,-4.8867,0.0,0.0,0.0,0.0,0.0,0.0,-4.7042,-4.6885,-4.6378,-4.63,-4.6303,-4.6293,-4.6295,-4.6301,-4.6306,-4.6308,-4.6308,-4.6308,-4.6308,-4.6308,-4.6308,-4.6308,-4.6308,-4.6308,-4.6308,-4.6308,-4.6308,-4.6308,-4.6308,-4.6308,-4.6308,-4.6308,-4.6308,-4.6308,-4.6308,-4.6308,-4.6307,-4.6306,-4.6305,-4.6305,-4.6304,-4.6301,-4.6302,-4.6827,-4.764,-4.7972,-4.8949,-5.014,-5.0515,-5.0985,-5.1395,-5.1397,-5.2572,-5.3902,-5.3394,-5.482,-5.6422,-5.5545,-5.5937,-5.6601,-5.6601,-5.6601,-5.6601,-5.6601,-5.6601,-5.6601,-5.6601,-5.6553,-5.6482,-5.6439,-5.6305,-5.6175,-5.6132,-5.6059,-5.6012,-5.6012,-5.596,-5.5924,-5.5905,-5.5816,-5.5735,-5.5714,-5.5703,-5.5703,-5.5703,-5.5703,-5.5703,-5.5703,-5.5703,-5.5703,-5.5703,-5.5376,-5.5145,-5.5011,-5.4414,-5.3991,-5.3741,-5.3183,-5.2342,-5.1239,-5.0239,-4.9476,-5.0984,-5.1043,-5.1102,-5.1336,-5.1394,-5.1238,-5.0592,-5.0455,-5.028,-4.9638,-4.9325,0.0,0.0,0.0,-4.8545,-4.7723,0.0,-4.7295,-4.6417,-4.63,-4.6303,-4.6309,-4.6291,-4.6297,-4.6305,-4.6308,-4.6191,-4.5957,-4.6152,-4.6191,-4.5957,-4.6172,-4.6308,-4.6308,-4.6308,-4.6308,-4.6308,-4.6308,-4.6308,-4.6308,-4.6308,-4.6308,-4.6308,-4.6308,-4.6308,-4.6308,-4.6308,-4.6307,-4.6307,-4.6307,-4.6307,-4.6305,-4.6307,-4.6834,-4.7593,-4.759,-4.8527,-4.9817,-5.0032,-5.0698,-5.1402,-5.1402,-5.2419,-5.3534,-5.289,-5.4355,-5.6112,-5.5488,-5.5937,-5.6601,-5.6601,-5.6601,-5.6601,-5.6601,-5.6601,-5.6601,-5.6601,-5.6558,-5.6518,-5.6453,-5.6338,-5.6206,-5.6148,-5.6056,-5.6012,-5.6012,-5.5942,-5.5895,-5.5895,-5.5776,-5.5703,-5.5703,-5.5703,-5.5703,-5.5703,-5.5703,-5.5703,-5.5703,-5.5703,-5.5703,-5.5703,-5.5703,-5.5434,-5.4838,-5.5184,-5.4876,-5.3895,-5.3966,-5.3541,-5.2622,-5.0935,-4.9815,-4.9909,-5.0143,-5.0338,-5.1199,-5.1394,-5.1394,-5.1355,-5.1355,-5.1355,-5.1316,-5.0651,-5.0065,-5.0065,-4.9364,-4.8545,-4.7723,-4.7606,0.0,0.0,-4.63,-4.63,-4.6302,-4.6308,-4.6295,-4.6301,-4.6305,-4.5955,-4.5115,-4.582,-4.5937,-4.5098,-4.584,-4.6308,-4.6308,-4.6308,-4.6308,-4.6308,-4.6308,-4.6308,-4.6308,-4.6308,-4.6308,-4.6308,-4.6308,-4.6308,-4.6308,-4.6308,-4.6308,-4.6308,-4.6308,-4.6308,-4.6308,-4.6308,-4.6836,-4.7597,-4.7593,-4.8175,-4.9055,-4.9899,-5.0722,-5.1406,-5.1406,-5.2012,-5.2734,-5.2715,-5.3945,-5.5332,-5.5312,-5.5937,-5.6601,-5.6601,-5.6601,-5.6601,-5.6601,-5.6601,-5.6601,-5.6601,-5.6601,-5.6537,-5.6347,-5.6288,-5.6222,-5.604,-5.5993,-5.6012,-5.6012,-5.5942,-5.5895,-5.5895,-5.5776,-5.5703,-5.5703,-5.5703,-5.5703,-5.5703,-5.5703,-5.5703,-5.5703,-5.5703,-5.5703,-5.5703,-5.5703,-5.5684,-5.5665,-5.4914,-5.4895,-5.5626,-5.3702,-5.3028,-5.3513,-5.184,-5.0696,-4.9169,-4.9655,-5.0163,-5.0475,-5.0965,-5.1394,-5.1394,-5.1394,-5.155,-5.2136,-5.157,-5.1141,-5.1707,-5.1102,-5.0048,-4.8623,-4.8388,-4.79,0.0,-4.63,-4.63,-4.63,-4.6308,-4.6294,-4.6296,-4.5777,-4.5311,-4.5018,-4.4746,-4.4707,-4.498,-4.5273,-4.5703,-4.6289,-4.6308,-4.6308,-4.6308,-4.6308,-4.6308,-4.6308,-4.6308,-4.6308,-4.6308,-4.6308,-4.6308,-4.6308,-4.6308,-4.6308,-4.6308,-4.6308,-4.6308,-4.6367,-4.6933,-4.6992,-4.6738,-4.6738,-4.8026,-4.9882,-5.0703,-5.1172,-5.1406,-5.1406,-5.1992,-5.2695,-5.2695,-5.3926,-5.5293,-5.5293,-5.5937,-5.6601,-5.6601,-5.6601,-5.6601,-5.6601,-5.6601,-5.6601,-5.6601,-5.6601,-5.658,-5.6458,-5.6367,-5.6266,-5.6154,-5.6062,-5.5998,-5.5998,-5.5943,-5.5885,-5.5836,-5.5756,-5.5703,-5.5703,-5.5703,-5.5703,-5.5703,-5.5703,-5.5703,-5.5703,-5.5703,-5.5703,-5.5703,-5.5703,-5.5703,-5.5703,-5.5434,-5.5434,-5.5703,-5.4851,-5.4419,-5.4371,-5.3043,-5.1584,-4.872,-4.9442,-5.0163,-5.0475,-5.0984,-5.1394,-5.1394,-5.1394,-5.155,-5.2117,-5.1785,-5.1472,-5.1726,-5.157,-5.0731,-4.8701,-4.8603,-4.8213,0.0,-4.63,-4.63,-4.63,-4.6305,-4.6309,-4.6293,-4.5792,-4.5328,-4.5018,-4.4765,-4.4726,-4.498,-4.5293,-4.5723,-4.6289,-4.6308,-4.6308,-4.6308,-4.6308,-4.6308,-4.6308,-4.6308,-4.6308,-4.6308,-4.6308,-4.6308,-4.6308,-4.6308,-4.6308,-4.6308,-4.6308,-4.6308,-4.6367,-4.6914,-4.7168,-4.7226,-4.7226,-4.8496,-5.0312,-5.1113,-5.1406,-5.1406,-5.1406,-5.1777,-5.2344,-5.2969,-5.3945,-5.4961,-5.5586,-5.6172,-5.6601,-5.6601,-5.6601,-5.6601,-5.6601,-5.6601,-5.6601,-5.6601,-5.6581,-5.6532,-5.6453,-5.634,-5.6239,-5.6141,-5.6065,-5.5999,-5.5999,-5.5914,-5.5846,-5.5816,-5.5745,-5.5703,-5.5703,-5.5703,-5.5703,-5.5703,-5.5703,-5.5703,-5.5703,-5.5703,-5.5703,-5.5703,-5.5992,-5.6299,-5.6626,-5.6626,-5.6563,-5.6445,-5.5842,-5.5237,-5.4604,-5.3737,-5.2488]},{"header":{"parameterUnit":"m.s-1","parameterCategory":1,"la1":30.6,"la2":29.2853,"lo1":-89.7004,"lo2":-87.6739,"dy":0.0162,"dx":0.0183,"nx":112,"ny":82,"refTime":"2024-02-10T06:00:00:Z","depth":0,"parameterNumber":3,"parameterNumberName":"V-component_of_WINDS"},"data":[0.0,0.0,0.0,0.0,0.0,0.0,0.0,0.0,0.0,0.0,0.0,0.0,0.0,0.0,0.0,0.0,0.0,0.0,0.0,0.0,0.0,0.0,0.0,0.0,0.0,0.0,0.0,0.0,0.0,0.0,0.0,0.0,0.0,0.0,0.0,0.0,0.0,0.0,0.0,0.0,0.0,0.0,0.0,0.0,0.0,0.0,0.0,0.0,0.0,0.0,0.0,0.0,0.0,0.0,0.0,0.0,0.0,0.0,0.0,0.0,0.0,0.0,0.0,0.0,0.0,0.0,0.0,0.0,0.0,0.0,0.0,0.0,0.0,0.0,0.0,0.0,0.0,0.0,0.0,0.0,0.0,0.0,0.0,0.0,0.0,0.0,0.0,0.0,0.0,0.0,1.1456,1.1282,1.2055,1.2545,1.2414,1.2193,1.1873,1.1494,0.0,0.0,0.0,0.0,0.0,0.0,0.0,0.0,0.0,0.0,0.0,0.0,0.0,0.0,0.0,0.0,0.0,0.0,0.0,0.0,0.0,0.0,0.0,0.0,0.0,0.0,0.0,0.0,0.0,0.0,0.0,0.0,0.0,0.0,0.0,0.0,0.0,0.0,0.0,0.0,0.0,0.0,0.0,0.0,0.0,0.0,0.0,0.0,0.0,0.0,0.0,0.0,0.0,0.0,0.0,0.0,0.0,0.0,0.0,0.0,0.0,0.0,0.0,0.0,0.0,0.0,0.0,0.0,0.0,0.0,0.0,0.0,0.0,0.0,0.0,0.0,0.0,0.0,0.0,0.0,0.0,0.0,0.0,0.0,0.0,0.0,0.0,0.0,0.0,0.0,0.0,0.0,0.0,0.0,0.0,0.0,0.0,0.0,0.0,0.0,0.0,0.0,0.0,0.0,1.1723,1.2324,1.2942,1.3384,1.3457,1.3043,1.2593,1.2254,0.0,0.0,0.0,0.0,0.0,0.0,0.0,0.0,0.0,0.0,0.0,0.0,0.0,0.0,0.0,0.0,0.0,0.0,0.0,0.0,0.0,0.0,0.0,0.0,0.0,0.0,0.0,0.0,0.0,0.0,0.0,0.0,0.0,0.0,0.0,0.0,0.0,0.0,0.0,0.0,0.0,0.0,0.0,0.0,0.0,0.0,0.0,0.0,0.0,0.0,0.0,0.0,0.0,0.0,0.0,0.0,0.0,0.0,0.0,0.0,0.0,0.0,0.0,0.0,0.0,0.0,0.0,0.0,0.0,0.0,0.0,0.0,0.0,0.0,0.0,0.0,0.0,0.0,0.0,0.0,0.0,0.0,0.0,0.0,0.0,0.0,0.0,0.0,0.0,0.0,0.0,0.0,0.0,0.0,0.0,0.0,0.0,0.0,0.0,0.0,0.0,0.0,0.0,1.1956,1.2497,1.3427,1.4182,1.4491,1.422,1.3792,1.3333,1.2856,1.0773,0.0,0.0,0.0,0.0,0.0,0.0,0.0,0.0,0.0,0.0,0.0,0.0,0.0,0.0,0.0,0.0,0.0,0.0,0.0,0.0,0.0,0.0,0.0,0.0,0.0,0.0,0.0,0.0,0.0,0.0,0.0,0.0,0.0,0.0,0.0,0.0,0.0,0.0,0.0,0.0,0.0,0.0,0.0,0.0,0.0,0.0,0.0,0.0,0.0,0.0,0.0,0.0,0.0,0.0,0.0,0.0,0.0,0.0,0.0,0.0,0.0,0.0,0.0,0.0,0.0,0.0,0.0,0.0,0.0,0.0,0.0,0.0,0.0,0.0,0.0,0.0,0.0,0.0,0.0,0.0,0.0,0.0,0.0,0.0,0.0,0.0,0.0,0.0,0.0,0.0,0.0,0.0,0.0,0.0,0.0,0.0,0.0,0.0,0.0,0.0,0.0,0.0,1.2802,1.3203,1.4279,1.5067,1.5294,1.4742,1.4209,1.3687,1.324,1.0822,0.0,0.0,0.0,0.0,0.0,0.0,0.0,0.0,0.0,0.0,0.0,0.0,0.0,0.0,0.0,0.0,0.0,0.0,0.0,0.0,0.0,0.0,0.0,0.0,0.0,0.0,0.0,0.0,0.0,0.0,0.0,0.0,0.0,0.0,0.0,0.0,0.0,0.0,0.0,0.0,0.0,0.0,0.0,0.0,0.0,0.0,0.0,0.0,0.0,0.0,0.0,0.0,0.0,0.0,0.0,0.0,0.0,0.0,0.0,0.0,0.0,0.0,0.0,0.0,0.0,0.0,0.0,0.0,0.0,0.0,0.0,0.0,0.0,0.0,0.0,0.0,0.0,0.0,0.0,0.0,0.0,0.0,0.0,0.0,0.0,0.0,0.0,0.0,0.0,0.0,0.0,0.0,0.0,0.0,0.0,0.0,0.0,0.0,0.0,0.0,0.0,0.0,1.2629,1.3473,1.4576,1.5178,1.5354,1.4994,1.3919,1.3253,1.3213,1.0485,0.0,0.0,0.0,0.0,0.0,0.0,0.0,0.0,0.0,0.0,0.0,0.0,0.0,0.0,0.0,0.0,0.0,0.0,0.0,0.0,0.0,0.0,0.0,0.0,0.0,0.0,0.0,0.0,0.0,0.0,0.0,0.0,0.0,0.0,0.0,0.0,0.0,0.0,0.0,0.0,0.0,0.0,0.0,0.0,0.0,0.0,0.0,0.0,0.0,0.0,0.0,0.0,0.0,0.0,0.0,0.0,0.0,0.0,0.0,0.0,0.0,0.0,0.0,0.0,0.0,0.0,0.0,0.0,0.0,0.0,0.0,0.0,0.0,0.0,0.0,0.0,0.0,0.0,0.0,0.0,0.0,0.0,0.0,0.0,0.0,0.0,0.0,0.0,0.0,0.0,0.0,0.0,0.0,0.0,0.0,0.0,0.0,0.0,0.0,0.0,0.0,0.0,1.2494,1.3455,1.4341,1.4897,1.506,1.4774,1.3816,1.3126,1.2971,0.0,0.0,0.0,0.0,0.0,0.0,0.0,0.0,0.0,0.0,0.0,0.0,0.0,0.0,0.0,0.0,0.0,0.0,0.0,0.0,0.0,0.0,0.0,0.0,0.0,0.0,0.0,0.0,0.0,0.0,0.0,0.0,0.0,0.0,0.0,0.0,0.0,0.0,0.0,0.0,0.0,0.0,0.0,0.0,0.0,0.0,0.0,0.0,0.0,0.0,0.0,0.0,0.0,0.0,0.0,0.0,0.0,0.0,0.0,0.0,0.0,0.0,0.0,0.0,0.0,0.0,0.0,0.0,0.0,0.0,0.0,0.0,0.0,0.0,0.0,0.0,0.0,0.0,0.0,0.0,0.0,0.0,0.0,0.0,0.0,0.0,0.0,0.0,0.0,0.0,0.0,0.0,0.0,0.0,0.0,0.0,0.0,0.0,0.0,0.0,0.0,0.0,1.1508,1.2556,1.3548,1.4423,1.4882,1.4956,1.4582,1.3486,1.2772,1.279,0.0,0.0,0.0,0.0,0.0,0.0,0.0,0.0,0.0,0.0,0.0,0.0,0.0,0.0,0.0,0.0,0.0,0.0,0.0,0.0,0.0,0.0,0.0,0.0,0.0,0.0,0.0,0.0,0.0,0.0,0.0,0.0,0.0,0.0,0.0,0.0,0.0,0.0,0.0,0.0,0.0,0.0,0.0,0.0,0.0,0.0,0.0,0.0,0.0,0.0,0.0,0.0,0.0,0.0,0.0,0.0,0.0,0.0,0.0,0.0,0.0,0.0,0.0,0.0,0.0,0.0,0.0,0.0,0.0,0.0,0.0,0.0,0.0,0.0,0.0,0.0,0.0,0.0,0.0,0.0,0.0,0.0,0.0,0.0,0.0,0.0,0.0,0.0,0.0,0.0,0.0,0.0,0.0,0.0,0.0,0.0,0.0,0.0,0.0,0.0,0.0,0.0,1.1738,1.2842,1.3889,1.4864,1.5239,1.515,1.4563,1.2893,1.2161,0.0,0.0,0.0,0.0,0.0,0.0,0.0,0.0,0.0,0.0,0.0,0.0,0.0,0.0,0.0,0.0,0.0,0.0,0.0,0.0,0.0,0.0,0.0,0.0,0.0,0.0,0.0,0.0,0.0,0.0,0.0,0.0,0.0,0.0,0.0,0.0,0.0,0.0,0.0,0.0,0.0,0.0,0.0,0.0,0.0,0.0,0.0,0.0,0.0,0.0,0.0,0.0,0.0,0.0,0.0,0.0,0.0,0.0,0.0,0.0,0.0,0.0,0.0,0.0,0.0,0.0,0.0,0.0,0.0,0.0,0.0,0.0,0.0,0.0,0.0,0.0,0.0,0.0,0.0,0.0,0.0,0.0,0.0,0.0,0.0,0.0,0.0,0.0,0.0,0.0,0.0,0.0,0.0,0.0,0.0,0.0,0.0,0.0,0.0,0.0,0.0,0.0,0.0,1.121,1.2242,1.3201,1.4052,1.451,1.4629,1.4249,1.2772,1.2161,1.275,0.0,0.0,0.0,0.0,0.0,0.0,0.0,0.0,0.0,0.0,0.0,0.0,0.0,0.0,0.0,0.0,0.0,0.0,0.0,0.0,0.0,0.0,0.0,0.0,0.0,0.0,0.0,0.0,0.0,0.0,0.0,0.0,0.0,0.0,0.0,0.0,0.0,0.0,0.0,0.0,0.0,0.0,0.0,0.0,0.0,0.0,0.0,0.0,0.0,0.0,0.0,0.0,0.0,0.0,0.0,0.0,0.0,0.0,0.0,0.0,0.0,0.0,0.0,0.0,0.0,0.0,0.0,0.0,0.0,0.0,0.0,0.0,0.0,0.0,0.0,0.0,0.0,0.0,0.0,0.0,0.0,0.0,0.0,0.0,0.0,0.0,0.0,0.0,0.0,0.0,0.0,0.0,0.0,0.0,0.0,0.0,0.0,0.0,0.0,0.0,0.0,0.0,1.1126,1.2041,1.2952,1.3852,1.4199,1.4356,1.4386,1.2624,1.1892,1.2658,0.0,0.0,0.0,0.0,0.0,0.0,0.0,0.0,0.0,0.0,0.0,0.0,0.0,0.0,0.0,0.0,0.0,0.0,0.0,0.0,0.0,0.0,0.0,0.0,0.0,0.0,0.0,0.0,0.0,0.0,0.0,0.0,0.0,0.0,0.0,0.0,0.0,0.0,0.0,0.0,0.0,0.0,0.0,0.0,0.0,0.0,0.0,0.0,0.0,0.0,0.0,0.0,0.0,0.0,0.0,0.0,0.0,0.0,0.0,0.0,0.0,0.0,0.0,0.0,0.0,0.0,0.0,0.0,0.0,0.0,0.0,0.0,0.0,0.0,0.0,0.0,0.0,0.0,0.0,0.0,0.0,0.0,0.0,0.0,0.0,0.0,0.0,0.0,0.0,0.0,0.0,0.0,0.0,0.0,0.0,0.0,0.0,0.0,0.0,0.0,0.0,0.0,1.1347,1.2093,1.2922,1.403,1.413,1.4331,1.4702,1.2592,1.1635,1.2617,0.0,0.0,0.0,0.0,0.0,0.0,0.0,0.0,0.0,0.0,0.0,0.0,0.0,0.0,0.0,0.0,0.0,0.0,0.0,0.0,0.0,0.0,0.0,0.0,0.0,0.0,0.0,0.0,0.0,0.0,0.0,0.0,0.0,0.0,0.0,0.0,0.0,0.0,0.0,0.0,0.0,0.0,0.0,0.0,0.0,0.0,0.0,0.0,0.0,0.0,0.0,0.0,0.0,0.0,0.0,0.0,0.0,0.0,0.0,0.0,0.9343,0.8979,0.0,0.0,0.0,0.0,0.0,0.0,0.0,0.0,0.0,0.0,0.0,0.0,0.0,0.0,0.0,0.0,0.0,0.0,0.0,0.0,0.0,0.0,0.0,0.0,0.0,0.0,0.0,0.0,0.0,0.0,0.0,0.0,0.0,0.0,0.0,0.0,0.0,0.0,0.0,0.0,1.1324,1.1771,1.2382,1.3457,1.4234,1.4574,1.4427,1.3577,1.3099,1.322,1.1613,0.0,0.0,0.0,0.0,0.0,0.0,0.0,0.0,0.0,0.0,0.0,0.0,0.0,0.0,0.0,0.0,0.0,0.0,0.0,0.0,0.0,0.0,0.0,0.0,0.0,0.0,0.0,0.0,0.0,0.0,0.0,0.0,0.0,0.0,0.0,0.0,0.0,0.0,0.0,0.0,0.0,0.0,0.0,0.0,0.0,0.0,0.0,0.0,0.0,0.0,0.0,0.0,0.0,0.0,0.0,0.0,0.0,0.0,0.0,1.0582,0.995,0.0,0.0,0.0,0.0,0.0,0.0,0.0,0.0,0.0,0.0,0.0,0.0,0.0,0.0,0.0,0.0,0.0,0.0,0.0,0.0,0.0,0.0,0.0,0.0,0.0,0.0,0.0,0.0,0.0,0.0,0.0,0.0,0.0,0.0,0.0,0.0,0.0,0.0,0.0,0.0,1.1536,1.1746,1.2324,1.3741,1.396,1.4259,1.4853,1.365,1.2953,1.3245,1.2019,0.0,0.0,0.0,0.0,0.0,0.0,0.0,0.0,0.0,0.0,0.0,0.0,0.0,0.0,0.0,0.0,0.0,0.0,0.0,0.0,0.0,0.0,0.0,0.0,0.0,0.0,0.0,0.0,0.0,0.0,0.0,0.0,0.0,0.0,0.0,0.0,0.0,0.0,0.0,0.0,0.0,0.0,0.0,0.0,0.0,0.0,0.0,0.0,0.0,0.0,0.0,0.0,0.0,1.3825,1.3925,1.3312,1.4138,1.4041,1.3187,1.1925,1.1084,1.0573,1.0796,0.0,0.0,0.0,0.0,0.0,0.0,0.0,0.0,0.0,0.0,0.0,0.0,0.0,0.0,0.0,0.0,0.0,0.0,0.0,0.0,0.0,0.0,1.2868,1.365,1.3923,1.3094,0.9659,0.0,0.0,0.0,0.0,0.0,0.0,0.0,0.0,0.0,0.0,0.0,1.1683,1.2084,1.2808,1.417,1.3961,1.4228,1.5495,1.3779,1.2822,1.3209,1.2472,1.174,0.0,0.0,0.0,0.0,0.0,0.0,0.0,0.0,0.0,0.0,0.0,0.0,0.0,0.0,0.0,0.0,0.0,0.0,0.0,0.0,0.0,0.0,0.0,0.0,0.0,0.0,0.0,0.0,0.0,0.0,0.0,0.0,0.8213,0.7973,0.0,0.0,0.0,0.0,0.0,0.0,0.0,0.0,0.0,0.0,0.0,0.0,0.0,1.2448,1.2899,1.4105,1.4707,1.4749,1.5357,1.5357,1.4809,1.5182,1.5164,1.4791,1.4619,0.0,1.2342,1.2157,0.0,0.0,0.0,0.0,0.0,0.0,0.0,0.0,0.0,0.0,0.0,0.0,0.0,0.0,0.0,0.0,0.0,0.0,0.0,0.0,0.0,0.0,1.3501,1.3952,1.4291,1.4205,1.3168,1.2814,1.2399,1.1352,1.0817,1.0421,0.0,0.0,0.0,0.0,0.0,0.0,1.1533,1.2966,1.4051,1.4031,1.5101,1.5743,1.562,1.5361,1.48,1.3841,1.2919,1.2295,1.1945,1.132,0.0,0.0,0.0,0.0,0.0,0.0,0.0,0.0,0.0,0.0,0.0,0.0,0.0,0.0,0.0,0.0,0.0,0.0,0.0,0.0,0.0,0.0,0.0,0.0,0.0,0.0,0.0,0.0,0.0,0.919,0.8172,0.7532,0.7871,0.8099,0.0,0.0,0.0,0.0,0.0,0.0,0.0,0.0,0.0,1.2138,1.3489,1.4306,1.4526,1.5201,1.5626,1.5789,1.6006,1.6072,1.6006,1.6121,1.6024,1.5771,1.5777,1.5209,1.4211,1.367,1.2642,1.14,0.0,0.0,0.0,0.0,1.1121,1.1602,1.1772,1.1234,1.0558,1.1271,0.0,0.0,0.0,0.0,0.0,0.0,0.0,1.2418,1.2979,1.3794,1.458,1.4887,1.5554,1.595,1.5239,1.4857,1.4215,1.2693,1.2247,1.2072,1.1817,1.153,0.0,0.0,0.0,1.2297,1.2248,1.331,1.4371,1.515,1.5193,1.533,1.562,1.5056,1.436,1.3598,1.3186,1.2815,1.2449,1.1889,1.1667,0.0,0.0,0.0,0.0,0.0,0.0,0.0,0.0,0.0,0.0,0.0,0.0,0.0,0.0,0.0,0.0,0.0,0.0,0.0,0.0,0.0,0.0,0.0,0.0,0.0,0.0,0.0,0.0,0.8723,0.8069,0.7556,0.8438,0.9125,0.0,0.0,0.0,0.0,0.0,0.0,1.1854,1.2981,1.3707,1.4061,1.5123,1.5765,1.5903,1.6103,1.6302,1.6513,1.6561,1.67,1.6899,1.6899,1.6712,1.6392,1.6404,1.6066,1.5445,1.4781,1.3837,1.2741,1.2382,1.2265,1.2254,1.2199,1.2583,1.3278,1.367,1.2991,1.2081,1.2837,1.1713,1.0216,1.0898,0.0,0.0,0.0,0.0,1.2692,1.3528,1.4372,1.514,1.5503,1.6387,1.7019,1.6366,1.615,1.5553,1.3711,1.33,1.3133,1.2845,1.2396,0.0,1.1541,1.2116,1.2655,1.2776,1.3657,1.4681,1.5832,1.5319,1.506,1.551,1.4705,1.3995,1.3488,1.3351,1.3185,1.2863,1.2466,1.2198,1.2105,0.0,0.0,0.0,0.0,0.0,0.0,0.0,0.0,0.0,0.0,0.0,0.0,0.0,0.0,0.0,0.0,0.0,0.0,0.0,0.0,0.0,0.0,0.0,0.0,0.0,0.0,0.0,0.0,0.0,0.8399,0.8996,0.0,0.0,0.0,0.0,1.1905,1.2692,1.343,1.3999,1.4877,1.5615,1.6127,1.6223,1.6489,1.7008,1.7026,1.7038,1.7056,1.7304,1.743,1.7443,1.7443,1.7165,1.6676,1.6682,1.6235,1.5475,1.5185,1.4852,1.4508,1.3974,1.377,1.374,1.3495,1.345,1.3501,1.3525,1.3474,1.3447,1.3757,1.3764,1.3727,1.4198,1.3885,0.0,0.0,1.3053,1.3217,1.3917,1.4178,1.4469,1.5406,1.6235,1.6724,1.635,1.6784,1.6662,1.4729,1.3605,1.2926,1.2593,0.0,1.2519,1.1306,1.2862,1.379,1.2643,1.4218,1.538,1.5266,1.5801,1.5911,1.5203,1.508,1.4705,1.391,1.3506,1.3286,1.3259,1.2866,1.2681,1.2642,1.2647,0.0,0.0,0.0,0.0,0.0,0.0,0.0,0.0,0.0,0.0,0.0,0.0,0.0,0.0,0.0,0.0,0.0,0.0,0.0,0.0,0.0,0.0,0.0,0.0,0.0,0.0,0.0,0.0,1.1038,1.2214,0.0,1.3635,1.3968,1.4259,1.4529,1.4837,1.5153,1.5518,1.6168,1.6688,1.7044,1.7219,1.7485,1.7859,1.7684,1.7593,1.7593,1.7521,1.7394,1.7231,1.7231,1.6948,1.6447,1.6435,1.6169,1.5741,1.565,1.536,1.4932,1.457,1.4425,1.4395,1.4117,1.4014,1.4014,1.4014,1.3912,1.3725,1.3483,1.3405,1.3432,1.3602,1.3309,1.3049,1.3302,1.3127,1.2977,1.3545,1.3983,1.4254,1.4585,1.5262,1.5742,1.5347,1.5451,1.5403,1.4741,1.4659,1.461,1.4306,1.361,1.286,1.2116,1.2734,1.3083,1.2572,1.3678,1.4545,1.4547,1.4546,1.437,1.3865,1.3588,1.3205,1.2651,1.2642,1.2779,1.3033,1.2833,1.2771,1.2957,1.2697,1.2551,0.0,0.0,0.0,0.0,0.0,0.0,0.0,0.0,0.0,0.0,0.0,0.0,0.0,0.0,0.0,0.0,0.0,0.0,0.0,0.0,0.0,0.0,0.0,0.0,0.0,1.0487,1.1423,1.3536,1.4663,1.5503,1.6024,1.6161,1.6351,1.6638,1.6631,1.669,1.6984,1.7307,1.7533,1.7612,1.7781,1.7962,1.8149,1.7877,1.7744,1.7738,1.7563,1.7394,1.7219,1.7129,1.6857,1.6435,1.6326,1.6133,1.5891,1.5891,1.5686,1.5348,1.5083,1.498,1.4938,1.457,1.4437,1.4425,1.4328,1.4183,1.4025,1.3902,1.3701,1.3565,1.3791,1.3566,1.3314,1.3676,1.3453,1.3194,1.3556,1.3733,1.3805,1.3767,1.4249,1.468,1.4404,1.4524,1.4692,1.4692,1.4962,1.5079,1.4752,1.3955,1.315,1.2528,1.2594,1.2739,1.2768,1.3222,1.3666,1.3958,1.3642,1.3291,1.2933,1.2758,1.2457,1.1998,1.2183,1.2521,1.2954,1.2959,1.3172,1.3561,1.3124,1.3135,1.3615,0.0,0.0,0.0,0.0,0.0,0.0,0.0,0.0,0.0,0.0,0.0,0.0,0.0,0.0,0.0,0.0,0.0,0.0,0.0,0.0,0.0,0.0,0.0,1.0213,1.1079,1.271,1.5642,1.6051,1.6482,1.7572,1.7623,1.7697,1.7997,1.7947,1.8088,1.8388,1.8344,1.8179,1.7907,1.7889,1.7889,1.7901,1.763,1.7497,1.7497,1.7485,1.7479,1.7461,1.7207,1.6948,1.667,1.641,1.6139,1.5891,1.5897,1.5897,1.5861,1.5602,1.5505,1.5445,1.4914,1.4708,1.4666,1.4389,1.4298,1.4442,1.5153,1.4867,1.4436,1.5153,1.4867,1.4298,1.4298,1.4111,1.3906,1.3894,1.3513,1.3121,1.3071,1.3386,1.3652,1.3652,1.4195,1.465,1.465,1.4365,1.4067,1.3754,1.3699,1.336,1.2447,1.251,0.0,1.3182,1.2911,1.2897,1.348,1.3274,1.2917,1.253,1.2767,1.2696,1.2105,1.2254,1.2597,1.3093,1.3369,1.3838,1.4504,1.4015,1.4037,1.4591,0.0,0.0,0.0,0.0,0.0,0.0,0.0,0.0,0.0,0.0,0.0,0.0,0.0,0.0,0.0,0.0,0.0,0.0,0.0,0.0,0.0,0.9337,1.0856,1.1857,1.3383,1.5285,1.779,1.8217,1.8528,1.9041,1.8814,1.8631,1.8501,1.8673,1.8646,1.8325,1.8494,1.8541,1.8463,1.8275,1.8269,1.8463,1.7998,1.7768,1.7762,1.7575,1.7382,1.7195,1.7123,1.6839,1.6404,1.6531,1.632,1.5903,1.6097,1.606,1.5861,1.5602,1.5614,1.5692,1.498,1.4588,1.4401,1.4322,1.4298,1.4346,1.4532,1.449,1.4346,1.4532,1.4436,1.4298,1.4298,1.4111,1.3863,1.367,1.3375,1.3029,1.2868,1.2887,1.296,1.296,1.313,1.3258,1.3258,1.3195,1.33,1.3952,1.3696,1.3154,1.2466,1.2171,1.2024,1.1921,1.2087,1.2247,1.2418,1.2478,1.2417,1.2101,1.1913,1.1701,1.134,1.1524,1.2096,1.3078,1.3543,1.4131,1.4906,1.4825,1.4742,0.0,0.0,0.0,0.0,0.0,0.0,0.0,0.0,0.0,0.0,0.0,0.0,0.0,0.0,0.0,0.0,0.0,0.0,0.0,0.0,0.0,0.0,0.9642,1.1226,1.2388,1.4194,1.5895,1.7286,1.8049,1.8593,1.8761,1.8963,1.9022,1.8869,1.9024,1.8891,1.8481,1.871,1.8692,1.836,1.8312,1.8257,1.8179,1.7865,1.7708,1.7708,1.7551,1.7406,1.7249,1.7026,1.6815,1.6616,1.6549,1.6344,1.6066,1.6229,1.6133,1.5873,0.0,0.0,0.0,0.0,1.4636,1.4298,1.4298,1.4298,1.4298,1.4298,1.4298,1.4298,1.4298,1.4298,1.4274,1.4165,1.3948,1.3682,1.3423,1.3151,1.291,1.2741,1.2705,1.2705,1.2705,1.2705,1.2705,1.2705,1.2705,0.0,1.3454,1.3297,1.2902,1.242,1.2151,1.1866,1.1588,1.1718,1.1827,1.1827,1.1903,1.187,1.1697,1.1637,0.0,0.0,0.0,1.2061,1.3017,1.3716,0.0,0.0,0.0,1.5523,1.5162,1.6375,0.0,0.0,1.5145,1.4531,0.0,0.0,0.0,0.0,0.0,0.0,0.0,0.0,0.0,0.0,0.0,0.0,0.0,0.0,0.0,0.0,0.9789,1.1032,1.1996,1.3695,1.498,1.5453,1.6524,1.7243,1.7442,1.8291,1.8944,1.9072,1.9078,1.8976,1.874,1.8794,0.0,0.0,0.0,1.758,1.7109,1.7256,1.7303,1.7303,1.742,1.7485,1.7467,1.7002,1.6899,1.7068,1.661,1.6362,1.6284,1.6332,1.6169,1.5885,1.5855,1.5831,1.5741,1.5246,1.4757,1.434,1.4304,0.0,0.0,1.4298,1.4298,1.4298,1.4298,1.4298,1.4244,1.3978,1.3743,1.3495,1.32,1.294,1.2741,1.2711,1.2705,1.2705,1.2705,1.2705,1.2705,1.2705,1.2705,1.2705,1.2705,1.2681,1.2572,1.2312,1.2168,1.2018,1.1786,1.1656,1.1644,1.1713,1.1631,0.0,1.1577,1.1817,1.1765,1.1176,1.1768,1.2422,1.3082,1.3892,1.4328,1.4226,1.5477,1.5995,1.577,1.725,1.7997,1.7987,1.615,1.5062,0.0,0.0,0.0,0.0,0.0,0.0,0.0,0.0,0.0,0.0,0.0,0.0,0.0,0.0,0.0,0.8601,1.0256,1.1251,1.0555,1.1984,1.3664,1.5252,1.5394,1.5884,1.698,1.7302,1.7893,1.9008,1.9078,1.9054,1.9006,1.788,1.7157,1.7013,1.5674,1.4846,1.4761,1.5547,1.5989,1.5989,1.7003,0.0,1.7479,1.7376,1.7243,1.7098,1.7201,1.6881,1.6302,1.6531,1.6332,1.5867,1.5656,1.5445,1.5221,1.4908,1.4727,1.4606,1.4377,1.4298,1.4298,1.4298,1.4298,1.4298,1.4298,1.4298,0.0,1.3978,1.387,1.3719,1.3248,1.3041,1.2988,1.2759,1.2705,1.2705,1.2705,1.2705,1.2705,1.2705,1.2705,1.2705,1.2705,1.253,1.23,1.2035,1.1775,1.1581,1.1489,1.1583,1.1837,1.227,1.2457,1.2529,1.2529,1.2583,1.2462,1.2071,1.2956,1.3562,1.3711,1.3881,1.4132,1.4371,1.4361,1.4611,1.5104,1.6409,1.7208,1.7532,1.6809,1.6106,0.0,0.0,0.0,0.0,0.0,0.0,0.0,0.0,0.0,0.0,0.0,0.7841,0.7919,0.0,0.8611,0.8984,0.9928,1.0479,1.0067,1.0872,1.1876,1.2906,1.3534,1.4124,1.4833,1.5554,1.6268,1.6926,1.699,1.699,1.699,1.6299,1.5795,1.5679,1.4726,1.4137,1.4024,1.4425,1.4679,1.4679,1.5273,1.593,1.6526,1.64,1.6698,1.7286,1.7286,1.6984,1.6483,1.635,1.597,1.5441,1.5497,1.5342,1.5089,1.4962,1.4739,1.4485,1.4346,1.4298,1.4298,1.4298,1.4298,1.4298,1.4298,1.4298,1.4214,1.3821,1.3713,1.3586,1.3055,1.2916,1.288,1.2735,1.2705,1.2705,1.2705,1.2705,1.2705,1.2705,1.2705,1.2705,1.2705,1.2487,1.227,1.2137,1.2005,1.1823,1.1668,1.194,1.2235,1.2505,1.283,1.3018,1.3018,1.3018,1.2913,1.2766,1.3377,1.3701,1.3554,1.3694,1.3702,1.36,1.4134,1.4503,1.4683,1.6084,1.6834,1.7038,1.6389,1.6055,0.0,0.0,0.0,0.0,0.0,0.0,0.0,0.7811,0.7729,0.7729,0.7963,0.8208,0.8333,0.8621,0.8971,0.9361,0.9551,0.9744,0.995,1.0154,1.0334,1.0602,1.1636,1.2439,1.2763,1.384,1.4581,1.4907,1.4907,1.4907,1.4907,1.4609,1.4378,1.4139,1.3721,1.3336,1.3167,1.3221,1.3306,1.3306,1.3605,1.4381,1.5564,1.5381,1.6098,1.7467,1.7032,1.669,1.6393,1.5861,1.5325,1.4931,1.5205,1.5099,1.4867,1.5023,1.473,1.4297,1.4346,1.4298,1.4154,1.425,1.425,1.4154,1.425,1.4298,1.4201,1.3725,1.3592,1.3465,1.2922,1.2783,1.2771,1.2717,1.2705,1.2705,1.2705,1.2705,1.2705,1.2705,1.2705,1.2705,1.2705,1.253,1.2373,1.2318,1.227,1.2161,1.203,1.2372,1.2611,1.2691,1.3008,1.3233,1.3287,1.3293,1.332,1.338,1.3601,1.356,1.3307,1.348,1.3494,1.3197,1.4172,1.4656,1.4665,1.5863,1.6453,1.6412,1.5718,1.5658,0.7955,0.7867,0.7821,0.7907,0.7899,0.7882,0.0,0.8208,0.8245,0.8245,0.8431,0.8638,0.8659,0.9015,0.9367,0.9554,0.9703,0.9856,0.9963,1.0,1.0137,1.031,1.0568,1.1225,1.2508,1.2849,1.3534,1.4777,1.4907,1.4907,1.4907,1.363,1.2822,1.2801,1.128,1.0498,1.0415,1.1415,1.1929,1.1933,1.3126,1.4381,1.5575,1.5548,1.6262,1.7455,1.6372,1.5704,1.5322,1.4854,1.4603,1.4548,1.4576,1.4342,1.4016,1.4834,1.4704,1.4257,1.4547,1.4168,1.3684,1.4154,1.3968,1.3678,1.4154,1.4298,1.4238,1.3948,1.3863,1.3743,1.3212,1.3079,1.3012,1.2765,1.2705,1.2705,1.2705,1.2705,1.2705,1.2705,1.2705,1.2705,1.2705,1.2681,1.2578,1.2349,1.2113,1.2077,1.2452,1.2571,1.273,1.3094,1.3174,1.3313,1.3533,1.3553,1.3666,1.3975,1.4021,1.3901,1.3567,1.3586,1.3926,1.4641,1.4041,1.4275,1.5284,1.544,1.556,1.5553,1.5436,1.5455,0.7547,0.7678,0.7826,0.754,0.7801,0.8113,0.8292,0.8385,0.8418,0.8509,0.8764,0.8994,0.9086,0.9395,0.9656,0.9724,0.9781,0.9842,0.9845,0.9846,0.9785,0.9761,0.989,1.0329,1.1164,1.1401,1.1689,1.2271,1.2431,1.2491,1.2491,1.1833,1.1489,1.1394,1.0605,1.0141,0.9987,1.0382,1.0604,1.0604,1.1144,1.2281,1.3894,1.3894,1.4798,1.6343,1.5751,1.5363,1.5198,1.4813,1.4375,1.4032,1.4364,1.3889,1.3085,1.4022,1.4009,1.359,1.3746,1.345,1.3152,1.3678,1.3678,1.3588,1.4154,1.4298,1.4244,1.3978,1.3906,1.3821,1.3447,1.3236,1.3089,1.3169,1.2934,1.2789,1.3109,1.2928,1.2753,1.2916,1.2819,1.2705,1.2705,1.2837,1.291,1.2758,1.2554,1.242,1.2628,1.2883,1.322,1.368,1.3721,1.3768,1.3895,1.3901,1.3955,1.4082,1.4088,1.4035,1.3908,1.3901,1.4061,1.4428,1.4061,1.4122,1.4664,1.4664,1.4664,1.4664,1.4664,1.4664,0.7449,0.7601,0.7786,0.7432,0.7801,0.8228,0.8309,0.8442,0.8587,0.8743,0.8944,0.9127,0.9239,0.9466,0.9649,0.9693,0.9734,0.9764,0.9764,0.9639,0.949,0.9337,0.9381,0.9568,0.9934,1.0212,1.0402,1.0487,1.0595,1.0677,1.0717,1.0721,1.0649,1.0497,1.0354,1.0205,0.9987,0.9774,0.964,0.964,0.9822,1.0842,1.2577,1.3241,1.4028,1.4922,1.4924,1.4914,1.4781,1.4489,1.3989,1.3501,1.3891,1.3342,1.2476,1.3176,1.3195,1.3005,1.3156,1.2913,1.2662,1.3152,1.3298,1.3394,1.3919,1.4202,1.4256,1.4063,1.4014,1.3954,1.3688,1.3483,1.3369,1.3483,1.3212,1.3037,1.3429,1.3206,1.2964,1.3097,1.2958,1.2819,1.2819,1.2988,1.3151,1.3224,1.3055,1.2971,1.3015,1.3454,1.386,1.4173,1.4282,1.4262,1.4102,1.4162,1.4175,1.4088,1.4088,1.4088,1.4088,1.4088,1.4208,1.4454,1.4208,1.4215,1.4454,1.4215,1.4088,1.4088,1.4088,1.4088,0.7928,0.7818,0.7678,0.7897,0.7978,0.8073,0.8408,0.8594,0.8747,0.8844,0.8885,0.8892,0.8895,0.9072,0.9279,0.9371,0.952,0.9615,0.9615,0.9486,0.9334,0.9234,0.9039,0.9018,0.9228,0.972,1.0118,1.047,1.0493,1.0565,1.0711,1.0721,1.0649,1.0497,1.0354,1.0205,0.9987,0.9532,0.9335,0.9339,1.0004,1.0963,1.2273,1.451,1.4689,1.3292,1.4045,1.4138,1.3706,1.3293,1.3117,1.3093,1.2899,1.269,1.2387,1.2432,1.2539,1.2689,1.3259,1.2857,1.2127,1.2667,1.2813,1.291,1.3394,1.3871,1.4292,1.4286,1.4286,1.4226,1.396,1.3888,1.3821,1.3574,1.3501,1.3495,1.3513,1.3501,1.3417,1.3131,1.3071,1.3109,1.3109,1.3071,1.3212,1.3465,1.3495,1.3586,1.3818,1.4257,1.455,1.4492,1.4763,1.4754,1.4135,1.4349,1.4389,1.4108,1.4088,1.4088,1.4088,1.4088,1.4496,1.5352,1.4538,1.4538,1.5352,1.4496,1.4088,1.4088,1.4088,1.4088,0.536,0.5269,0.5608,0.6134,0.6452,0.6948,0.7957,0.8285,0.851,0.8723,0.8706,0.8665,0.8767,0.8828,0.894,0.9248,0.9357,0.9527,0.9724,0.9625,0.9405,0.9052,0.9052,0.8966,0.8656,0.9025,0.949,1.0025,1.0039,1.0215,1.0561,1.0568,1.0544,1.0493,1.0256,0.9978,0.9741,0.9506,0.9309,0.9034,0.964,1.0846,1.253,1.3075,1.3439,1.3555,1.3787,1.3801,1.3679,1.3537,1.3315,1.3117,1.3051,1.2753,1.2387,1.2387,1.1988,1.1524,1.2176,1.205,1.1736,1.2124,1.2516,1.291,1.3346,1.3871,1.4298,1.4298,1.4298,1.428,1.4189,1.4039,1.393,1.4014,1.3767,1.361,1.396,1.3894,1.3749,1.3658,1.364,1.3586,1.3417,1.3525,1.367,1.3761,1.3628,1.3649,1.405,1.4224,1.4462,1.4779,1.4948,1.4847,1.4409,1.4462,1.4396,1.4108,1.4088,1.4088,1.4088,1.4088,1.425,1.4538,1.425,1.425,1.4538,1.425,1.4088,1.4088,1.4088,1.4088,0.4109,0.3983,0.4321,0.4804,0.5114,0.5703,0.6968,0.7352,0.7578,0.8111,0.8195,0.8156,0.82,0.8261,0.8428,0.8835,0.8975,0.9123,0.9527,0.9459,0.9283,0.9042,0.9052,0.8989,0.8739,0.8767,0.9036,0.9613,0.9722,1.0011,1.0483,1.0544,1.0548,1.0493,1.0179,0.9866,0.9629,0.9378,0.9206,0.9181,1.0292,1.1237,1.2084,1.2569,1.29,1.3144,1.3144,1.3389,1.3624,1.2884,1.2547,1.2598,1.2463,1.2236,1.1946,1.1946,1.1495,1.0871,1.1263,1.1015,1.0617,1.0811,1.1238,1.1824,1.2603,1.3178,1.3709,1.4148,1.4298,1.4298,1.4298,1.4171,1.4087,1.4256,1.4039,1.3888,1.4226,1.4165,1.4014,1.3924,1.3906,1.3851,1.3682,1.3876,1.4045,1.4045,1.3906,1.3899,1.4207,1.442,1.4629,1.4988,1.5165,1.511,1.471,1.4776,1.4663,1.4269,1.4242,1.4195,1.4088,1.4088,1.4088,1.4088,1.4188,1.4195,1.4088,1.4195,1.4188,1.4088,1.4195,1.4182,0.4036,0.3722,0.3644,0.3861,0.3984,0.4353,0.5512,0.5848,0.6098,0.7045,0.7355,0.7407,0.7274,0.7449,0.775,0.8208,0.8296,0.8565,0.9169,0.9079,0.9042,0.9228,0.9072,0.9043,0.9367,0.8989,0.8913,0.938,0.9597,0.994,1.0418,1.0563,1.058,1.0442,1.01,0.9835,0.964,0.8997,0.9,0.9764,1.1487,1.1896,1.1078,1.2816,1.3093,1.2113,1.2174,1.2719,1.337,1.1387,1.0981,1.1623,1.1425,1.1188,1.1029,1.1021,1.0904,1.0724,1.0548,0.984,0.8998,0.8838,0.9175,0.985,1.1121,1.1853,1.2484,1.3757,1.4148,1.4148,1.4196,1.4202,1.425,1.4298,1.4298,1.4298,1.4298,1.431,1.4244,1.3978,1.3924,1.3924,1.3924,1.4129,1.4298,1.4298,1.4298,1.4303,1.4341,1.4776,1.507,1.502,1.547,1.5598,1.5082,1.5237,1.515,1.4576,1.4543,1.4422,1.4142,1.4115,1.4115,1.4135,1.4389,1.4382,1.4108,1.4402,1.4396,1.4115,1.4409,1.4396,0.1372,0.1151,0.1458,0.2165,0.2383,0.2743,0.4033,0.4823,0.5424,0.5855,0.6377,0.6791,0.686,0.7097,0.7488,0.8082,0.8461,0.9015,0.972,0.9727,0.9677,0.9659,0.9717,0.9587,0.9262,0.9052,0.9014,0.9175,0.9252,0.9399,0.9636,0.9683,0.9802,0.9871,0.9602,0.9334,0.9077,0.8601,0.8855,0.9851,1.0276,1.0642,1.102,1.2274,1.2178,1.1212,1.1877,1.1937,1.1571,1.1703,1.1399,1.0868,1.1393,1.1041,1.0252,1.0177,0.972,0.9064,0.8961,0.8992,0.906,0.8972,0.9222,0.9702,1.0243,1.0779,1.1317,1.1853,1.2004,1.2145,1.2926,1.3119,1.3318,1.41,1.4298,1.4298,1.4298,1.4461,1.4527,1.425,1.4195,1.4195,1.4195,1.425,1.4298,1.4298,1.4298,1.437,1.4547,1.4698,1.4949,1.5347,1.5494,1.549,1.5317,1.5351,1.5244,1.4877,1.485,1.4861,1.4787,1.4529,1.4516,1.478,1.4596,1.4482,1.4409,1.471,1.4696,1.4416,1.471,1.4854,0.0317,0.0109,0.0336,0.0894,0.0989,0.134,0.2552,0.3146,0.3784,0.4749,0.536,0.5858,0.6278,0.6655,0.7102,0.7611,0.8084,0.8726,0.954,0.9771,0.9897,1.0008,1.0097,1.0044,0.9816,0.9459,0.9317,0.9371,0.9139,0.9108,0.9382,0.9511,0.9582,0.9724,0.9377,0.9006,0.8752,0.8944,0.9397,1.0061,1.0368,1.1018,1.1866,1.1833,1.1709,1.1496,1.1118,1.091,1.0789,1.0422,1.0144,0.9992,1.0298,1.0021,0.9412,0.9255,0.8879,0.8333,0.7932,0.7962,0.8078,0.7968,0.8049,0.8319,0.9057,0.9657,1.0145,1.0855,1.1142,1.1486,1.2462,1.2678,1.2974,1.4052,1.4298,1.4298,1.4298,1.4419,1.4485,1.4328,1.4298,1.4298,1.4298,1.4298,1.4298,1.4298,1.4298,1.4346,1.4496,1.464,1.4885,1.5261,1.5452,1.5522,1.5551,1.5585,1.5464,1.517,1.5202,1.5142,1.5015,1.4803,1.4796,1.5008,1.4923,1.4843,1.4716,1.501,1.5003,1.4723,1.5017,1.5017,0.0223,0.0,0.0,0.0,0.0,0.0266,0.1195,0.1384,0.1923,0.3746,0.4366,0.4858,0.571,0.6217,0.6713,0.7177,0.7562,0.817,0.9144,0.95,0.9836,1.0223,1.0277,1.0324,1.038,0.9951,0.9592,0.9643,0.9142,0.8935,0.9261,0.9453,0.9528,0.9528,0.9186,0.8917,0.8587,0.9513,0.9978,0.9975,1.0905,1.1675,1.2355,1.145,1.1352,1.1815,1.0066,0.9697,1.0304,0.8723,0.8476,0.9016,0.887,0.8743,0.8568,0.8404,0.8268,0.8067,0.7398,0.701,0.6809,0.6703,0.6586,0.6684,0.7879,0.8473,0.9001,1.0082,1.0649,1.1134,1.2055,1.2387,1.278,1.3806,1.4202,1.4298,1.4298,1.4298,1.4298,1.4298,1.4298,1.431,1.4346,1.4322,1.431,1.4346,1.4322,1.4298,1.4298,1.4496,1.4736,1.5083,1.5315,1.554,1.5784,1.5784,1.5718,1.5471,1.5451,1.5344,1.5135,1.5089,1.5082,1.5122,1.5291,1.5277,1.5068,1.5311,1.5304,1.5075,1.5317,1.5157,0.0057,0.0,0.0,0.0,0.0,0.0054,0.0257,0.0825,0.1662,0.2882,0.3611,0.437,0.5533,0.5963,0.6472,0.7388,0.7811,0.8456,0.969,0.9879,1.0015,1.0198,1.0251,1.0128,0.9889,0.9465,0.92,0.9183,0.8744,0.8484,0.8549,0.8726,0.879,0.879,0.872,0.8653,0.8587,0.8787,0.8853,0.8917,0.9952,1.0014,0.9255,1.0622,1.0406,0.8851,0.9152,0.897,0.8419,0.8848,0.8711,0.819,0.8841,0.8598,0.7847,0.7617,0.7517,0.7429,0.7237,0.7119,0.695,0.6929,0.6839,0.6791,0.7255,0.7479,0.7623,0.8153,0.8384,0.8671,0.9846,1.0779,1.1707,1.2732,1.3661,1.4298,1.4298,1.4298,1.4298,1.4298,1.4298,1.437,1.4606,1.4455,1.4377,1.4612,1.4443,1.4298,1.4298,1.4346,1.4544,1.5035,1.5131,1.5363,1.5784,1.5784,1.5758,1.5711,1.5752,1.5732,1.5678,1.5451,1.5431,1.5671,1.5491,1.5371,1.5317,1.5611,1.5605,1.5331,1.5618,1.5571,0.0,0.0,0.0,0.0,0.0,0.0,0.0,0.0338,0.0919,0.1891,0.238,0.2918,0.4045,0.4796,0.5473,0.6094,0.6837,0.7757,0.8858,0.9123,0.9371,0.9817,0.9883,0.9861,0.9731,0.9322,0.9117,0.9117,0.8734,0.8505,0.8505,0.8557,0.8587,0.8587,0.8587,0.8587,0.8587,0.8587,0.8853,0.9446,0.938,0.9678,1.0136,0.9854,0.9402,0.8953,0.8691,0.8299,0.7933,0.836,0.8299,0.7919,0.8282,0.8116,0.7671,0.7426,0.728,0.7261,0.7195,0.7174,0.7128,0.7128,0.695,0.6801,0.6957,0.716,0.7346,0.7476,0.7753,0.8302,0.932,1.0133,1.1043,1.2699,1.391,1.4721,1.4721,1.4721,1.4721,1.4721,1.4721,1.4721,1.4714,1.4606,1.4564,1.4696,1.46,1.4515,1.4515,1.4636,1.4863,1.5263,1.5172,1.538,1.6004,1.6059,1.5999,1.5791,1.5972,1.5992,1.5791,1.5698,1.5691,1.5778,1.5691,1.5618,1.5625,1.5758,1.5711,1.5625,1.5718,1.5671,0.0,0.0,0.0,0.0,0.0,0.0,0.0,0.0,0.0274,0.1215,0.1385,0.1686,0.2715,0.3564,0.4241,0.4598,0.5435,0.6446,0.7647,0.8012,0.8474,0.9276,0.9491,0.9528,0.9461,0.9186,0.8984,0.8984,0.872,0.8587,0.8587,0.8565,0.8562,0.8587,0.8587,0.872,0.892,0.872,0.9117,1.0174,0.9117,0.9501,1.0979,0.9101,0.8663,0.9383,0.8335,0.7872,0.7872,0.7872,0.7872,0.7861,0.7771,0.7739,0.7712,0.7494,0.7415,0.7394,0.7244,0.7192,0.7245,0.7218,0.7084,0.6877,0.6877,0.7104,0.7371,0.7348,0.7761,0.8353,0.914,0.9723,1.0603,1.2566,1.3704,1.4429,1.4695,1.4745,1.4796,1.5056,1.5107,1.5059,1.4908,1.4835,1.4823,1.4877,1.4835,1.4781,1.4727,1.4896,1.5144,1.5368,1.5356,1.5538,1.6255,1.6366,1.6266,1.6032,1.6239,1.6233,1.5939,1.5925,1.5844,1.5784,1.5784,1.5784,1.5784,1.5784,1.5784,1.5784,1.5784,1.5671,0.0,0.0,0.0,0.0,0.0,0.0,0.0,0.0,0.027,0.1212,0.1369,0.162,0.2715,0.2901,0.3095,0.3697,0.3888,0.4628,0.6563,0.704,0.7625,0.8713,0.9038,0.905,0.872,0.8653,0.8653,0.8653,0.8587,0.8587,0.8587,0.8489,0.8481,0.8584,0.8587,0.905,1.0044,0.9117,0.9117,1.0174,0.9117,0.8665,0.8688,0.8358,0.8237,0.825,0.7991,0.7872,0.7872,0.7872,0.7872,0.7869,0.7858,0.7856,0.7839,0.7714,0.7668,0.7633,0.7402,0.7317,0.7301,0.7245,0.7196,0.7177,0.7177,0.7185,0.7279,0.7642,0.7777,0.7971,0.8467,0.9362,1.0396,1.1526,1.1836,1.2196,1.334,1.355,1.3862,1.4898,1.5107,1.5179,1.539,1.5228,1.5155,1.539,1.5228,1.4986,1.4745,1.4739,1.4838,1.5097,1.5544,1.5946,1.628,1.6523,1.6653,1.6627,1.6653,1.6533,1.6295,1.6233,1.6106,1.5832,1.5784,1.5784,1.5784,1.5784,1.5784,1.5784,1.5784,1.5671,0.0,0.0,0.0,0.0,0.0,0.0,0.0,0.0,0.0093,0.0466,0.0549,0.0631,0.1078,0.1542,0.1969,0.2287,0.269,0.3396,0.4558,0.4815,0.5122,0.5883,0.6882,0.7432,0.7296,0.8051,0.8587,0.8587,0.8587,0.8587,0.8587,0.8546,0.8541,0.8587,0.8587,0.9117,1.0174,0.9117,0.9117,1.0174,0.9042,0.8497,0.8511,0.8247,0.8138,0.8152,0.7956,0.7872,0.7872,0.7872,0.7872,0.7872,0.7872,0.7872,0.7856,0.7744,0.7701,0.7679,0.7505,0.7339,0.7271,0.7279,0.7214,0.721,0.721,0.721,0.7254,0.7373,0.7688,0.795,0.817,0.9334,1.0564,1.0935,1.2167,1.3287,1.3773,1.4406,1.5042,1.5473,1.5578,1.5559,1.5511,1.5409,1.5378,1.5481,1.5547,1.5541,1.5439,1.5559,1.5587,1.5362,1.5245,1.5324,1.5797,1.6058,1.6156,1.6005,1.6265,1.6308,1.6025,1.6005,1.5952,1.5784,1.5784,1.5784,1.5784,1.5784,1.5784,1.5784,1.5784,1.5718,0.0,0.0,0.0,0.0,0.0,0.0,0.0,0.0,0.0,0.0,0.0,0.0,0.0,0.049,0.0921,0.0965,0.1435,0.2015,0.2812,0.299,0.3254,0.3965,0.5056,0.5773,0.5773,0.7126,0.8117,0.8587,0.8587,0.8587,0.8587,0.8587,0.8587,0.8587,0.8917,0.9446,1.0174,0.9446,0.9446,1.0174,0.8996,0.8459,0.8527,0.8265,0.81,0.8168,0.7962,0.7872,0.7872,0.7872,0.7872,0.7872,0.7872,0.7872,0.7861,0.778,0.775,0.7731,0.7573,0.7462,0.732,0.7304,0.7225,0.721,0.721,0.7265,0.7324,0.7435,0.7823,0.8269,0.8269,0.9199,1.0186,1.0186,1.1442,1.2753,1.3073,1.4046,1.4965,1.5351,1.5678,1.5831,1.5644,1.5351,1.5246,1.5561,1.5506,1.5488,1.573,1.5934,1.591,1.5535,1.5009,1.4923,1.5443,1.5745,1.5844,1.5683,1.6047,1.6147,1.5835,1.5911,1.5919,1.5784,1.5784,1.5784,1.5784,1.5784,1.5784,1.5784,1.5784,1.5784,0.0,0.0,0.0,0.0,0.0,0.0,0.0,0.0,0.0,0.0,0.0,0.0,0.0,0.0,0.0,0.0,0.0,0.0422,0.1658,0.2004,0.2584,0.3738,0.415,0.4311,0.4327,0.5566,0.7045,0.852,0.8587,0.8587,0.8587,0.8587,0.8587,0.8587,0.9646,1.0174,1.0174,1.0174,1.0174,1.0174,0.8996,0.8418,0.841,0.8166,0.8117,0.8111,0.7985,0.7872,0.7872,0.7872,0.7872,0.7872,0.7872,0.7872,0.7872,0.7869,0.7869,0.7837,0.76,0.7516,0.7478,0.7289,0.7213,0.721,0.721,0.7379,0.7662,0.7934,0.8436,0.8881,0.8881,0.8885,0.8937,0.8937,0.8937,0.9265,1.0457,1.1651,1.2797,1.4002,1.5137,1.5891,1.5885,1.497,1.4595,1.5725,1.4922,1.4511,1.5379,1.5505,1.5505,1.5499,1.5028,1.4917,1.5469,1.5809,1.6017,1.601,1.6168,1.6188,1.5924,1.6162,1.6126,1.5791,1.5784,1.5784,1.5784,1.5784,1.5784,1.5784,1.5784,1.5784,0.0,0.0,0.0,0.0,0.0,0.0,0.0,0.0,0.0,0.0,0.0,0.0,0.0,0.0,0.0,0.0,0.0,0.0141,0.0537,0.0605,0.116,0.243,0.4439,0.6087,0.7152,0.7654,0.8117,0.8587,0.8587,0.8587,0.8587,0.8587,0.8587,0.8587,0.9646,1.0174,1.0174,1.0083,1.0083,1.0174,0.8903,0.8337,0.841,0.8166,0.8117,0.8108,0.7985,0.7872,0.7872,0.7872,0.7872,0.7872,0.7872,0.7872,0.7872,0.7872,0.7872,0.785,0.7695,0.7589,0.7491,0.7331,0.7222,0.721,0.721,0.7379,0.7718,0.8211,0.8488,0.8677,0.9003,0.9011,0.8908,0.9062,0.9613,1.0241,1.0617,1.1596,1.2521,1.2906,1.3285,1.3501,1.3501,1.3231,1.3068,1.3447,1.3356,1.3652,1.4739,1.489,1.5098,1.573,1.5457,1.526,1.5214,1.5138,1.5103,1.5107,1.5522,1.5699,1.5643,1.5822,1.5925,1.5784,1.5784,1.5784,1.5784,1.5784,1.5784,1.5784,1.5784,1.5939,0.0,0.0,0.0,0.0,0.0,0.0,0.0,0.0,0.0,0.0,0.0,0.0,0.0,0.0,0.0,0.0,0.0,0.0,0.0,0.0,0.0522,0.1876,0.4132,0.6162,0.7654,0.7776,0.7984,0.8587,0.8587,0.8587,0.8587,0.8587,0.8587,0.8587,0.9646,0.9952,0.951,0.982,0.982,0.9506,0.8601,0.8255,0.8407,0.8117,0.8073,0.8108,0.7985,0.7872,0.0,0.7872,0.7872,0.7872,0.7872,0.7872,0.7872,0.7872,0.7872,0.7853,0.7741,0.7622,0.75,0.7317,0.7252,0.721,0.7432,0.7601,0.7881,0.8488,0.8693,0.8811,0.9127,0.913,0.9127,0.9218,0.9736,1.0113,1.0113,1.0995,1.1782,1.1803,1.2261,1.2594,1.2594,1.221,1.2021,1.244,1.2188,1.2606,1.4215,1.444,1.4854,1.5935,1.5716,1.5475,1.5409,1.498,1.4698,1.4706,1.5097,1.54,1.5506,1.5689,1.5784,1.5784,1.5784,1.5784,1.5784,1.5784,1.5784,1.5784,1.5784,1.5985,0.0,0.0,0.0,0.0,0.0,0.0,0.0,0.0,0.0,0.0,0.0,0.0,0.0,0.0,0.0,0.0,0.0,0.0,0.0,0.0151,0.0789,0.2054,0.3652,0.511,0.6424,0.6549,0.7111,0.852,0.8587,0.8584,0.8576,0.8573,0.8571,0.8562,0.9552,0.95,0.8418,0.9447,0.9441,0.8402,0.8176,0.8182,0.838,0.804,0.8002,0.8097,0.7982,0.7872,0.7872,0.7872,0.7872,0.7872,0.7872,0.7872,0.7872,0.7872,0.7872,0.7853,0.7741,0.7627,0.751,0.732,0.7252,0.7321,0.7823,0.7989,0.8103,0.8716,0.9035,0.92,0.9221,0.9323,0.9371,0.9391,0.934,0.9224,0.9224,0.9943,1.0655,1.0779,1.1793,1.266,1.2673,1.1763,1.1306,1.2248,1.1389,1.1435,1.3704,1.4029,1.4592,1.6005,1.5766,1.5626,1.5867,1.5185,1.4728,1.4689,1.4965,1.5239,1.5445,1.5683,1.5784,1.5784,1.5784,1.5784,1.5784,1.5784,1.5791,1.5865,1.5865,1.6032,0.0,0.0,0.0,0.0,0.0,0.0,0.0,0.0,0.0,0.0,0.0,0.0,0.0,0.0,0.0,0.0,0.0,0.0,0.0,0.1797,0.3227,0.3432,0.5837,0.7518,0.7752,0.7968,0.8251,0.8587,0.8587,0.8549,0.8462,0.8456,0.8416,0.832,0.8509,0.8607,0.8416,0.9352,0.93,0.8277,0.822,0.8174,0.8136,0.8111,0.8037,0.7974,0.7883,0.7872,0.7872,0.7872,0.7872,0.7872,0.7872,0.7872,0.7872,0.7872,0.7872,0.7853,0.7741,0.7684,0.7622,0.735,0.7252,0.7321,0.7823,0.7989,0.8103,0.8716,0.8908,0.9042,0.9269,0.9323,0.9323,0.95,0.9439,0.9327,0.9327,0.9526,0.972,0.9879,1.0171,1.041,1.0524,1.031,1.014,1.0281,1.0051,1.0282,1.1531,1.2437,1.3447,1.4586,1.5334,1.5819,1.5885,1.5354,1.4902,1.4734,1.5157,1.5354,1.5185,1.5594,1.5784,1.5784,1.5784,1.5784,1.5784,1.5784,1.5945,1.6166,1.6166,1.6446,0.0,0.0,0.0,0.0,0.0,0.0,0.0,0.0,0.0,0.0,0.0,0.0,0.0,0.0,0.0,0.0,0.0,0.0,0.0,0.2333,0.405,0.4089,0.6611,0.835,0.8394,0.8465,0.8511,0.8511,0.8456,0.8399,0.8337,0.8334,0.8304,0.8172,0.8182,0.8209,0.8334,0.8782,0.8747,0.817,0.8122,0.8062,0.8114,0.8059,0.7996,0.7872,0.7872,0.7872,0.7872,0.7872,0.7872,0.7872,0.7872,0.7872,0.7872,0.7872,0.7872,0.7861,0.7801,0.7709,0.7578,0.7331,0.7356,0.7561,0.7896,0.8189,0.8502,0.8943,0.9089,0.9195,0.9425,0.9473,0.95,0.9669,0.9595,0.9486,0.9486,0.9432,0.9425,0.9581,0.972,0.9836,0.9852,0.9985,0.9958,0.9741,0.9652,0.9904,1.0767,1.1449,1.2432,1.4029,1.4761,1.5351,1.5838,1.5626,1.5351,1.5064,1.5214,1.5329,1.528,1.5434,1.5606,1.5833,1.6111,1.6233,1.6233,1.6233,1.6313,1.6473,1.6473,1.6764,0.0,0.0,0.0,0.0,0.0,0.0,0.0,0.0,0.0,0.0,0.0,0.0,0.0,0.0,0.0,0.0,0.0,0.0,0.0,0.2279,0.4021,0.4234,0.6646,0.8348,0.8492,0.8451,0.841,0.8391,0.8293,0.8225,0.8209,0.8206,0.8198,0.8179,0.8081,0.8084,0.8206,0.8106,0.8095,0.8176,0.7989,0.8007,0.8086,0.798,0.7872,0.7872,0.7872,0.7872,0.7872,0.7872,0.7872,0.7872,0.7872,0.7872,0.7872,0.7872,0.7872,0.7872,0.7872,0.7788,0.7627,0.7417,0.7632,0.7911,0.8086,0.8495,0.8955,0.9195,0.9357,0.9415,0.9568,0.97,0.9795,0.9815,0.973,0.9649,0.9673,0.9574,0.9534,0.971,0.9947,1.0061,1.0085,1.0259,1.0243,0.9937,0.9788,0.9944,1.0626,1.0835,1.1698,1.3756,1.4078,1.4665,1.5839,1.591,1.5798,1.5597,1.5363,1.5301,1.556,1.5386,1.5512,1.5934,1.6431,1.6707,1.6707,1.6707,1.6727,1.6774,1.6774,1.6934,0.0,0.0,0.0,0.0,0.0,0.0,0.0,0.0,0.0,0.0,0.0,0.0,0.0,0.0,0.0,0.0,0.0,0.0,0.0,0.2421,0.4144,0.4007,0.6657,0.8429,0.8226,0.8307,0.8375,0.8207,0.8183,0.819,0.8087,0.8144,0.8035,0.7929,0.791,0.8021,0.8144,0.8128,0.8073,0.7926,0.8056,0.8043,0.796,0.788,0.7872,0.7872,0.7872,0.7872,0.7872,0.7872,0.7872,0.7872,0.7872,0.7872,0.7872,0.7872,0.7872,0.7872,0.7872,0.8145,0.8435,0.816,0.8198,0.8466,0.8685,0.8826,0.8997,0.9392,0.9462,0.9415,0.9568,0.9625,0.9673,0.9791,0.9805,0.9825,0.9893,0.9964,1.0094,1.0304,1.0392,1.0466,1.0595,1.0636,1.0551,1.0253,1.0192,1.0084,0.9829,1.0523,1.1505,1.271,1.3684,1.4732,1.609,1.6018,1.5855,1.5824,1.5784,1.5794,1.5852,1.6008,1.6158,1.6253,1.6537,1.6707,1.6707,1.6707,1.6834,1.7132,1.7132,1.7293,0.0,0.0,0.0,0.0,0.0,0.0,0.0,0.0,0.0,0.0,0.0,0.0,0.0,0.0,0.0,0.0,0.0623,0.1086,0.1084,0.3416,0.5132,0.5096,0.7033,0.8331,0.8168,0.8253,0.8269,0.8147,0.8076,0.8013,0.8021,0.8018,0.7991,0.7872,0.7872,0.7958,0.8015,0.8018,0.8021,0.8032,0.8021,0.7988,0.7872,0.7872,0.7872,0.7872,0.7872,0.7872,0.7872,0.7872,0.7872,0.7872,0.7872,0.7872,0.7933,0.8119,0.8058,0.7922,0.8222,0.8399,0.8402,0.8387,0.8605,0.8892,0.8881,0.914,0.944,0.9552,0.9557,0.9537,0.9686,0.9724,0.9741,0.9805,0.9883,0.9903,0.997,1.0117,1.0215,1.0351,1.0439,1.0514,1.0585,1.0599,1.0524,1.0314,1.0209,1.0022,0.9656,0.9941,1.0578,1.1582,1.26,1.3764,1.5027,1.5636,1.5831,1.5686,1.5676,1.5688,1.5657,1.6099,1.6401,1.656,1.6851,1.6982,1.6982,1.6982,1.7048,1.7186,1.7186,1.7357,0.0,0.0,0.0,0.0,0.0,0.0,0.0,0.0,0.0,0.0,0.0,0.0,0.0,0.0,0.0099,0.0417,0.1351,0.2127,0.2439,0.4491,0.597,0.6136,0.736,0.8223,0.8195,0.8193,0.8141,0.8081,0.7899,0.7842,0.7869,0.7845,0.7845,0.7869,0.7872,0.7872,0.7872,0.7872,0.798,0.8073,0.7977,0.7872,0.7872,0.7872,0.7872,0.7872,0.7872,0.7872,0.7872,0.7872,0.7872,0.7872,0.7872,0.7872,0.7933,0.8183,0.8241,0.8166,0.8492,0.8579,0.8561,0.8691,0.8962,0.9331,0.9167,0.9404,0.9798,0.969,0.9686,0.973,0.9802,0.9822,0.9822,0.9822,0.9876,0.9997,1.0034,1.0222,1.0331,1.0331,1.0446,1.0534,1.05,1.0521,1.0497,1.0351,1.0229,1.0059,0.9802,0.9602,0.9902,1.0975,1.1895,1.3019,1.4493,1.5405,1.5807,1.5602,1.559,1.5597,1.5589,1.6048,1.6442,1.6704,1.6957,1.7067,1.7067,1.7067,1.7067,1.7067,1.7179,1.7331,0.0,0.0,0.0,0.0,0.0,0.0,0.0,0.0,0.0,0.0,0.0,0.0,0.0,0.0,0.041,0.1672,0.1958,0.2442,0.3772,0.5206,0.6104,0.6268,0.7451,0.819,0.8141,0.813,0.8078,0.7894,0.7777,0.7761,0.7867,0.7771,0.7763,0.7869,0.7872,0.7872,0.7872,0.7872,0.7875,0.7883,0.7875,0.7872,0.7872,0.7872,0.7872,0.7872,0.7872,0.7872,0.7872,0.7872,0.7872,0.7872,0.7872,0.7872,0.7933,0.7933,0.8302,0.8793,0.8541,0.8961,0.9623,0.937,0.9495,0.9741,0.9731,0.9744,0.9819,0.9808,0.9849,0.9926,0.9852,0.9822,0.9822,0.9822,0.9876,1.0027,1.0232,1.0375,1.0477,1.0477,1.0599,1.066,1.0517,1.0609,1.0653,1.05,1.0466,1.0405,1.0253,0.9975,1.0205,1.1391,1.2148,1.3457,1.5583,1.5832,1.5885,1.5861,1.5861,1.5849,1.5884,1.614,1.6318,1.6352,1.6624,1.673,1.673,1.673,1.673,1.673,1.7067,1.7226,-0.0051,0.0,0.0,0.0,0.0,0.0,0.0,0.0,0.0,0.0,0.0,0.0,0.0,0.0,0.0418,0.1761,0.2678,0.3656,0.502,0.6416,0.7348,0.7321,0.7825,0.8157,0.7959,0.807,0.8034,0.778,0.7725,0.7687,0.7655,0.7611,0.7644,0.7763,0.7693,0.769,0.7766,0.769,0.7652,0.7652,0.7728,0.7725,0.7652,0.7652,0.7652,0.7652,0.7652,0.7652,0.7652,0.7652,0.7652,0.7652,0.7652,0.7817,0.8125,0.8302,0.86,0.8915,0.9156,0.9335,0.9518,0.9579,0.97,0.9839,0.9872,0.9903,0.9903,0.9903,0.9943,0.9974,0.9916,1.0036,1.0107,1.0107,1.0151,1.0209,1.0266,1.0392,1.049,1.049,1.0538,1.0592,1.0626,1.0449,1.0317,1.0354,1.0276,1.0198,1.0144,0.9951,1.0001,1.0422,1.1886,1.379,1.6178,1.6392,1.604,1.5161,1.56,1.5945,1.6164,1.6105,1.6211,1.6524,1.6477,1.6477,1.6477,1.6477,1.6477,1.6477,1.659,1.6855,-0.0149,-0.0048,0.0,0.0,0.0,0.0,0.0,0.0,0.0,0.0,0.0,0.0,0.0,0.0,0.0586,0.2295,0.3347,0.4517,0.635,0.7408,0.8026,0.788,0.7986,0.7986,0.778,0.7837,0.7818,0.7657,0.7608,0.7568,0.7521,0.7483,0.7516,0.7641,0.7562,0.7559,0.7644,0.7562,0.75,0.7462,0.7546,0.7562,0.7519,0.7519,0.7519,0.7519,0.7519,0.7519,0.7519,0.7519,0.7577,0.7696,0.7794,0.8036,0.8352,0.859,0.8795,0.9098,0.9518,0.9579,0.9528,0.9757,0.9893,0.992,1.0076,1.0058,1.0058,1.0058,1.0154,1.0178,1.0134,1.0164,1.0209,1.0209,1.0246,1.0266,1.0219,1.0324,1.0412,1.0361,1.0429,1.051,1.0571,1.0365,1.0243,1.0395,1.0287,1.0188,1.0188,1.0059,1.0213,1.0842,1.2606,1.4489,1.6538,1.6352,1.5843,1.5203,1.5295,1.5487,1.5624,1.5838,1.6045,1.6418,1.6264,1.6164,1.6164,1.6164,1.6164,1.6164,1.6271,1.6537,-0.0334,-0.0188,0.0,0.0,0.0,0.0,0.0,0.0,0.0,0.0,0.0,0.0,0.0,0.0,0.0868,0.3473,0.3893,0.4892,0.7687,0.8007,0.7869,0.7869,0.7769,0.7652,0.7529,0.7519,0.7519,0.7516,0.7347,0.7331,0.7508,0.7342,0.7333,0.7513,0.7516,0.7516,0.7516,0.7516,0.7453,0.7277,0.7277,0.7396,0.7516,0.7516,0.7516,0.7516,0.7516,0.7516,0.7516,0.7516,0.7688,0.7991,0.8411,0.8581,0.8584,0.8584,0.8913,0.9275,0.9275,0.9518,0.9846,0.9936,0.9984,1.0014,1.0236,1.0283,1.0283,1.0283,1.0385,1.046,1.0317,1.0168,0.9987,0.9987,1.0168,1.0239,1.0021,1.0171,1.0232,1.0017,1.0287,1.0443,1.0307,1.0395,1.0538,1.0694,1.0585,1.049,1.0487,1.0365,1.1094,1.3076,1.4412,1.5599,1.6612,1.5547,1.5216,1.6216,1.5126,1.4352,1.4229,1.5298,1.5891,1.5891,1.5891,1.5891,1.5891,1.5891,1.5891,1.5891,1.6164,1.6324,-0.0397,-0.0194,0.0,0.0,0.0,0.0,0.0,0.0,0.0,0.0,0.0,0.0,0.0,0.0,0.0839,0.3477,0.3921,0.4795,0.7472,0.7774,0.772,0.7633,0.7592,0.7557,0.7524,0.7519,0.7483,0.7339,0.7298,0.7315,0.7266,0.7228,0.7266,0.7328,0.7307,0.7304,0.7331,0.7307,0.7203,0.7089,0.7171,0.7228,0.7263,0.7263,0.7263,0.7263,0.6586,0.6699,0.7263,0.6586,0.6019,0.5566,0.565,0.6388,0.7448,0.7593,0.8414,0.9506,0.9603,0.97,0.9829,0.9873,0.9899,1.0014,1.0236,1.0351,1.0429,1.0429,1.046,1.046,1.0317,1.0246,1.0212,1.0212,1.0246,1.0239,1.0021,1.0024,1.0041,0.9997,1.0058,1.0232,1.0399,1.029,1.0232,1.0388,1.0371,1.0304,1.0195,1.0081,1.1009,1.331,1.3099,1.3606,1.5726,1.5593,1.4956,1.4051,1.4532,1.4966,1.5369,1.5725,1.5891,1.5891,1.5891,1.5891,1.5891,1.5891,1.5891,1.5891,1.5998,1.6111,-0.0387,-0.0189,0.0,0.0,0.0,0.0,0.0,0.0,0.0,0.0,0.0,0.0,0.0,0.0,0.0842,0.3414,0.3838,0.4736,0.7254,0.7627,0.7565,0.7394,0.7375,0.7336,0.7244,0.7279,0.7277,0.7203,0.7239,0.723,0.7215,0.7166,0.7119,0.7195,0.7078,0.7051,0.7124,0.7051,0.7005,0.6986,0.7109,0.7141,0.7144,0.7188,0.6932,0.6429,0.5483,0.5425,0.5929,0.5635,0.518,0.4704,0.4847,0.551,0.6422,0.6544,0.7513,0.8825,0.8954,0.9309,0.9754,0.9873,0.9913,1.0027,1.03,1.0426,1.0504,1.0565,1.0538,1.046,1.0317,1.028,1.0263,1.0205,1.0188,1.0144,0.993,0.9896,0.9916,0.9974,1.0038,1.0215,1.0453,1.0344,1.0256,1.0351,1.0263,1.0154,1.0,1.0424,1.126,1.2719,1.3126,1.366,1.4738,1.4857,1.431,1.3065,1.3341,1.3841,1.4498,1.497,1.5244,1.5244,1.5678,1.5891,1.5891,1.5891,1.5891,1.5891,1.5891,1.5998,-0.0591,-0.0312,-0.0044,0.0,0.0,0.0,0.0,0.0,0.0,0.0,0.0,0.0,0.0,0.0,0.0833,0.3375,0.3791,0.4669,0.7135,0.7491,0.7399,0.7224,0.7185,0.7098,0.6839,0.6921,0.6986,0.6986,0.7136,0.7191,0.718,0.7024,0.697,0.697,0.6861,0.6801,0.6801,0.6801,0.6853,0.695,0.6853,0.6853,0.6956,0.7136,0.647,0.5192,0.4362,0.3861,0.381,0.455,0.4763,0.4648,0.5115,0.5315,0.5431,0.5439,0.6299,0.7447,0.7563,0.8391,0.9473,0.9736,0.9901,1.0038,1.0368,1.0463,1.0504,1.0639,1.0578,1.0439,1.0297,1.0259,1.0219,1.0004,0.9977,0.9947,0.9852,0.9832,0.988,0.9943,1.0164,1.0321,1.0449,1.0473,1.0466,1.0453,1.0209,0.9967,0.9967,1.0882,1.1571,1.1692,1.372,1.4674,1.3605,1.3545,1.3317,1.2864,1.1886,1.1574,1.2279,1.3444,1.4083,1.4223,1.5244,1.5785,1.5891,1.5891,1.5891,1.5891,1.5891,1.5891,-0.1972,-0.1328,-0.0517,-0.0096,0.0,0.0,0.0,0.0,0.0,0.0,0.0,0.0,0.0,0.0,0.0858,0.3381,0.3819,0.465,0.7026,0.7293,0.7237,0.7037,0.6937,0.6896,0.6942,0.697,0.6986,0.6986,0.7008,0.698,0.6883,0.6855,0.6842,0.6842,0.6817,0.6801,0.6801,0.6801,0.6766,0.67,0.5943,0.5991,0.6706,0.6923,0.5977,0.4116,0.3838,0.3023,0.1962,0.2867,0.2922,0.2466,0.2588,0.3208,0.4055,0.4165,0.4997,0.6058,0.6156,0.7074,0.8176,0.8285,0.9053,1.0,1.0061,1.0229,1.0334,1.0365,1.0351,1.029,1.0137,1.0038,1.0059,0.9907,0.9899,0.9947,0.9852,0.9856,0.9913,0.9886,1.0093,1.029,1.0321,1.0327,1.0287,1.0098,0.9926,0.9869,0.9869,1.0086,1.0604,1.1571,1.1325,1.1322,1.2049,1.2109,1.2013,1.1661,1.1433,1.1327,1.1387,1.2362,1.3362,1.4169,1.4439,1.503,1.5891,1.5891,1.5891,1.5891,1.5891,1.5891,-0.244,-0.1999,-0.1342,-0.0444,-0.0205,-0.0159,-0.0054,0.0,0.0,0.0,0.0,0.0,0.0,0.0,0.079,0.3322,0.3681,0.4536,0.6831,0.7114,0.7008,0.6831,0.6752,0.6717,0.6722,0.6777,0.6812,0.6812,0.6864,0.6869,0.6804,0.6747,0.6714,0.6714,0.6657,0.6627,0.6627,0.6627,0.6365,0.584,0.5322,0.5112,0.507,0.5212,0.4362,0.2804,0.2307,0.1709,0.1152,0.1782,0.1952,0.1775,0.1789,0.2186,0.2747,0.2829,0.3628,0.4655,0.4791,0.5658,0.6769,0.6869,0.7368,0.7988,0.8105,0.8623,0.9193,0.9324,0.9727,1.0151,1.0007,0.9933,0.9859,0.9839,0.9883,0.9856,0.9839,0.9883,0.9876,0.9869,1.012,1.03,1.0371,1.0327,1.0226,1.0011,0.9859,0.9822,0.9822,0.9822,1.0061,1.0728,1.0725,1.0725,1.0785,1.1329,1.1375,1.055,1.0532,1.0478,1.0189,1.074,1.1552,1.2573,1.3676,1.4487,1.5083,1.5618,1.5891,1.5891,1.5891,1.5891,-0.3058,-0.2736,-0.2119,-0.1046,-0.0613,-0.0419,-0.0216,-0.0108,-0.0054,-0.0054,-0.0055,0.0,0.0,0.0,0.0711,0.2933,0.3288,0.4016,0.6136,0.6555,0.6579,0.6331,0.6446,0.6556,0.6425,0.6559,0.6619,0.6619,0.6714,0.676,0.6741,0.6643,0.6589,0.6589,0.6438,0.6387,0.6387,0.6387,0.5929,0.4939,0.4785,0.4013,0.2832,0.2979,0.2585,0.1696,0.0813,0.0596,0.0909,0.1213,0.1495,0.1807,0.1777,0.1791,0.1795,0.1795,0.2409,0.3309,0.3412,0.4233,0.5293,0.5499,0.5684,0.584,0.5989,0.6778,0.7667,0.783,0.8555,0.932,0.932,0.9232,0.9143,0.9143,0.9329,0.9515,0.9758,0.9842,0.989,0.9926,1.0134,1.028,1.0395,1.0317,1.0188,0.997,0.99,0.9822,0.9822,0.9822,0.9822,0.9822,1.0725,1.0967,0.9879,1.0789,1.0853,0.9712,0.9707,0.9591,0.9303,0.9279,0.971,1.061,1.2581,1.3786,1.4223,1.5137,1.5731,1.5891,1.5891,1.5891,-0.534,0.0,-0.2391,0.0,-0.1516,-0.0728,0.0,0.0,-0.032,-0.0321,-0.0161,0.0,0.0,0.0,0.0428,0.182,0.203,0.2505,0.3837,0.4732,0.5248,0.5223,0.5913,0.6446,0.6586,0.6608,0.6619,0.6619,0.6635,0.6597,0.6441,0.6419,0.6411,0.6411,0.6395,0.6387,0.6387,0.6387,0.5892,0.48,0.3892,0.2376,0.0507,0.142,0.1742,0.1564,0.0755,0.0596,0.0908,0.1197,0.1479,0.1804,0.1809,0.1828,0.1795,0.1795,0.1907,0.2019,0.208,0.295,0.4017,0.4092,0.4886,0.5814,0.584,0.6024,0.6213,0.6226,0.6346,0.6467,0.6467,0.6458,0.6449,0.6449,0.7304,0.8471,0.9576,0.9862,0.9923,0.9873,0.9913,1.0024,1.0044,1.0031,0.9967,0.9873,0.9832,0.9822,0.9822,0.9822,0.9822,0.9822,0.994,1.0001,0.9822,0.9943,0.9994,0.9791,0.9571,0.9473,0.9547,0.9195,0.9101,0.9433,1.0544,1.2146,1.4223,1.4331,1.4917,1.5891,1.5891,1.5891,-0.5879,-0.4896,-0.3474,0.0,-0.2199,-0.1638,-0.0932,-0.0732,-0.0631,-0.0631,-0.0521,-0.0364,-0.0053,0.0,0.0421,0.1592,0.1793,0.22,0.3349,0.3844,0.4274,0.4845,0.526,0.5754,0.6409,0.6465,0.6465,0.6465,0.6465,0.6441,0.6389,0.6387,0.6387,0.6387,0.6387,0.6387,0.6387,0.6387,0.5584,0.3879,0.2217,0.0908,0.0,0.0505,0.071,0.0716,0.0473,0.0579,0.0882,0.1173,0.1501,0.1755,0.1718,0.1742,0.1825,0.1825,0.178,0.1795,0.1795,0.2197,0.2666,0.2691,0.3057,0.3544,0.3578,0.416,0.4752,0.4752,0.5348,0.5896,0.5896,0.5896,0.5896,0.5896,0.6324,0.7121,0.8471,0.9316,0.9866,0.9883,0.9943,0.9987,0.9987,0.9987,0.9933,0.9842,0.9822,0.9822,0.9822,0.9822,0.9822,0.9822,0.9822,0.9822,0.9822,0.9822,0.9822,0.9822,0.97,0.9622,0.9608,0.9337,0.9178,0.921,1.0216,1.1546,1.3181,1.3894,1.4815,1.5891,1.5891,1.5891,0.0,0.0,-0.4779,-0.3733,-0.3114,-0.2524,0.0,0.0,-0.0877,-0.0877,-0.0867,-0.0662,-0.0262,-0.0156,0.0207,0.1204,0.135,0.1647,0.2415,0.2773,0.3322,0.4286,0.4634,0.5236,0.6287,0.6387,0.6387,0.6387,0.6387,0.6387,0.6387,0.636,0.6407,0.6384,0.6108,0.6106,0.6387,0.6134,0.5031,0.3173,0.1311,0.0252,0.0,0.0051,0.0101,0.0101,0.0412,0.0668,0.0912,0.1255,0.1525,0.1717,0.1685,0.1716,0.1804,0.1804,0.1824,0.1795,0.1795,0.1795,0.1799,0.1821,0.1777,0.1787,0.1867,0.2611,0.3373,0.3373,0.4137,0.492,0.492,0.492,0.492,0.492,0.5163,0.5835,0.7551,0.89,0.9852,0.9906,0.993,0.993,0.993,0.993,0.9889,0.9839,0.9822,0.9822,0.9822,0.9822,0.9822,0.9822,0.9822,0.9822,0.9822,0.9822,0.9822,0.9822,0.9788,0.972,0.9612,0.9462,0.931,0.9214,0.9928,1.0881,1.1978,1.3181,1.4326,1.5458,1.5785,1.5891,0.0,-0.7024,0.0,-0.5897,-0.4501,-0.3108,0.0,0.0,-0.1164,-0.1164,-0.0961,-0.0809,-0.076,-0.0557,-0.0253,0.0051,0.0101,0.0101,0.0152,0.1061,0.2069,0.3173,0.418,0.5236,0.6287,0.6387,0.6387,0.6387,0.6387,0.6387,0.6387,0.6336,0.6325,0.6384,0.534,0.5288,0.6384,0.5386,0.4331,0.3173,0.2066,0.1009,0.0,0.0253,0.0404,0.0404,0.0721,0.0977,0.1214,0.1548,0.1664,0.1714,0.1716,0.1752,0.1804,0.1804,0.1824,0.1795,0.1795,0.1795,0.1795,0.1797,0.1817,0.1783,0.1784,0.1884,0.1991,0.1991,0.2075,0.2223,0.2223,0.2223,0.2223,0.2223,0.3143,0.4734,0.7307,0.89,0.9822,0.9832,0.9832,0.9832,0.9832,0.9832,0.9829,0.9822,0.9822,0.9822,0.9822,0.9822,0.9822,0.9822,0.9822,0.9822,0.9822,0.9822,0.9822,0.9822,0.9693,0.9615,0.9608,0.9462,0.931,0.9214,0.9257,0.979,1.0781,1.1923,1.3127,1.4331,1.5405,1.5891,0.0,0.0,0.0,-0.6308,-0.5083,-0.3912,-0.3286,-0.2259,-0.1465,-0.1465,-0.1364,-0.1263,-0.1111,-0.0707,-0.0354,-0.0253,-0.0101,0.0,0.0,0.0353,0.121,0.2972,0.3525,0.4479,0.6237,0.6387,0.6387,0.6387,0.6387,0.6404,0.6333,0.5699,0.5322,0.5289,0.4294,0.3951,0.4327,0.3272,0.2569,0.2167,0.111,0.0454,0.0253,0.0354,0.0606,0.091,0.1017,0.1118,0.1213,0.1527,0.1633,0.1635,0.1706,0.1738,0.1722,0.1797,0.1824,0.1795,0.1795,0.1795,0.1795,0.1795,0.1829,0.1869,0.1869,0.1912,0.196,0.196,0.1968,0.1977,0.1977,0.1977,0.1977,0.1977,0.3634,0.5468,0.6385,0.7673,0.8836,0.9636,0.9822,0.9822,0.9822,0.9822,0.9822,0.9822,0.9822,0.9822,0.9822,0.9822,0.9822,0.9822,0.9822,0.9822,0.9822,0.9822,0.9822,0.9822,0.9774,0.9744,0.9744,0.951,0.9354,0.93,0.9113,0.9591,1.0726,1.1814,1.3019,1.4223,1.5351,1.5891,-0.7373,-0.7345,-0.7235,0.0,-0.594,-0.4946,-0.3884,-0.286,-0.2019,-0.1667,-0.1617,-0.1566,-0.1364,-0.096,-0.0657,-0.0556,-0.0303,-0.0152,-0.0152,-0.0051,0.0656,0.2469,0.2972,0.3877,0.5684,0.6187,0.6387,0.6387,0.6387,0.6205,0.5836,0.5127,0.4384,0.3613,0.3343,0.3014,0.2669,0.2318,0.1966,0.1613,0.0858,0.0505,0.0404,0.0505,0.0758,0.1212,0.1313,0.1314,0.1364,0.1516,0.1617,0.162,0.165,0.168,0.1708,0.1792,0.1824,0.1795,0.1795,0.1795,0.1795,0.1795,0.1836,0.1886,0.1886,0.1928,0.1977,0.1977,0.1977,0.1977,0.1977,0.1977,0.1977,0.1977,0.3328,0.4858,0.5712,0.7304,0.8778,0.9636,0.9822,0.9822,0.9822,0.9822,0.9822,0.9822,0.9822,0.9822,0.9822,0.9822,0.9822,0.9822,0.9822,0.9822,0.9822,0.9822,0.9822,0.9822,0.9822,0.9822,0.9822,0.9588,0.9435,0.9384,0.9137,0.9369,1.0076,1.1655,1.2797,1.3619,1.5185,1.5891,0.0,0.0,0.0,-0.756,-0.7091,-0.6106,-0.4918,-0.3925,-0.2923,-0.1869,-0.1667,-0.1617,-0.1617,-0.1364,-0.1111,-0.0859,-0.0606,-0.0404,-0.0404,-0.0152,0.0404,0.1462,0.2569,0.3626,0.4684,0.5787,0.6387,0.6387,0.6387,0.5884,0.483,0.4657,0.361,0.1429,0.2471,0.2618,0.1562,0.2569,0.2569,0.1563,0.1563,0.116,0.0404,0.0657,0.096,0.1212,0.1465,0.1617,0.1617,0.1617,0.1617,0.162,0.1652,0.168,0.1708,0.1794,0.1825,0.1795,0.1795,0.1795,0.1795,0.1795,0.1836,0.1885,0.1885,0.1928,0.1975,0.1976,0.1977,0.1977,0.1977,0.1977,0.1977,0.1977,0.2038,0.2775,0.5347,0.7919,0.9761,0.9822,0.9822,0.9761,0.9761,0.9758,0.9761,0.9761,0.9761,0.9761,0.9822,0.9822,0.9822,0.9822,0.9822,0.9822,0.9822,0.9822,0.9822,0.9822,0.9822,0.9822,0.9822,0.9686,0.954,0.9391,0.9292,0.9086,0.8888,1.1223,1.2363,1.2472,1.4804,1.5891,-0.6184,0.0,0.0,0.0,0.0,0.0,-0.5996,-0.5109,-0.4074,-0.2973,-0.2773,-0.2521,-0.1768,-0.1516,-0.1465,-0.1415,-0.101,-0.0606,-0.0404,-0.0354,0.0202,0.1462,0.2569,0.3626,0.4684,0.5787,0.6387,0.6387,0.5687,0.5105,0.4738,0.3185,0.1698,0.0438,0.0723,0.0732,0.0454,0.0757,0.0757,0.0454,0.0454,0.0505,0.0707,0.0758,0.1061,0.1516,0.1566,0.1617,0.1617,0.1617,0.1617,0.1622,0.1673,0.1697,0.171,0.1763,0.1788,0.1795,0.1795,0.1795,0.1795,0.1795,0.1821,0.1857,0.1879,0.1913,0.1948,0.197,0.1977,0.1977,0.1977,0.1791,0.1667,0.1667,0.2345,0.3388,0.4856,0.6696,0.8413,0.9576,0.9579,0.9457,0.9457,0.9278,0.9217,0.9396,0.9457,0.9518,0.9761,0.9822,0.9822,0.9822,0.9822,0.9822,0.9822,0.9822,0.9822,0.9822,0.9822,0.9822,0.9822,0.9686,0.9591,0.9547,0.9347,0.919,0.9093,1.0516,1.1596,1.2472,1.4804,1.5891,-0.4926,-0.5111,-0.534,-0.6443,0.0,0.0,-0.5778,-0.5217,-0.4462,-0.3351,-0.2824,-0.2337,-0.1679,-0.16,-0.1613,-0.16,-0.1357,-0.1061,-0.0758,-0.0556,-0.0101,0.0656,0.1814,0.2972,0.4029,0.468,0.5231,0.5687,0.4732,0.3896,0.343,0.1774,0.0575,0.0,0.0,0.0,0.0,0.0,0.0,0.0,0.0,0.0303,0.0808,0.0808,0.1111,0.1617,0.1617,0.1617,0.1617,0.1617,0.1617,0.1623,0.1682,0.1704,0.1712,0.1773,0.1795,0.1795,0.1795,0.1795,0.1795,0.1795,0.1824,0.1863,0.1881,0.1916,0.1954,0.1972,0.1977,0.1977,0.1853,0.1667,0.1482,0.1297,0.1851,0.2834,0.455,0.5653,0.694,0.9028,0.9278,0.9156,0.9156,0.8973,0.8976,0.9095,0.9156,0.9217,0.9579,0.9579,0.964,0.9761,0.9822,0.9822,0.9822,0.9822,0.9822,0.9822,0.9822,0.9822,0.9822,0.9686,0.9581,0.9513,0.9333,0.918,0.9062,1.0177,1.1542,1.3181,1.5024,1.5891,-0.3256,-0.3234,-0.3459,-0.4595,-0.5676,0.0,-0.5042,-0.4912,-0.4635,-0.3462,-0.2431,-0.1715,-0.1541,-0.1581,-0.1608,-0.1581,-0.1599,-0.1516,-0.1263,-0.0808,-0.0455,-0.0404,0.0757,0.1966,0.2922,0.3123,0.3575,0.4533,0.3626,0.2551,0.1476,0.054,0.0,0.0,0.0,0.0,0.0,0.0,0.0,0.0,0.0,0.0253,0.0758,0.0758,0.1061,0.1566,0.1566,0.1566,0.1617,0.1617,0.1617,0.1622,0.1678,0.1701,0.1711,0.1769,0.1792,0.1795,0.1795,0.1795,0.1795,0.1795,0.1834,0.1881,0.1885,0.1926,0.1973,0.1975,0.1977,0.1853,0.1606,0.142,0.1297,0.0988,0.0926,0.1604,0.406,0.4734,0.5594,0.8052,0.8732,0.8854,0.8854,0.8793,0.8793,0.8854,0.8854,0.8976,0.9278,0.9275,0.9457,0.9761,0.9822,0.9822,0.9822,0.9822,0.9822,0.9822,0.9822,0.9822,0.9822,0.97,0.9561,0.9408,0.9296,0.9089,0.896,1.0139,1.1819,1.4002,1.519,1.5785,-0.3056,-0.3273,-0.3528,-0.4644,-0.5678,0.0,-0.6195,-0.6118,-0.5792,-0.4678,-0.3595,-0.2604,-0.175,-0.1609,-0.1615,-0.1609,-0.1613,-0.1516,-0.1263,-0.1111,-0.0859,-0.0455,0.0605,0.1462,0.1865,0.267,0.3274,0.3475,0.2519,0.146,0.0352,0.0099,0.0,0.0,0.0,0.0,0.0,0.0,0.0,0.0,0.0,0.0152,0.0455,0.0455,0.0758,0.1263,0.1263,0.1415,0.1617,0.1617,0.1617,0.162,0.1656,0.1684,0.1709,0.1799,0.1774,0.1795,0.1795,0.1795,0.1795,0.1795,0.1819,0.1853,0.1879,0.1911,0.1945,0.1969,0.1791,0.1606,0.1544,0.1111,0.0679,0.0617,0.0617,0.0987,0.228,0.357,0.4921,0.6213,0.7566,0.8491,0.8491,0.8302,0.818,0.843,0.8491,0.8671,0.9217,0.9275,0.9457,0.9761,0.9822,0.9822,0.9822,0.9822,0.9822,0.9822,0.9822,0.9822,0.9822,0.9795,0.971,0.9568,0.935,0.9197,0.9166,1.0197,1.1437,1.2797,1.3997,1.503,-0.2416,-0.2518,-0.2613,-0.3225,-0.4145,0.0,0.0,-0.476,-0.4654,-0.4029,-0.311,-0.2232,-0.1672,-0.1596,-0.1612,-0.1596,-0.1607,-0.1566,-0.1415,-0.1263,-0.1061,-0.0657,0.0,0.0706,0.1513,0.1613,0.1613,0.1613,0.111,0.0555,0.0051,0.0,0.0,0.0,0.0,0.0,0.0,0.0,0.0,0.0,0.0,0.0152,0.0404,0.0404,0.0606,0.101,0.1162,0.1263,0.1415,0.1415,0.1465,0.162,0.165,0.168,0.1708,0.1792,0.1824,0.1795,0.1795,0.1795,0.1795,0.1627,0.1645,0.1788,0.1701,0.1678,0.1648,0.1526,0.135,0.1235,0.105,0.0741,0.0432,0.0309,0.0247,0.0555,0.1727,0.3141,0.4492,0.5661,0.7136,0.818,0.818,0.7994,0.7933,0.8119,0.8305,0.8552,0.9034,0.9217,0.9457,0.9761,0.9822,0.9822,0.9822,0.9822,0.9822,0.9822,0.9822,0.9822,0.9822,0.9822,0.972,0.95,0.9344,0.9195,0.9045,0.9649,1.0816,1.2413,1.3619,1.4815,-0.1804,-0.174,-0.1727,-0.1807,-0.2547,-0.3291,0.0,0.0,0.0,-0.3087,-0.2313,0.0,0.0,0.0,0.0,-0.1584,-0.16,-0.1617,-0.1617,-0.1415,-0.1162,-0.0909,-0.0657,-0.005,0.1109,0.0454,0.0,0.0,0.0,0.0,0.0,0.0,0.0,0.0,0.0,0.0,0.0,0.0,0.0,0.0,0.0,0.0101,0.0303,0.0303,0.0455,0.0758,0.096,0.1061,0.1111,0.1111,0.1263,0.1467,0.1541,0.1618,0.1699,0.1784,0.1815,0.1787,0.1737,0.1683,0.1627,0.1346,0.1421,0.1564,0.1409,0.1386,0.1354,0.1091,0.0976,0.0864,0.0556,0.0432,0.0309,0.0062,0.0,0.0309,0.1357,0.2648,0.3937,0.523,0.658,0.7625,0.7869,0.7872,0.7872,0.7872,0.8183,0.8491,0.8854,0.9156,0.9457,0.9761,0.9822,0.9822,0.9822,0.9822,0.9822,0.9822,0.9822,0.9822,0.9822,0.9795,0.9683,0.9469,0.9381,0.9249,0.9013,0.9096,1.0266,1.2413,1.3403,1.4595,-0.1782,-0.1787,-0.1785,-0.1789,-0.2594,-0.3374,-0.3359,0.0,-0.3275,-0.3262,0.0,-0.1702,-0.1699,0.0,0.0,-0.1612,-0.1615,-0.1617,-0.1617,-0.1566,-0.1465,-0.1162,-0.0909,-0.0606,-0.0202,-0.0051,0.0,0.0,0.0,0.0,0.0,0.0,0.0,0.0,0.0,0.0,0.0,0.0,0.0,0.0,0.0,0.0,0.0051,0.0051,0.0202,0.0455,0.0455,0.0606,0.0859,0.0859,0.0859,0.091,0.1165,0.1436,0.1722,0.1699,0.1729,0.1759,0.1451,0.1346,0.129,0.1009,0.0974,0.0999,0.106,0.1024,0.1046,0.103,0.0793,0.0556,0.0494,0.0309,0.0062,0.0,0.0,0.0062,0.0185,0.1295,0.2588,0.3876,0.5228,0.6521,0.7686,0.7872,0.7872,0.7872,0.8183,0.8491,0.8854,0.9156,0.9457,0.9761,0.9822,0.9822,0.9822,0.9822,0.9822,0.9822,0.9822,0.9822,0.9822,0.97,0.9676,0.9771,0.9381,0.9296,0.953,0.915,1.0154,1.2417,1.2526,1.3771,-0.1791,-0.1795,-0.1795,-0.1795,-0.212,-0.249,-0.2465,-0.2445,-0.2426,-0.2401,0.0,0.0,0.0,0.0,0.0,0.0,-0.1643,-0.1637,-0.162,-0.1617,-0.1516,-0.1212,-0.1111,-0.0859,-0.0455,-0.0152,0.0,0.0,0.0,0.0,0.0,0.0,0.0,0.0,0.0,0.0,0.0,0.0,0.0,0.0,0.0,0.0,0.0,0.0,0.0051,0.0152,0.0354,0.0455,0.0556,0.0556,0.0657,0.0808,0.0758,0.092,0.1247,0.1256,0.1228,0.1258,0.1102,0.1057,0.1065,0.0953,0.0803,0.0647,0.0641,0.0658,0.0677,0.0485,0.0305,0.0185,0.0185,0.0123,0.0,0.0,0.0,0.0,0.0,0.1049,0.2157,0.2711,0.4493,0.609,0.6644,0.738,0.7872,0.7872,0.8363,0.8732,0.8854,0.9278,0.964,0.9761,0.9822,0.9822,0.9822,0.9822,0.9822,0.9822,0.9822,0.9822,0.9822,0.9764,0.9724,0.97,0.9595,0.952,0.9476,0.9378,1.0471,1.2716,1.2526,1.3663,-0.178,-0.1782,-0.1785,-0.1793,-0.1795,-0.1789,-0.1822,-0.1817,-0.1811,-0.1733,-0.1722,0.0,0.0,0.0,-0.1695,-0.1719,0.0,-0.1652,-0.1621,-0.1617,-0.1516,-0.1314,-0.1263,-0.101,-0.0556,-0.0253,-0.0101,-0.01,-0.005,0.0,0.0,0.0,0.0,0.0,0.0,0.0,0.0,0.0,0.0,0.0,0.0,0.0,0.0,0.0,0.0,0.0,0.0202,0.0303,0.0303,0.0303,0.0404,0.0556,0.0354,0.046,0.0675,0.0831,0.09,0.087,0.0819,0.0719,0.0673,0.0673,0.0515,0.035,0.0288,0.0296,0.0306,0.0061,0.0,0.0,0.0,0.0,0.0,0.0,0.0,0.0,0.0,0.074,0.1665,0.2403,0.4063,0.5598,0.6335,0.7255,0.7872,0.7872,0.8485,0.8915,0.8915,0.9396,0.9822,0.9822,0.9822,0.9822,0.9822,0.9822,0.9822,0.9822,0.9822,0.9822,0.9822,0.9822,0.9774,0.9669,0.973,0.9676,0.9503,0.988,1.1137,1.3059,1.2641,1.3756,-0.1797,-0.1806,-0.1813,-0.1788,-0.1795,-0.1795,-0.1793,-0.1793,-0.1793,-0.1792,-0.1824,-0.1803,-0.1803,-0.1724,-0.1695,-0.1719,-0.1714,0.0,0.0,-0.1617,-0.1617,-0.1566,-0.1364,-0.1111,-0.0808,-0.0556,-0.0401,-0.0394,-0.015,0.0,0.0,0.0,0.0,0.0,0.0,0.0,0.0,0.0,0.0,0.0,0.0,0.0,0.0,0.0,0.0,0.0,0.0,0.0,0.0,0.0,0.0,0.0,0.0,0.0,0.0104,0.0675,0.0893,0.0856,0.0544,0.0221,0.0056,0.0056,0.0,0.0,0.0,0.0,0.0,0.0,0.0,0.0,0.0,0.0,0.0,0.0,0.0,0.0,0.0,0.0062,0.0802,0.3323,0.3936,0.4795,0.7378,0.7869,0.7872,0.7872,0.8485,0.8915,0.8915,0.9396,0.9822,0.9822,0.9822,0.9822,0.9822,0.9822,0.9822,0.9822,0.9822,0.9822,0.9822,0.9822,0.9819,0.9815,0.9683,0.968,0.9808,1.0743,1.1938,1.328,1.2805,1.394,-0.1717,-0.1788,-0.1807,-0.1818,-0.178,-0.1795,-0.1795,-0.1795,-0.18,-0.1821,-0.1801,-0.1786,-0.1806,-0.1785,-0.1748,-0.1698,-0.169,-0.1673,0.0,-0.1617,-0.1617,-0.1617,-0.1364,-0.1162,-0.1061,-0.0649,-0.0395,-0.0393,-0.0146,0.0,0.0,0.0,0.0,0.0,0.0,0.0,0.0,0.0,0.0,0.0,0.0,0.0,0.0,0.0,0.0,0.0,0.0,0.0,0.0,0.0,0.0,0.0,0.0,0.0,0.0,0.0204,0.0314,0.0272,0.0166,0.0056,0.0,0.0,0.0,0.0,0.0,0.0,0.0,0.0,0.0,0.0,0.0,0.0,0.0,0.0,0.0,0.0,0.0,0.0,0.0494,0.228,0.3324,0.449,0.6274,0.7505,0.8244,0.8244,0.861,0.8976,0.9156,0.9518,0.9822,0.9822,0.9822,0.9822,0.9822,0.9822,0.9822,0.9822,0.9822,0.9822,0.9822,0.9822,0.9822,0.9822,0.9774,0.9774,0.9822,1.0973,1.2251,1.3556,1.4089,1.5035,-0.1701,-0.1727,-0.1807,-0.1818,-0.178,-0.1795,-0.1795,-0.1795,-0.18,-0.182,-0.1808,-0.1797,-0.1806,-0.1801,-0.1772,-0.1701,-0.1697,-0.1684,0.0,-0.1617,-0.1617,-0.1617,-0.1465,-0.1314,-0.1212,-0.0899,-0.0593,-0.0393,-0.0244,-0.0098,0.0,0.0,0.0,0.0,0.0,0.0,0.0,0.0,0.0,0.0,0.0,0.0,0.0,0.0,0.0,0.0,0.0,0.0,0.0,0.0,0.0,0.0,0.0,0.0,0.0,0.0,0.0,0.0,0.0,0.0,0.0,0.0,0.0,0.0,0.0,0.0,0.0,0.0,0.0,0.0,0.0,0.0,0.0,0.0,0.0,0.0,0.0,0.037,0.111,0.2403,0.3754,0.5044,0.6396,0.763,0.8369,0.8369,0.8793,0.9095,0.9278,0.9579,0.9822,0.9822,0.9822,0.9822,0.9822,0.9822,0.9822,0.9822,0.9822,0.9822,0.9822,0.9873,0.9927,0.9985,0.9985,1.0228,1.0653,1.187,1.3134,1.4376,1.5536,1.6235]}]]